GFSMW_925_rhum_000.txt.gz
RH
15 17 19 19 23 30 34 35 37 46 58 65 71 73 71 71 74 77 79 79 78 78 80 80 79 78 73 71 72 72 72 68 73 72 68 64 64 63 63 58 51 44 46
13 12 15 19 21 23 30 37 38 42 50 56 62 62 60 63 67 73 79 84 83 82 83 83 81 79 79 77 74 74 72 73 69 72 70 72 54 55 59 58 56 50 45
16 14 15 19 24 27 28 30 36 39 44 55 58 63 63 69 72 70 76 83 85 85 87 87 84 82 82 80 79 77 78 74 72 77 70 69 65 54 50 53 50 48 50
17 17 20 22 24 28 32 34 36 38 41 48 55 58 59 59 53 56 66 77 85 85 86 88 88 85 84 84 82 83 81 82 77 77 78 74 65 65 62 55 59 57 55
22 22 23 23 26 33 34 35 31 30 34 40 51 53 57 52 51 51 60 65 73 83 85 88 89 87 86 83 82 82 83 82 84 81 77 78 77 75 74 73 62 59 60
24 22 23 24 26 31 34 37 36 33 37 39 41 51 52 54 51 54 60 63 66 72 81 84 84 84 86 86 85 85 86 86 86 84 82 78 71 74 73 72 66 63 61
24 24 25 26 29 30 31 30 32 34 44 53 55 52 54 57 57 56 56 60 62 69 74 81 80 80 81 82 84 83 89 92 90 87 85 84 80 74 71 67 63 61 58
25 25 25 28 29 32 33 31 30 31 35 45 54 59 64 65 64 62 62 61 60 62 68 74 76 74 76 79 81 86 88 91 93 91 88 86 84 80 76 72 69 75 66
26 26 26 31 34 36 36 35 33 34 35 35 39 46 55 62 66 64 65 65 67 67 67 72 76 75 73 74 77 83 84 87 90 94 92 90 86 84 81 78 76 75 80
27 27 29 35 37 38 37 38 38 38 37 36 36 39 41 44 51 57 59 61 64 66 67 72 74 76 75 75 77 81 82 86 89 93 93 93 90 88 87 85 82 80 78
31 33 35 37 40 41 42 43 42 42 42 41 40 40 41 43 45 46 48 51 52 56 60 62 67 69 72 74 76 78 81 85 86 91 93 92 91 90 91 91 91 90 88
37 38 38 39 41 41 42 42 43 42 42 44 43 42 42 42 41 41 44 47 49 51 53 58 63 66 69 73 74 78 84 82 86 88 90 92 92 93 91 93 94 93 92
43 41 39 39 40 41 40 40 41 44 44 44 42 41 44 45 44 44 42 42 44 47 51 56 61 65 68 72 76 76 78 78 83 86 89 88 89 90 92 94 94 94 92
43 43 40 42 42 41 40 39 41 44 46 47 45 45 45 45 46 47 48 47 46 45 46 48 52 58 65 72 78 77 82 85 81 84 86 87 88 88 88 95 95 96 95
42 38 36 34 35 38 42 44 46 50 54 55 51 50 54 53 52 53 52 49 47 47 48 48 50 54 60 71 75 83 90 89 88 84 88 89 89 88 87 94 97 97 94
38 39 38 39 40 53 62 61 59 61 65 62 60 59 62 63 64 63 62 58 54 51 49 49 49 50 58 69 77 89 88 90 92 88 87 90 93 94 92 93 94 97 98
41 44 47 49 59 70 65 64 68 70 66 63 62 64 64 64 64 64 63 63 61 58 54 50 48 49 51 59 69 83 91 95 89 88 90 90 96 100 100 99 100 99 97
43 46 52 68 76 65 64 64 58 58 60 64 62 61 60 59 59 59 58 59 59 59 58 56 56 55 55 58 64 76 94 96 95 93 91 95 92 100 100 100 100 100 100
59 69 76 69 66 61 61 59 56 56 58 60 58 57 56 58 57 56 56 57 57 58 59 59 60 58 57 58 63 70 87 96 97 97 98 98 97 96 100 100 100 100 97
75 74 73 71 64 59 57 56 57 58 58 60 62 60 57 58 55 54 56 58 58 59 62 62 63 61 61 61 68 72 87 92 93 100 99 98 100 98 100 100 99 94 90
72 67 62 58 56 52 48 47 49 46 49 49 46 50 48 46 42 48 53 57 58 60 60 59 60 65 66 67 73 75 90 93 92 94 98 100 99 100 100 100 98 95 89
65 60 58 55 53 52 50 46 45 47 49 47 47 43 40 42 43 39 44 53 56 57 57 57 62 67 70 75 75 78 79 94 100 97 95 98 99 100 100 100 98 99 98
62 59 56 49 47 46 43 38 36 38 42 42 40 38 34 36 37 35 34 48 50 47 47 54 64 73 82 82 80 79 84 85 100 100 100 100 100 100 100 100 100 100 94
48 52 45 37 34 30 31 30 32 34 40 38 36 35 30 34 37 33 31 35 36 47 50 55 60 74 83 87 85 86 88 93 99 98 99 100 100 100 100 100 100 92 84
43 43 34 31 30 31 32 31 32 35 38 37 35 35 34 34 39 36 31 35 38 50 67 70 70 72 77 86 96 99 99 98 99 100 100 100 100 100 100 100 94 91 81
40 34 33 31 31 33 35 35 36 38 38 37 38 38 40 37 40 33 30 34 45 59 59 63 75 74 71 80 97 100 100 100 100 100 99 99 98 97 98 96 94 85 75

GFSMW_925_rhum_003.txt.gz
RH
11 11 14 16 16 17 21 24 26 29 40 50 55 62 63 64 65 66 66 67 67 66 71 74 74 72 71 66 66 68 69 68 66 64 62 61 60 58 58 59 59 58 49
13 14 15 16 16 17 18 22 27 29 32 45 50 54 56 57 58 62 66 69 70 70 71 74 76 75 75 73 69 67 69 70 68 64 66 72 62 59 58 58 59 60 56
19 18 19 21 24 24 24 22 24 31 34 38 47 51 55 55 56 58 62 68 70 73 74 75 77 78 76 76 76 73 72 72 72 69 68 73 73 56 50 53 54 54 51
20 21 23 24 27 35 34 32 30 28 33 38 43 50 55 56 56 56 58 60 66 73 76 77 79 80 80 79 78 77 77 77 77 76 73 69 61 67 64 55 56 52 50
23 24 26 27 30 37 38 39 34 30 31 34 38 46 52 52 52 50 46 49 55 68 75 78 80 82 82 81 82 80 79 78 80 78 77 79 78 74 75 76 64 61 58
23 23 27 29 32 36 36 32 30 32 38 41 38 37 44 48 48 47 46 48 51 56 65 76 78 82 84 83 82 82 80 78 78 80 80 79 78 81 78 79 71 68 63
25 25 30 31 35 37 36 31 31 31 31 36 44 48 48 48 50 52 52 50 51 54 59 66 75 78 82 82 82 80 81 82 83 82 81 82 80 74 72 72 69 67 63
25 26 31 33 35 36 37 34 34 34 34 34 34 36 45 53 56 55 55 55 54 53 54 61 68 73 75 76 78 80 81 83 85 87 86 84 84 82 79 76 76 79 69
26 28 32 35 35 36 39 39 38 38 38 36 35 35 34 36 40 46 50 54 55 58 61 62 63 68 71 70 71 74 77 81 82 88 92 90 85 84 84 81 80 80 87
27 30 31 35 36 39 40 39 38 38 39 39 38 39 38 38 38 39 40 41 44 47 51 55 59 63 67 70 70 70 72 75 78 82 85 88 88 84 85 86 84 82 82
31 33 33 36 38 38 38 37 37 38 40 40 39 40 41 41 40 38 38 38 39 40 43 45 48 52 55 60 66 69 70 73 75 76 80 84 87 87 87 87 89 86 86
35 35 34 35 35 36 36 36 36 38 40 41 40 40 40 41 40 40 41 43 42 41 41 42 45 49 52 58 61 64 66 70 73 75 78 81 86 88 86 87 90 90 89
36 34 35 36 36 36 36 36 36 38 41 45 47 44 45 47 48 47 47 47 46 44 43 43 44 46 49 53 60 64 67 71 71 74 77 78 82 85 87 89 90 92 92
36 36 34 30 31 32 38 43 44 45 50 53 53 52 52 53 55 56 58 58 57 56 54 51 49 48 47 50 55 61 69 74 73 75 76 74 78 81 83 88 90 90 96
38 35 34 32 31 32 42 52 56 57 59 57 55 54 56 56 56 58 59 59 59 60 60 59 56 53 50 49 50 58 67 72 74 79 79 80 77 78 83 84 86 91 96
36 35 35 34 36 45 58 60 60 55 54 53 54 56 55 56 56 55 55 55 55 56 57 58 58 56 54 52 53 56 65 69 76 80 80 82 81 80 82 86 85 88 96
38 36 36 38 48 62 63 60 57 49 48 49 51 51 51 52 52 54 53 52 53 52 53 53 54 55 58 59 58 58 65 71 74 80 84 82 83 86 85 92 91 90 95
39 42 48 65 67 64 58 55 51 50 50 50 50 52 53 53 52 52 51 49 50 52 53 54 56 59 61 61 60 62 71 73 73 76 81 85 83 82 90 96 98 100 100
51 58 62 63 62 57 51 47 44 44 45 44 45 44 42 46 45 44 41 42 46 50 53 55 57 57 58 60 64 69 78 82 79 79 81 81 89 86 87 99 100 100 100
58 63 60 54 49 48 46 46 43 43 42 43 45 44 44 42 40 40 42 41 40 46 51 52 52 53 56 59 66 74 81 81 85 89 84 81 87 94 92 94 100 100 100
55 57 53 51 49 47 46 45 41 37 36 36 39 40 39 39 35 34 38 37 34 38 47 46 44 45 44 53 68 77 85 84 85 89 89 93 94 92 92 89 100 98 100
58 54 51 48 42 39 37 32 27 26 27 28 32 34 34 34 32 29 32 33 30 32 37 38 42 43 45 48 58 70 82 87 94 90 87 91 96 98 98 100 100 100 100
51 45 44 36 28 24 24 24 24 25 26 27 28 29 29 29 29 29 30 33 31 29 29 35 39 42 46 52 55 57 68 84 94 97 95 95 97 98 100 100 100 100 100
38 34 33 25 23 22 24 24 26 27 28 28 29 28 28 29 31 30 30 33 29 30 35 40 50 54 53 58 56 64 70 78 93 97 98 99 100 100 100 100 100 100 100
32 34 28 26 25 24 25 26 28 29 31 33 32 32 33 35 34 33 31 32 31 34 44 50 58 57 62 65 71 76 79 82 95 100 99 99 100 100 100 100 100 99 99
30 29 28 28 28 29 30 31 32 34 36 36 38 39 40 38 39 36 34 36 40 44 48 51 53 60 64 70 76 74 80 83 99 98 97 98 100 100 100 100 100 99 96

GFSMW_925_rhum_006.txt.gz
RH
18 16 18 20 18 16 18 22 24 29 35 39 48 58 63 64 64 64 64 66 65 64 64 66 70 72 71 64 64 68 67 66 65 66 65 63 60 58 55 54 53 53 54
23 23 23 27 29 29 27 23 23 26 31 39 47 53 61 64 64 64 65 66 67 67 66 66 72 74 76 75 69 68 72 73 72 73 75 83 72 66 64 62 63 62 61
29 31 32 32 37 40 36 34 30 28 29 33 43 50 54 57 58 58 62 66 68 69 70 71 72 76 78 79 79 74 71 75 74 72 73 87 86 80 56 60 64 64 62
30 34 37 37 39 39 37 36 32 31 32 34 39 46 50 58 59 60 58 59 61 65 70 72 74 75 78 81 81 80 77 76 76 77 71 69 66 77 81 56 52 55 55
32 36 40 37 40 37 33 31 33 34 34 31 32 37 45 51 53 54 54 53 51 55 65 70 74 76 80 82 84 84 79 79 79 78 73 79 77 76 78 81 68 58 56
32 35 35 38 40 37 35 34 34 33 33 38 44 46 44 42 43 46 49 50 50 50 52 61 72 77 81 84 86 86 86 85 83 79 79 79 80 81 81 84 80 74 65
34 37 42 44 40 40 39 38 38 38 37 36 35 35 36 43 53 57 58 58 57 55 54 55 59 72 78 82 87 89 88 90 89 84 82 78 78 77 76 81 80 81 72
35 40 43 42 40 41 41 39 39 40 40 39 38 38 36 36 37 38 39 41 48 52 55 58 63 64 71 76 81 88 90 90 90 92 88 86 84 80 77 77 77 83 76
33 38 40 39 41 41 40 39 39 40 40 39 39 40 40 41 39 39 39 39 39 40 42 43 47 54 60 69 74 77 82 86 89 90 92 92 86 83 83 84 82 80 85
36 38 41 41 40 39 38 37 38 39 41 41 41 40 41 41 41 41 41 42 43 42 42 41 42 44 46 50 56 66 74 77 81 84 87 88 88 88 90 88 86 84 84
39 40 40 38 38 37 37 37 37 37 40 42 45 46 45 47 49 49 50 50 50 50 50 47 45 44 44 46 48 52 59 67 74 78 82 82 81 83 87 90 86 87 85
41 40 39 37 37 37 37 38 41 42 47 50 52 52 51 52 53 55 57 58 59 59 59 58 56 55 52 49 49 51 56 62 67 70 73 73 74 78 84 88 88 88 85
41 41 40 40 36 34 43 46 50 53 56 58 57 56 56 58 58 58 58 58 59 58 59 61 62 61 60 57 54 52 53 57 63 68 72 73 75 77 75 83 88 85 88
43 41 41 40 35 33 46 54 58 60 59 57 56 56 57 57 56 56 56 56 56 56 56 56 57 59 60 60 58 55 59 63 64 67 70 74 77 79 78 77 82 92 91
41 41 43 42 37 48 58 61 60 57 50 48 50 51 54 51 52 52 53 55 56 55 55 55 55 55 56 56 58 61 65 70 70 70 71 72 75 77 79 85 83 84 95
40 40 40 43 56 68 66 62 59 55 51 49 50 50 52 54 55 54 54 55 53 51 50 53 56 56 57 58 59 61 76 74 75 76 76 77 80 82 83 82 83 87 88
44 45 56 71 66 64 63 58 54 48 48 49 48 48 46 45 46 48 48 47 45 43 48 50 53 56 56 58 58 63 70 78 79 80 83 82 82 83 84 85 83 91 89
55 64 66 65 64 61 56 49 46 44 43 44 44 46 46 46 45 45 43 42 43 44 42 45 50 54 56 56 52 57 70 74 80 83 84 86 87 89 86 86 88 92 95
64 65 62 58 54 51 48 47 47 45 42 41 39 41 41 42 41 41 39 36 38 40 38 37 41 51 51 45 45 47 62 73 78 78 80 79 84 84 88 99 97 88 97
60 59 55 52 51 47 46 45 42 35 32 29 31 31 34 36 36 35 35 32 33 34 35 33 36 40 41 39 40 48 63 66 74 71 73 87 87 88 90 98 99 97 95
58 56 53 50 45 40 36 32 26 25 25 26 27 28 30 30 30 31 31 32 31 34 34 33 33 34 38 38 44 49 61 66 68 64 68 76 90 95 95 97 99 99 99
58 48 47 42 33 25 23 24 25 25 27 28 29 29 30 30 29 29 32 32 31 31 35 33 33 39 39 46 51 53 62 66 73 71 70 78 89 95 99 100 99 100 100
45 37 35 31 25 23 24 25 25 26 28 30 31 33 33 32 32 34 34 34 32 32 34 34 40 40 40 53 53 61 66 75 76 75 78 85 95 97 100 99 100 100 100
37 33 35 30 28 26 26 27 28 30 32 34 35 36 36 38 38 40 38 37 37 37 38 42 45 51 53 55 58 66 73 77 74 81 85 95 95 99 100 100 100 100 100
32 31 30 30 29 29 31 31 32 34 36 38 39 40 42 43 43 43 44 42 41 44 52 55 56 57 57 57 63 72 75 74 77 84 87 96 96 97 98 100 100 100 100
33 31 31 31 31 33 34 34 36 37 38 41 43 45 47 47 49 48 47 47 50 54 58 58 60 58 57 58 70 72 74 79 79 79 91 96 97 97 97 100 99 100 99

GFSMW_925_rhum_009.txt.gz
RH
28 30 32 32 29 27 24 24 26 37 36 42 50 55 56 58 60 61 62 62 63 64 62 61 63 66 67 67 67 62 65 68 67 68 72 67 65 65 64 62 59 55 54
36 37 36 36 38 38 34 31 29 29 36 41 42 46 53 59 60 61 62 64 66 67 67 66 65 66 70 73 73 71 72 74 74 74 80 81 71 70 70 71 67 63 60
38 42 44 43 37 35 36 35 33 31 35 40 46 50 55 59 61 63 64 64 65 66 68 68 69 70 72 77 80 80 77 76 77 78 74 93 91 88 64 69 70 70 69
40 44 47 46 40 36 32 33 36 38 38 36 39 51 56 58 55 56 57 58 60 60 61 65 69 71 74 77 80 83 85 82 79 81 84 76 71 78 81 66 60 60 60
42 47 49 45 42 37 36 34 33 34 35 41 43 45 49 52 52 52 54 54 54 54 55 60 68 70 74 77 81 85 87 90 86 82 79 85 82 78 78 83 68 68 66
43 48 45 43 43 40 40 40 38 38 37 35 36 36 36 37 39 40 41 42 46 51 56 59 66 72 69 75 79 84 88 85 89 91 85 85 85 81 86 86 76 71 68
45 49 52 49 46 44 41 41 40 40 39 40 40 41 41 40 40 40 41 41 41 41 41 42 44 49 73 81 84 88 91 92 93 92 93 90 88 85 78 77 76 74 66
47 47 47 47 47 44 41 40 41 42 42 41 42 42 42 43 44 45 46 47 48 47 47 45 44 43 43 52 73 84 88 90 85 87 96 95 92 91 89 85 83 84 74
46 48 46 45 44 42 40 40 40 41 43 45 45 46 47 49 49 48 48 50 49 50 47 47 48 47 47 47 46 48 61 73 79 80 84 86 88 92 93 90 88 87 94
46 49 50 44 41 40 39 40 42 46 48 49 50 52 52 53 53 55 56 58 52 51 52 52 54 56 56 55 55 53 50 51 56 70 78 78 84 89 88 86 85 91 92
48 48 48 42 41 40 44 47 49 54 56 57 58 56 58 58 57 56 54 50 51 52 54 55 58 60 64 65 64 62 60 58 57 54 60 70 73 80 82 84 86 96 93
49 49 45 42 42 46 50 57 59 60 60 56 56 54 56 57 53 52 52 54 58 57 58 57 58 59 60 62 64 66 64 64 66 68 71 73 73 76 78 83 85 85 90
48 48 49 45 43 56 62 62 61 55 52 49 50 49 55 53 53 54 55 55 58 60 60 60 59 58 59 60 62 61 70 65 69 71 71 72 74 76 76 80 84 84 84
48 49 48 47 59 67 64 63 61 57 53 51 51 49 55 52 50 46 48 51 51 54 55 51 50 57 59 58 59 63 63 70 76 77 77 77 78 78 79 82 84 86 87
50 48 51 72 76 70 65 60 56 52 49 49 47 52 47 45 45 46 46 48 46 49 46 44 50 46 52 56 56 63 77 79 75 80 74 76 81 83 82 87 91 93 91
49 55 76 80 74 69 62 54 49 46 44 44 46 46 45 44 46 46 46 47 45 43 42 45 44 43 55 46 53 66 65 59 60 64 75 83 85 86 88 87 88 95 99
70 75 77 74 68 62 50 48 47 46 45 43 42 38 38 42 43 43 43 42 42 37 36 46 37 43 39 43 52 47 43 49 51 72 71 76 71 64 75 83 88 92 94
72 75 71 62 57 50 48 48 47 45 38 39 30 28 30 35 36 38 38 38 37 36 38 34 36 36 35 42 48 39 45 52 51 67 68 75 59 65 82 91 90 90 91
73 64 55 54 52 48 46 45 42 35 26 26 26 27 28 31 33 34 34 33 32 36 32 33 33 34 36 42 43 41 50 54 56 66 70 60 59 66 71 84 90 90 92
59 57 53 52 48 44 40 36 29 24 25 26 28 28 29 30 32 31 30 31 34 34 33 33 34 36 37 42 41 38 59 59 64 71 72 69 62 64 72 84 87 92 93
60 56 53 50 42 32 26 24 25 25 26 27 28 30 31 33 33 32 33 35 36 36 37 35 34 36 37 39 40 50 57 62 70 73 76 73 69 77 86 89 95 96 97
53 46 46 39 29 24 24 25 26 26 28 30 32 34 35 36 37 37 39 40 42 40 39 39 40 41 45 48 52 56 59 64 72 74 77 75 78 85 86 94 96 100 100
46 36 35 34 28 27 26 28 29 30 32 34 36 38 39 40 42 44 45 45 44 45 44 45 49 55 57 58 59 60 60 70 69 73 75 80 81 81 95 94 95 99 100
37 34 34 31 31 30 30 30 32 34 36 38 40 41 43 46 48 49 49 49 50 50 51 57 62 65 64 64 62 65 83 71 74 75 78 78 72 88 96 98 98 100 100
34 33 32 32 32 31 32 33 35 38 40 42 44 46 48 50 51 51 52 53 54 58 64 67 67 67 67 64 64 77 70 71 71 71 80 77 77 85 91 97 98 99 100
35 33 32 33 32 34 35 36 37 40 41 45 47 49 51 53 54 55 55 59 63 66 66 66 66 65 63 65 66 67 68 69 68 73 74 76 84 90 95 97 97 98 100

GFSMW_925_rhum_012.txt.gz
RH
35 39 39 38 35 33 31 30 30 36 42 51 54 56 55 58 59 58 60 61 62 62 62 62 62 62 62 64 66 68 70 71 73 79 76 76 71 71 73 73 70 67 65
43 46 43 40 40 40 38 35 34 37 41 48 53 57 57 60 57 58 61 62 64 64 68 69 69 69 69 70 73 75 77 79 78 79 79 85 70 70 71 71 73 72 73
46 50 52 48 41 39 38 38 41 40 39 47 54 56 61 65 64 64 66 66 68 68 69 71 73 73 74 76 77 80 83 82 79 81 82 95 92 88 65 65 68 72 70
47 52 55 51 46 41 37 36 36 37 39 42 44 49 56 58 60 61 58 56 57 58 61 65 72 80 81 81 80 81 84 88 88 84 88 84 80 89 83 64 68 62 62
51 55 55 50 47 43 41 39 38 38 38 37 37 38 40 42 41 41 41 42 41 42 44 44 45 50 77 88 87 89 90 91 93 89 87 90 92 89 92 93 76 67 67
54 53 50 47 46 43 42 40 40 41 41 42 43 44 45 45 45 47 48 48 46 46 47 46 47 48 53 65 84 87 95 97 96 97 97 93 92 86 91 95 88 84 73
55 55 55 54 48 45 43 42 43 46 45 45 46 48 49 50 52 53 53 52 49 48 45 41 40 41 45 50 52 57 73 92 96 95 97 96 95 91 89 86 87 88 77
54 54 54 52 48 45 42 44 46 48 48 47 50 51 53 54 56 57 57 53 50 51 46 44 42 41 39 41 50 56 59 65 73 76 84 85 84 88 98 97 94 93 84
53 54 53 49 45 44 47 46 48 52 55 56 57 58 58 56 55 50 47 46 45 49 47 49 53 53 52 52 57 64 63 65 64 63 67 77 79 81 84 84 93 97 96
51 55 54 48 45 48 48 53 56 59 58 57 54 55 58 55 52 50 50 49 49 51 53 54 57 58 57 58 62 66 68 67 68 70 70 73 77 81 84 85 87 89 91
53 56 55 48 50 52 58 61 59 54 53 52 50 49 56 54 53 52 51 53 54 56 59 61 60 59 57 59 62 63 65 70 70 65 71 75 76 78 81 82 84 84 85
53 54 53 52 57 64 64 59 57 55 52 51 50 51 53 51 49 45 44 45 49 49 53 56 53 49 54 61 59 60 67 62 67 71 77 80 80 83 83 84 84 86 86
55 57 53 60 70 69 68 62 56 54 53 52 49 52 48 46 44 42 40 39 45 46 49 48 46 48 56 46 54 64 57 66 75 78 81 80 78 73 75 87 89 87 87
56 55 60 77 74 70 65 59 54 50 48 45 48 47 45 40 34 30 29 32 38 43 44 38 38 52 43 42 53 50 64 77 68 68 54 55 68 73 85 90 91 89 92
57 57 84 90 79 71 61 54 50 48 45 44 47 41 34 26 26 27 30 34 37 38 40 37 36 49 33 41 43 46 59 75 53 52 48 55 68 63 74 77 59 75 90
59 84 83 82 78 65 55 50 49 47 43 45 36 29 25 25 26 26 29 32 32 36 35 36 39 36 33 43 37 47 68 50 50 52 49 54 66 69 76 53 61 76 90
82 79 80 74 66 54 51 50 48 42 35 29 26 24 25 26 26 29 32 33 35 34 34 37 33 34 39 36 43 61 56 44 39 51 54 54 64 79 67 63 66 74 76
79 76 68 61 55 51 49 47 41 28 24 26 26 25 27 29 29 32 33 33 33 34 36 36 35 35 34 40 46 50 44 42 46 60 60 66 76 76 74 70 71 76 79
74 64 57 55 52 47 43 36 25 22 24 26 26 27 29 31 33 35 35 35 35 37 38 37 38 38 38 43 42 44 48 54 59 61 64 74 74 73 71 72 74 76 82
59 57 55 51 44 34 26 23 24 24 26 27 29 29 31 33 35 36 37 39 40 41 41 43 42 41 41 43 47 53 57 60 63 66 82 72 66 68 69 73 76 84 84
57 56 54 42 29 25 24 24 25 27 28 30 32 34 35 36 38 39 42 44 45 46 48 46 46 45 48 53 59 61 64 65 66 70 73 69 68 70 74 78 80 92 93
51 45 40 34 27 26 26 28 28 30 32 34 36 37 37 40 42 45 46 48 50 51 51 52 52 56 61 65 66 66 64 64 77 80 71 74 72 74 75 72 83 86 91
47 37 35 32 28 28 29 31 31 33 36 38 39 40 40 43 48 49 52 54 53 55 56 58 65 68 70 69 70 66 67 80 76 72 72 67 69 70 76 80 82 88 98
37 35 32 31 32 31 30 32 34 36 38 40 42 43 47 50 51 53 54 54 58 59 64 70 72 73 72 78 72 78 87 83 92 79 69 72 70 71 71 79 85 89 100
37 33 33 34 34 33 33 33 35 37 41 43 45 48 51 53 55 54 55 58 61 66 70 70 71 74 82 73 71 76 76 92 76 64 74 69 72 77 81 83 84 84 98
34 33 34 35 34 36 35 34 35 40 44 48 51 52 55 57 56 57 59 64 68 69 68 68 68 67 65 73 64 72 85 80 62 69 74 79 80 84 84 90 89 88 95

GFSMW_925_rhum_015.txt.gz
RH
44 46 45 43 40 40 38 39 38 39 43 54 59 62 60 59 59 61 62 62 63 64 65 67 68 68 67 66 70 74 77 78 77 86 80 80 79 77 79 76 76 76 74
51 53 49 43 42 41 42 43 44 46 50 53 60 62 63 65 66 70 72 74 74 76 78 80 83 84 83 81 81 82 84 84 82 81 82 92 74 70 68 70 74 69 69
54 58 57 52 45 44 42 40 40 43 46 60 63 67 68 63 56 52 50 50 52 51 54 53 57 68 85 91 89 88 89 90 87 85 86 98 91 85 66 65 67 68 68
55 57 58 57 50 46 43 42 42 40 40 40 42 44 49 53 52 48 46 45 46 47 46 46 47 48 53 68 91 95 95 95 96 93 90 88 85 92 87 68 70 70 72
57 59 61 55 50 44 44 43 43 44 44 43 43 44 48 50 51 49 47 44 41 40 38 37 37 39 41 46 52 60 92 97 99 98 96 94 96 94 96 92 83 77 77
59 59 56 50 49 47 46 44 44 47 46 48 51 51 53 54 53 53 49 44 41 40 38 37 38 41 44 45 48 50 53 60 82 93 92 93 93 93 96 96 90 86 79
61 60 60 57 50 49 48 48 47 52 52 51 53 54 55 55 54 51 47 45 44 45 44 42 43 48 49 47 49 53 53 57 67 69 82 88 88 88 88 86 86 85 80
61 60 62 56 52 51 51 52 54 55 54 55 57 56 53 50 48 48 49 48 47 49 48 47 52 52 51 50 55 62 64 66 64 69 73 79 85 89 90 92 92 88 80
61 60 60 53 53 52 55 57 55 57 55 54 54 56 54 54 54 51 47 46 45 47 45 49 52 49 46 47 56 64 63 64 70 77 72 72 78 84 86 88 90 92 89
58 61 60 56 55 57 61 58 56 56 54 51 50 55 55 52 49 46 43 42 42 44 42 50 48 49 46 52 58 59 60 65 71 64 70 75 81 84 85 86 87 87 89
58 62 62 57 57 62 64 56 54 53 53 52 53 54 50 47 42 37 31 28 29 33 37 43 43 37 46 58 43 43 59 67 58 67 75 78 85 84 76 70 74 81 86
57 61 63 62 69 70 62 59 57 55 55 51 52 48 45 39 28 22 21 21 27 25 32 38 32 34 39 54 34 39 59 47 63 73 78 87 63 58 60 70 71 84 87
60 64 67 76 77 73 64 58 53 52 48 47 49 43 34 23 21 20 20 19 24 24 28 33 35 37 41 46 31 48 45 50 56 78 72 55 54 56 68 71 74 89 83
60 60 80 87 80 72 62 54 50 48 46 48 41 31 21 20 19 17 19 20 22 26 29 32 34 36 40 32 34 49 50 55 65 52 52 52 51 52 62 73 76 72 66
63 68 91 91 80 66 58 53 50 46 44 36 28 23 20 20 19 20 22 23 25 26 26 27 26 34 33 31 42 45 52 68 54 43 37 39 52 54 49 59 81 77 72
66 90 87 83 75 64 56 51 48 39 36 25 24 22 21 22 23 23 23 24 26 28 29 31 35 37 37 38 44 50 56 54 47 46 52 62 59 56 68 74 73 72 76
89 86 83 75 67 55 52 50 40 25 23 23 23 24 26 26 26 26 26 30 33 35 36 38 40 40 40 42 47 52 51 50 53 56 59 61 63 70 81 73 69 74 74
85 79 71 65 55 52 48 40 25 21 23 24 26 27 29 30 30 31 33 35 38 40 41 42 42 44 44 47 51 52 54 59 61 62 63 66 70 75 66 65 68 73 73
76 67 60 58 50 46 37 26 22 22 25 28 29 30 32 33 34 34 37 39 42 44 45 46 47 49 48 52 54 59 64 66 67 68 70 72 70 69 62 65 74 74 70
62 61 56 51 50 31 25 24 25 26 28 30 31 32 34 35 36 38 42 44 46 49 49 52 52 53 54 56 63 65 67 70 72 81 91 76 67 63 66 66 77 98 96
61 57 56 39 28 26 26 27 27 28 30 32 33 33 35 37 40 44 44 46 51 54 56 55 57 59 62 68 67 66 67 71 85 96 73 73 70 71 66 62 84 90 92
55 48 39 32 29 28 26 28 28 30 32 34 34 37 38 40 44 48 49 52 56 58 57 60 62 68 70 70 68 68 65 69 86 72 77 88 70 62 64 64 64 73 85
45 38 36 32 30 29 29 29 31 33 35 37 38 38 40 44 50 50 52 57 57 59 63 65 71 72 72 74 73 71 77 79 70 76 93 67 64 66 70 72 75 81 86
40 38 32 31 31 30 30 32 34 36 38 40 40 40 45 52 50 55 58 57 61 64 68 72 73 77 78 77 72 89 92 77 80 99 74 67 66 73 75 81 81 85 86
40 34 33 34 33 32 32 33 34 37 39 42 43 46 50 56 60 60 58 59 63 69 72 72 73 78 78 75 72 78 70 77 99 68 75 72 76 80 78 79 80 84 85
35 34 35 34 33 34 34 33 34 38 42 47 50 53 60 62 62 62 62 66 70 70 69 70 70 69 68 67 72 68 70 80 64 70 77 80 80 84 84 82 85 89 89

GFSMW_925_rhum_018.txt.gz
RH
51 52 48 44 43 42 43 45 45 47 46 60 67 69 67 65 70 78 80 81 82 84 85 87 86 86 88 88 89 88 87 87 88 90 86 84 80 78 76 72 75 75 69
56 58 51 45 46 45 44 45 47 57 60 64 70 72 76 71 59 54 54 55 52 52 51 50 52 56 64 71 83 97 98 92 90 90 90 94 76 73 69 68 69 69 69
59 60 60 54 49 48 45 42 42 44 53 63 68 68 50 49 48 50 49 49 45 41 40 39 38 39 41 49 54 76 94 99 96 95 96 95 89 82 76 72 70 71 72
58 60 61 58 53 51 47 44 43 42 42 41 43 47 55 59 58 50 43 39 37 36 35 36 38 41 44 45 48 50 59 74 93 93 91 97 97 88 88 73 78 74 73
64 64 64 58 54 50 50 49 49 49 49 48 48 50 54 53 48 43 39 37 36 38 37 37 38 40 43 45 46 46 51 62 78 87 93 92 87 85 91 91 78 76 78
65 65 60 56 56 52 50 49 48 52 50 49 51 50 50 48 45 46 45 44 42 41 40 39 42 43 44 44 47 51 55 59 62 68 82 89 90 90 93 91 85 86 78
68 68 66 62 57 55 54 51 50 58 55 52 52 51 50 51 53 52 49 46 45 46 43 42 43 42 42 40 47 52 50 54 65 71 83 90 92 86 87 86 85 86 77
68 67 66 62 59 59 57 54 54 56 54 54 55 54 53 51 49 47 44 41 41 40 32 29 26 28 23 35 52 48 47 60 63 76 67 72 77 80 90 91 90 88 77
68 67 66 62 61 60 61 58 56 54 54 58 55 54 51 48 45 39 31 24 21 21 18 19 23 17 17 23 56 46 32 48 70 56 62 74 81 84 91 89 85 87 89
66 66 68 64 62 65 64 60 56 55 55 55 54 50 46 42 33 24 17 16 18 18 21 23 21 19 20 21 52 34 28 57 51 44 65 74 83 88 78 61 67 74 80
65 67 70 64 68 68 61 60 57 54 53 54 50 46 40 30 19 15 16 16 17 19 19 24 22 23 24 26 42 27 39 52 45 54 60 83 76 58 60 56 72 72 66
63 68 71 73 78 70 63 58 56 52 51 54 46 38 25 18 14 14 16 18 20 19 20 22 23 24 27 32 30 33 46 50 54 58 67 58 54 55 54 58 57 62 71
65 74 79 86 80 69 60 54 52 49 50 46 36 24 18 16 16 16 18 18 18 18 20 21 25 28 33 32 31 37 46 49 55 68 56 48 42 40 50 59 61 61 67
67 73 90 92 82 66 57 52 49 47 45 34 24 18 18 19 19 18 18 19 20 23 24 25 26 27 31 32 35 48 51 55 60 56 51 49 50 58 65 60 62 69 77
69 86 94 93 74 63 55 51 46 43 33 24 20 21 20 20 21 20 20 22 24 26 27 27 28 34 38 36 48 52 55 57 56 54 57 57 61 62 61 64 71 74 72
71 94 91 86 75 60 54 50 39 32 23 22 23 22 21 22 24 25 25 25 27 28 29 31 35 38 41 45 51 55 58 58 59 62 64 63 64 65 67 69 66 64 65
87 92 87 80 61 54 51 46 30 22 21 21 21 23 25 28 30 27 27 29 32 33 33 34 38 43 46 50 56 59 61 65 66 68 68 69 70 74 79 73 68 69 67
91 87 78 64 56 52 47 33 24 22 21 21 23 26 31 32 30 29 33 35 36 37 38 43 47 50 52 56 61 64 68 69 69 70 73 75 84 84 67 67 81 93 94
83 72 63 58 52 45 34 25 22 21 21 26 28 31 33 35 34 34 36 36 40 42 46 52 53 56 58 61 67 68 69 69 72 75 76 89 76 66 70 96 91 80 82
67 65 58 51 42 29 25 23 24 24 28 30 31 33 34 35 34 36 40 42 44 51 53 56 58 60 62 68 69 67 67 70 73 77 97 71 62 69 77 62 67 85 72
64 58 52 36 29 26 25 26 26 30 31 33 32 32 31 34 36 41 44 47 50 56 59 59 60 65 69 73 68 66 66 68 88 95 71 68 73 96 60 60 69 72 68
60 47 36 31 29 28 28 29 30 32 33 32 32 32 32 34 39 46 49 51 57 61 60 62 66 70 73 72 71 66 65 71 80 72 70 82 94 64 62 68 70 69 75
45 40 36 33 31 31 30 31 32 33 32 33 32 32 35 39 47 52 55 60 62 61 64 67 72 73 73 76 75 71 80 73 68 74 88 87 69 65 71 73 70 72 81
43 40 34 32 32 32 31 32 32 33 34 35 36 37 42 50 52 57 58 62 63 67 68 75 75 76 77 79 76 91 88 77 86 99 92 72 65 70 72 76 77 81 84
41 34 32 32 32 31 30 30 32 35 38 39 40 44 49 55 60 62 61 62 65 71 72 72 74 80 80 76 71 77 70 78 92 62 66 70 75 78 79 79 80 81 85
37 34 33 31 30 31 31 30 33 38 42 46 48 51 61 62 63 66 69 71 70 70 68 70 72 71 70 72 79 71 74 84 59 63 75 79 78 76 82 83 84 85 85

GFSMW_925_rhum_021.txt.gz
RH
51 55 53 48 46 46 47 56 55 56 58 64 66 73 91 89 72 68 64 59 57 54 50 50 51 50 73 78 82 88 89 84 86 96 90 82 81 81 80 78 80 81 79
49 54 56 51 49 48 47 50 62 69 74 74 82 70 67 60 53 50 46 43 40 39 38 37 38 39 41 45 54 67 73 74 78 87 91 86 68 61 74 75 78 78 79
51 55 56 59 51 50 48 46 47 57 74 59 58 50 48 48 47 44 42 40 36 35 34 35 37 37 40 55 56 64 69 66 64 68 76 78 74 76 69 70 74 75 79
55 56 58 59 59 56 50 46 43 43 44 43 43 46 58 61 59 47 42 39 38 37 36 37 38 39 47 57 61 60 69 72 68 67 58 73 73 74 74 50 62 64 68
56 58 61 62 60 55 53 51 48 47 46 45 45 46 49 49 45 42 40 40 40 38 35 35 34 37 54 55 55 59 63 67 69 71 73 76 76 72 80 82 62 66 60
60 61 63 61 60 57 54 51 50 53 48 45 45 44 45 48 49 46 48 48 49 47 29 24 26 35 42 47 49 61 59 59 68 74 80 82 78 73 77 79 72 72 66
62 62 62 65 65 61 59 56 55 58 53 50 50 50 49 48 48 48 48 41 40 39 20 14 23 32 27 35 40 60 51 44 58 76 86 63 65 64 71 78 74 74 71
62 62 62 66 67 64 62 61 60 61 54 52 52 50 47 43 38 30 23 26 31 39 20 15 20 17 15 27 33 51 40 35 62 81 53 49 54 63 73 83 90 80 64
64 63 65 66 68 68 65 60 59 61 58 54 50 46 40 34 25 18 14 15 19 28 15 14 14 14 15 26 32 44 32 40 59 47 47 56 67 78 75 75 64 70 77
63 64 65 68 72 71 67 60 57 60 57 51 46 39 31 23 15 11 11 12 13 14 14 17 21 21 30 34 37 36 34 38 43 41 50 62 66 59 59 58 54 55 66
61 64 66 71 79 68 62 61 57 57 53 47 39 33 23 15 11 10 12 13 15 16 18 23 30 32 32 32 33 32 32 40 44 49 53 66 55 50 47 43 50 60 56
61 66 70 81 76 69 62 58 53 55 49 41 32 22 16 13 11 13 15 16 17 20 24 28 31 32 32 35 34 35 39 45 49 51 59 58 50 48 46 48 55 62 61
66 70 78 82 73 65 58 54 51 51 41 32 22 17 15 15 17 17 17 19 21 22 21 22 30 34 36 36 36 40 47 51 52 53 56 53 52 53 54 62 64 66 67
67 74 84 80 72 62 55 50 49 42 33 24 18 15 16 19 20 20 20 20 21 23 24 29 36 37 39 41 39 50 53 55 56 56 57 56 58 59 64 64 66 68 72
72 81 87 79 68 60 54 47 45 35 26 20 17 19 20 22 22 20 21 22 25 26 30 35 37 40 42 35 53 56 58 60 59 61 60 61 65 67 66 66 70 73 72
74 86 84 76 67 59 53 45 38 30 22 19 20 22 24 23 23 25 25 25 29 32 31 38 42 43 42 50 58 62 64 64 65 65 65 65 66 68 67 75 66 62 67
81 87 82 74 64 56 52 41 29 24 21 21 24 25 26 27 26 26 27 32 35 34 40 42 43 45 47 54 62 66 68 67 65 65 67 70 70 76 89 73 65 80 91
87 85 78 65 58 53 43 30 24 22 22 23 25 28 30 29 28 29 33 34 40 46 45 45 47 48 51 61 66 70 67 66 63 65 67 71 83 78 64 68 97 83 61
84 78 65 59 53 44 33 26 23 21 21 25 30 30 31 32 31 32 34 40 48 48 46 49 50 53 57 64 73 70 67 66 66 67 69 86 70 62 67 98 88 64 66
73 70 58 50 40 30 26 24 24 23 27 30 31 31 32 32 32 36 41 43 46 50 52 53 57 58 62 70 72 67 67 68 71 77 82 67 60 62 94 67 64 71 72
64 56 51 37 31 28 26 25 25 27 29 31 32 31 30 32 35 38 40 44 51 56 58 58 57 64 68 71 68 66 66 73 89 92 70 65 68 98 64 60 66 72 67
64 47 36 33 30 29 27 27 26 28 30 33 32 30 31 33 35 41 44 48 58 62 59 58 63 68 70 70 70 66 66 71 81 74 68 83 88 58 60 64 68 67 70
52 42 37 34 31 31 28 27 29 32 34 34 32 32 31 32 38 48 54 60 63 64 63 64 70 70 71 75 72 71 79 78 68 72 85 68 56 59 66 66 68 71 78
45 40 36 34 34 30 27 30 34 35 35 35 33 32 34 46 46 52 60 66 67 68 68 71 70 77 78 78 78 94 90 77 82 98 62 59 59 68 66 70 73 77 80
44 39 33 32 31 30 32 34 34 35 36 34 34 37 44 51 59 62 65 67 69 74 71 70 72 81 84 78 78 71 67 77 90 59 63 65 71 75 72 73 76 78 81
40 35 32 32 31 33 32 34 35 36 38 39 45 48 61 63 64 67 69 73 75 71 69 71 71 74 72 74 72 66 71 83 62 65 70 74 77 76 76 80 81 83 84

GFSMW_925_rhum_024.txt.gz
RH
36 39 43 44 45 49 54 60 64 64 60 61 63 69 65 63 60 56 53 52 51 50 50 49 46 45 45 45 44 44 43 40 43 41 42 42 46 55 44 51 63 55 54
33 38 41 42 43 44 50 58 68 72 72 72 63 60 57 56 55 53 50 46 45 46 45 47 46 46 45 45 47 48 48 44 44 45 46 40 39 34 46 43 40 45 43
33 35 38 44 45 46 47 54 64 61 62 57 55 54 52 48 46 47 49 49 46 46 48 50 48 48 48 46 47 46 51 49 47 44 47 53 49 49 42 40 39 39 45
33 35 39 44 49 53 52 52 51 52 52 51 49 47 45 46 48 46 47 48 49 46 45 45 44 42 41 39 38 36 41 39 38 39 40 47 50 55 55 38 44 40 46
36 40 44 49 54 58 57 54 53 52 51 49 45 43 45 47 48 46 46 46 48 44 38 38 37 33 30 32 32 36 38 33 32 38 42 47 49 48 46 55 36 37 36
38 41 50 52 56 60 59 55 51 52 51 50 49 49 47 46 46 45 41 39 36 35 33 29 28 26 26 29 28 35 39 34 36 39 46 54 50 41 43 44 45 48 44
41 45 47 48 52 56 59 54 52 52 52 51 50 51 50 47 42 38 34 31 29 28 28 26 23 23 25 26 26 37 41 33 38 49 51 40 34 35 38 42 52 51 57
40 43 45 49 53 56 56 55 54 53 52 52 49 46 45 40 35 32 29 26 24 23 26 26 25 24 24 24 24 30 36 27 29 44 39 36 39 42 50 55 59 68 47
43 44 47 49 53 54 56 57 56 56 53 50 44 39 35 33 31 26 24 24 24 22 22 23 24 23 23 24 26 27 25 26 28 30 32 36 38 48 49 47 44 47 52
43 44 46 50 54 57 58 56 55 55 52 45 40 35 30 26 23 22 23 23 22 23 22 21 22 23 23 23 24 24 24 26 28 30 34 38 40 48 45 40 37 36 39
44 45 46 53 60 59 56 54 55 52 46 40 35 32 26 22 21 21 21 22 21 22 23 23 22 22 22 23 24 24 24 29 32 35 36 39 41 43 40 39 39 40 43
42 45 48 57 58 56 54 51 52 48 43 36 31 27 24 22 21 22 22 22 22 23 24 24 24 23 24 26 26 26 29 33 36 37 39 41 41 42 41 42 43 47 48
45 48 51 56 54 53 51 49 50 44 38 32 28 24 24 23 23 23 24 24 25 25 25 26 26 26 28 28 29 28 34 38 39 40 43 44 46 45 45 48 50 51 53
48 50 53 54 53 51 48 46 46 41 34 29 26 25 25 26 25 26 27 27 27 27 28 28 29 29 29 30 27 38 42 43 44 46 48 49 49 49 53 55 53 58 72
49 53 56 53 53 49 46 45 44 36 30 26 26 27 29 28 28 29 29 28 30 31 31 32 30 29 30 27 43 51 51 50 50 50 48 48 52 59 60 61 69 80 71
48 54 59 55 52 49 45 46 42 32 27 25 25 29 29 30 31 30 30 30 31 32 33 31 30 30 30 36 52 64 61 56 52 49 48 48 50 50 59 64 60 60 70
50 59 61 57 53 48 47 40 33 28 25 25 26 28 30 30 31 30 31 32 33 34 32 31 30 32 34 40 58 66 66 56 51 49 49 48 48 60 68 58 56 61 74
57 62 62 58 52 51 44 32 28 26 26 26 26 29 31 30 30 29 29 30 32 32 33 32 34 35 35 46 60 71 61 54 51 50 51 51 61 65 55 56 71 96 66
59 65 61 53 52 46 34 29 26 25 24 26 27 30 31 30 30 30 31 33 34 35 34 35 36 37 39 50 66 67 59 54 52 51 52 67 62 53 57 86 85 63 63
67 62 55 51 45 34 29 27 25 23 23 28 31 32 32 32 31 32 34 36 37 36 37 36 36 39 46 52 64 66 62 58 55 58 67 57 55 57 78 73 60 70 63
60 54 50 43 34 30 28 25 24 23 29 33 34 33 32 32 33 34 37 38 37 38 36 35 37 45 50 55 60 65 64 63 76 80 66 59 59 80 61 55 60 62 65
56 49 41 35 32 31 28 25 22 30 34 35 34 33 32 35 36 38 38 37 37 37 36 37 44 48 50 54 60 64 64 71 79 72 65 67 86 55 55 59 60 62 64
49 43 40 36 34 32 26 23 29 34 35 34 32 33 35 36 37 38 39 38 37 38 42 45 49 50 54 54 58 60 66 71 65 65 73 78 55 56 59 59 60 63 66
47 43 39 37 33 32 32 32 34 36 36 34 33 34 36 40 39 41 40 39 39 44 49 53 54 59 58 58 61 74 84 68 72 83 91 56 54 55 58 60 63 66 72
46 43 40 33 29 30 32 34 32 37 37 35 35 36 37 39 39 38 39 47 51 62 68 65 66 67 66 64 68 72 68 74 86 82 62 56 56 62 64 64 66 70 83
46 42 35 29 29 32 33 33 36 42 41 39 36 38 44 41 40 40 42 48 59 64 67 71 72 70 67 69 72 66 76 84 70 64 60 62 68 70 69 70 73 85 90

GFSMW_925_rhum_027.txt.gz
RH
27 31 34 36 41 46 50 52 52 53 53 54 56 61 57 55 52 47 44 44 43 42 43 42 41 42 41 41 43 42 46 43 42 43 43 41 41 36 38 39 36 37 36
27 30 33 34 37 44 52 58 59 59 57 58 55 53 52 51 49 46 42 40 41 43 43 45 44 44 43 42 42 40 42 40 38 40 40 43 38 34 37 30 38 36 38
28 31 33 37 38 43 51 52 54 55 55 54 52 50 47 44 42 42 45 44 42 41 41 42 39 38 37 35 33 31 36 36 34 30 37 44 40 45 38 37 35 33 32
27 30 34 39 43 45 46 47 47 48 47 45 43 41 40 40 41 42 44 45 44 38 34 34 34 31 28 28 30 26 35 32 30 29 29 35 39 50 51 31 31 30 30
28 33 37 42 47 49 48 47 46 43 41 39 39 40 41 43 42 42 41 39 38 35 30 27 28 25 25 27 29 29 34 35 30 34 35 38 44 44 39 40 33 33 32
31 36 42 46 53 53 49 45 43 43 44 43 43 43 42 41 41 39 36 33 31 30 28 25 23 23 26 27 26 27 34 41 37 36 38 44 43 38 39 42 42 43 44
35 41 43 44 48 50 48 44 43 43 44 44 43 44 43 40 38 34 31 28 26 25 25 24 22 22 23 24 24 28 32 37 34 34 35 39 37 34 37 40 48 55 48
35 39 40 43 47 49 45 44 45 44 44 42 41 41 39 37 32 29 27 24 24 22 22 22 21 22 22 22 23 26 29 25 26 28 30 32 34 34 37 42 54 55 46
36 37 40 43 47 48 47 48 47 46 44 40 36 34 32 30 28 24 23 23 22 19 20 21 21 21 21 22 22 24 24 24 25 27 30 31 34 37 38 45 47 49 53
36 37 40 43 46 48 49 49 47 46 42 38 35 32 27 24 22 22 22 21 19 19 20 20 20 20 20 21 22 23 23 24 25 28 31 33 35 36 40 42 43 42 44
37 38 39 44 48 50 49 49 47 44 40 37 34 31 26 22 21 21 20 19 19 19 20 20 20 21 21 22 23 24 24 24 28 30 33 35 37 39 40 42 43 44 45
36 38 39 46 51 49 47 47 46 42 39 35 31 28 26 23 21 21 20 20 20 20 21 22 23 23 24 25 25 25 25 26 31 34 36 38 40 43 44 45 45 47 49
37 38 41 47 47 47 46 46 45 41 37 32 29 26 25 24 22 21 21 21 22 23 24 25 26 26 26 27 27 26 27 35 38 39 41 43 45 46 45 48 52 53 56
38 40 43 45 45 46 45 44 42 39 34 31 28 27 26 24 24 24 24 24 24 26 27 28 29 28 27 27 27 30 40 46 47 47 46 46 45 45 49 53 57 67 69
41 43 45 45 45 46 44 42 40 36 31 28 28 28 27 26 26 27 27 26 27 29 30 31 30 28 28 26 32 43 51 56 55 52 48 44 45 47 49 50 61 66 86
40 42 45 44 45 45 43 43 38 33 29 26 25 26 26 26 28 28 27 28 30 31 31 31 30 29 28 30 38 48 59 61 58 52 47 46 45 44 48 56 56 63 58
39 44 48 47 46 45 43 44 37 30 27 24 24 25 26 26 26 27 27 28 30 30 30 30 29 29 32 34 40 52 65 65 54 50 48 47 46 52 63 64 59 64 66
41 47 50 49 48 46 43 36 31 27 25 25 24 25 25 25 25 26 26 28 30 30 30 30 31 32 32 34 44 57 64 58 55 51 50 50 57 67 60 58 84 89 79
46 52 53 51 48 45 36 31 28 26 24 24 23 24 25 26 26 27 29 31 31 32 32 32 33 31 31 37 47 58 61 61 57 55 54 62 64 58 58 80 97 74 63
56 56 52 50 46 37 33 30 26 23 22 24 26 26 26 27 27 29 31 32 33 33 33 32 30 30 34 41 50 56 62 62 62 65 75 64 56 60 76 74 61 68 62
56 53 50 45 36 33 32 28 24 22 25 27 27 27 27 27 29 32 33 34 32 33 32 30 30 35 39 44 49 55 59 63 68 90 72 66 58 82 66 54 57 59 66
53 48 42 36 34 33 30 26 22 25 28 29 29 28 29 31 32 33 33 33 33 31 30 31 35 41 42 47 51 55 58 60 82 77 70 64 92 60 53 54 55 57 60
48 43 39 36 34 30 25 23 26 28 28 28 27 28 32 32 32 35 34 34 32 31 33 38 44 48 53 56 56 57 60 66 66 66 68 90 56 54 54 56 58 60 65
45 43 40 38 35 31 27 25 28 30 30 28 29 32 33 35 34 34 34 32 32 38 44 53 59 63 65 63 64 67 80 75 74 90 92 58 54 55 57 61 63 66 77
46 44 43 38 32 27 26 28 31 32 32 31 33 33 34 35 36 34 32 34 38 47 59 63 66 70 67 65 64 67 73 78 88 67 65 58 59 64 66 66 67 74 91
47 46 41 33 28 25 26 30 33 35 36 36 36 35 37 36 34 33 34 36 42 46 50 55 59 61 63 63 63 64 71 80 64 62 61 63 69 70 71 72 85 90 90

GFSMW_925_rhum_030.txt.gz
RH
34 32 35 40 45 48 50 54 55 56 58 59 63 59 53 49 44 42 41 41 42 42 42 44 43 42 43 41 38 37 36 37 36 35 39 28 33 28 34 23 28 31 28
38 37 36 40 50 57 58 58 58 59 59 60 57 54 52 48 43 41 42 41 40 40 38 36 37 34 34 32 30 29 34 37 34 38 37 60 39 35 22 32 38 34 31
40 42 43 43 51 54 58 59 58 57 54 53 52 49 47 45 45 46 44 41 36 32 31 29 28 27 27 28 28 28 33 38 32 30 38 64 63 46 38 41 38 26 21
38 42 48 48 49 50 51 52 53 53 51 48 47 46 42 44 44 45 45 43 36 31 24 26 24 24 24 25 27 26 30 39 37 34 33 37 41 56 62 42 32 29 28
38 46 53 49 50 48 47 45 42 41 41 41 40 42 44 43 43 41 37 35 34 30 24 24 22 23 23 23 25 26 28 38 42 40 39 41 45 48 50 49 39 38 37
42 50 51 53 54 48 44 43 44 44 43 44 44 44 43 42 38 35 32 29 28 25 23 23 22 22 22 23 23 26 24 33 34 35 32 37 51 49 48 49 45 45 41
47 55 61 62 54 49 45 45 45 45 44 44 44 42 39 36 32 29 26 25 24 23 21 22 21 22 22 22 22 23 24 26 27 27 26 30 32 37 40 42 46 48 43
50 54 59 57 54 49 44 44 45 44 42 41 40 38 35 30 27 25 25 23 22 20 19 20 20 21 21 21 21 22 23 24 24 25 26 28 30 34 38 43 50 53 51
50 52 56 55 52 47 46 46 45 43 39 35 33 30 27 26 24 23 23 22 20 20 20 20 20 20 20 21 21 22 24 25 25 25 27 30 34 36 38 40 45 51 63
48 50 54 53 49 49 48 47 45 41 38 35 31 26 24 23 22 22 20 20 19 19 20 20 20 21 22 22 23 25 25 25 25 26 30 33 37 39 41 43 46 48 52
46 50 52 50 50 51 49 47 44 40 37 34 31 27 24 22 21 21 20 19 20 20 20 22 23 24 24 25 26 27 27 27 27 32 37 40 41 43 45 47 50 51 51
45 49 52 53 52 51 49 47 43 38 35 32 29 27 24 23 22 21 21 21 21 22 23 24 26 27 28 28 28 28 28 29 38 43 47 47 48 48 49 50 49 52 54
49 50 54 58 54 50 49 46 42 38 34 30 27 26 26 24 22 22 23 24 24 24 26 27 29 30 30 29 28 28 31 39 47 53 56 56 54 52 50 49 52 53 58
47 49 56 60 52 48 47 45 41 36 32 28 28 28 26 26 25 25 26 26 26 27 29 30 31 31 31 30 29 30 38 46 56 61 62 60 56 51 51 52 52 56 66
49 52 58 59 52 48 45 43 39 34 30 29 28 28 27 26 26 27 27 26 28 29 31 31 31 31 30 30 32 39 44 50 62 66 66 59 53 51 50 50 57 60 61
49 53 55 58 54 47 44 41 35 31 29 27 26 26 25 26 26 27 27 27 28 29 30 31 31 31 30 34 39 41 46 56 65 68 61 57 54 51 54 57 56 60 75
50 53 58 56 50 45 44 39 34 29 26 24 24 25 25 26 25 26 26 27 28 30 31 32 32 32 33 36 37 41 50 58 63 63 61 59 56 57 63 68 68 92 84
51 58 62 53 48 44 44 36 30 27 26 25 24 25 25 25 26 26 27 29 31 32 33 34 33 34 33 34 37 45 52 57 61 63 63 63 64 70 68 73 92 93 96
60 62 54 49 46 41 33 30 28 26 25 24 23 24 25 26 26 27 29 31 33 34 34 34 34 33 31 34 42 47 53 58 61 65 67 73 75 72 61 73 98 81 78
61 58 52 48 40 34 31 28 26 24 24 24 25 26 26 27 27 29 31 33 35 34 34 34 32 31 33 37 45 50 55 59 63 68 87 79 66 59 77 83 67 78 62
56 53 50 43 35 32 30 26 24 23 24 25 27 27 28 29 30 32 33 34 34 34 34 32 32 36 40 47 52 56 59 62 73 95 82 77 64 87 75 58 61 60 68
55 49 39 35 32 32 26 25 24 25 26 27 28 28 28 31 33 33 35 35 35 34 33 35 42 47 55 62 64 61 61 69 84 81 70 72 88 62 58 59 58 61 65
48 39 38 35 32 29 26 24 26 26 27 28 27 28 32 33 35 36 35 35 34 33 37 44 52 61 67 69 68 66 68 73 71 71 78 86 61 58 60 62 62 65 73
47 40 38 35 31 27 24 26 26 27 28 28 29 33 34 37 36 37 36 34 33 37 43 52 59 64 64 66 66 67 72 70 78 92 95 67 59 61 65 68 70 77 91
46 42 41 37 33 28 26 26 28 26 29 31 35 36 36 37 38 38 35 36 38 42 49 53 56 59 61 61 59 61 62 73 87 76 71 64 67 72 73 73 75 83 93
47 46 41 34 28 26 27 29 27 26 33 38 39 39 41 43 42 38 40 42 45 49 50 51 53 55 57 59 60 61 67 78 67 69 67 71 76 81 78 82 89 90 92

GFSMW_925_rhum_033.txt.gz
RH
43 37 38 42 46 47 50 51 51 60 64 64 62 58 49 48 47 45 42 37 36 37 36 34 30 30 31 28 23 24 24 27 31 33 25 20 27 29 19 11 34 21 36
47 48 46 51 58 60 58 60 61 64 65 63 58 53 45 43 41 38 38 37 34 30 27 26 24 23 22 20 22 25 31 36 36 36 44 59 42 29 18 38 28 41 25
48 54 61 62 64 63 61 61 61 63 62 60 54 47 43 42 41 40 38 33 28 26 25 23 22 21 18 19 22 23 28 43 39 33 43 61 67 44 38 34 40 30 25
50 55 65 65 60 60 58 57 55 56 55 54 48 44 46 49 46 45 40 34 31 26 23 22 21 21 19 19 23 24 25 26 44 35 34 32 40 70 69 47 37 34 37
51 58 63 60 54 51 51 53 52 50 48 46 44 43 45 45 44 43 37 32 29 25 21 21 22 21 20 21 22 24 22 27 38 33 40 34 36 39 65 50 46 40 39
58 62 64 58 52 45 44 43 43 44 44 43 42 44 43 40 35 31 30 27 25 23 20 19 20 20 20 21 21 22 22 26 26 29 28 31 42 48 45 48 45 46 40
63 67 68 65 55 48 46 46 46 46 45 44 44 41 37 34 30 27 26 25 23 20 20 19 18 19 19 20 21 21 22 23 26 25 25 26 31 33 42 47 47 48 46
65 69 68 65 57 51 48 47 46 44 42 40 37 34 32 29 27 26 24 22 20 20 19 18 18 18 20 21 21 22 23 25 25 25 26 28 30 34 40 46 53 57 48
66 69 68 62 57 52 48 45 43 41 39 37 34 31 28 26 25 23 21 20 19 19 17 18 18 20 22 23 24 25 26 26 27 27 30 31 36 42 44 45 50 58 68
63 67 65 63 56 50 47 43 39 35 33 30 28 26 24 24 23 21 20 18 18 18 18 19 20 22 24 26 27 27 27 28 29 34 35 39 45 49 50 51 52 54 60
61 64 63 60 57 52 47 43 39 35 32 28 26 24 23 23 23 21 19 18 18 19 20 22 24 26 28 29 29 28 29 30 35 37 46 53 55 57 58 57 56 59 57
59 62 62 63 61 56 48 42 39 36 32 30 28 25 25 24 22 21 20 20 20 21 23 25 27 29 30 31 30 30 29 34 40 46 54 60 62 64 63 61 58 55 55
60 62 64 62 62 56 48 42 38 34 31 30 28 27 26 24 23 22 22 21 21 23 26 28 30 31 32 32 31 30 33 40 44 52 60 64 68 69 66 59 59 57 60
58 63 63 63 60 57 50 42 37 32 29 27 28 27 25 24 24 24 22 21 23 26 28 30 31 31 31 31 31 38 41 44 48 54 58 64 70 67 62 59 57 65 64
60 64 66 64 61 58 50 41 35 30 28 29 29 27 25 24 24 22 22 23 25 28 30 31 31 31 32 33 40 43 44 45 49 53 59 65 65 61 58 58 59 61 72
57 64 62 63 59 56 48 38 34 31 31 30 28 25 24 23 23 23 24 25 27 30 31 32 33 34 34 39 42 43 44 46 52 57 61 65 66 63 61 62 62 67 70
60 62 62 61 56 53 43 36 31 29 28 26 25 24 22 22 23 24 25 27 30 32 32 32 34 34 34 39 40 43 46 50 52 57 62 66 67 69 78 78 72 82 86
58 61 62 57 54 46 38 33 30 27 26 25 25 24 22 22 24 25 27 30 32 33 34 34 34 34 32 39 41 47 51 55 58 61 64 68 79 87 69 73 76 94 92
60 63 58 56 51 41 34 31 28 28 26 24 24 22 22 24 25 28 30 32 33 34 34 34 34 33 36 41 49 55 61 62 64 65 69 84 77 69 63 86 97 92 87
61 57 52 44 39 34 32 30 28 26 25 24 23 23 25 26 29 31 33 33 35 35 35 34 33 35 43 53 61 65 66 66 67 85 90 76 63 60 90 78 78 71 65
56 47 42 38 34 32 33 28 26 25 24 22 23 25 27 29 32 33 34 35 35 35 34 33 36 43 51 61 65 65 65 70 90 91 81 71 69 97 63 58 64 65 75
50 43 40 37 33 32 30 26 24 24 23 24 25 26 30 33 34 36 35 36 36 35 34 37 43 50 58 63 65 64 63 76 72 81 73 83 91 61 61 64 65 71 81
43 40 38 36 32 28 26 25 26 24 24 26 27 30 33 35 37 36 37 37 36 37 41 46 54 59 61 61 64 67 68 63 68 80 84 83 66 63 67 69 70 76 87
44 40 36 33 30 27 25 28 25 24 25 28 31 34 35 41 38 39 38 38 41 44 52 56 59 60 61 61 61 64 65 73 89 92 82 68 64 69 71 74 78 89 95
44 39 38 33 28 26 27 25 25 25 28 32 35 36 40 41 41 41 42 46 48 52 56 57 58 60 61 61 60 62 68 78 85 68 72 68 73 77 77 77 80 84 90
47 44 40 36 29 27 26 27 26 27 30 33 37 41 45 44 44 46 48 49 55 56 56 56 57 61 62 62 64 67 74 72 68 73 72 77 83 83 82 86 89 89 88

GFSMW_925_rhum_036.txt.gz
RH
41 40 38 38 42 45 43 44 44 57 63 66 62 58 53 53 56 55 52 45 38 34 30 26 24 23 22 18 18 16 19 29 30 28 20 15 27 28 23 26 29 22 36
50 51 50 52 54 55 56 59 64 68 65 62 59 56 50 46 43 40 35 33 29 27 26 25 23 20 16 16 18 20 22 32 37 37 50 62 42 34 14 38 24 40 20
52 60 71 74 69 66 63 69 75 68 63 58 54 49 44 39 36 33 30 28 27 26 24 22 21 18 16 18 21 23 22 30 37 34 36 48 61 50 34 27 42 23 38
51 65 82 81 72 68 64 66 68 64 59 56 52 46 43 43 39 35 32 29 27 24 22 21 20 18 18 18 20 22 21 28 37 32 37 39 37 63 65 46 37 36 37
54 71 78 74 68 64 64 64 62 60 56 54 49 40 42 45 41 35 32 28 25 22 20 19 19 18 18 20 20 21 22 25 28 35 41 36 34 34 74 52 45 39 39
67 74 70 66 64 60 58 58 57 55 50 45 41 42 46 46 40 35 29 26 24 22 20 18 17 18 18 20 21 21 22 24 26 26 26 30 44 51 49 44 46 48 43
71 74 69 63 61 59 57 54 52 51 46 44 44 44 40 35 32 29 27 25 22 20 19 17 17 18 19 21 22 22 24 25 26 27 28 31 34 34 41 48 52 52 49
70 69 64 60 60 59 53 52 50 50 46 44 40 37 34 30 28 27 26 22 20 19 18 18 18 19 21 22 24 25 25 26 26 28 30 35 34 39 46 55 60 65 56
71 70 65 61 61 58 53 48 46 44 41 37 34 31 29 29 28 25 22 20 18 18 18 18 19 22 24 26 27 27 27 27 29 31 35 37 45 50 54 57 60 67 76
75 69 64 65 61 55 50 45 42 39 35 32 30 29 28 27 24 22 19 17 18 17 17 19 22 24 27 28 30 29 29 30 30 37 42 47 53 59 62 63 66 66 67
76 69 65 63 60 53 47 42 39 34 30 29 27 27 26 25 23 21 19 18 18 18 19 23 25 28 30 30 31 31 30 31 35 42 47 53 59 62 65 69 70 69 68
73 68 66 65 61 55 46 39 34 30 28 27 26 25 25 24 23 21 20 19 18 20 24 26 28 30 31 31 32 31 32 39 42 45 50 55 60 62 68 72 72 68 66
72 69 70 65 62 56 48 41 34 29 27 27 27 26 25 24 24 22 20 18 20 23 26 29 30 31 31 31 31 34 42 44 45 47 52 55 59 65 70 72 69 65 66
70 70 69 67 60 55 49 42 35 31 29 29 28 27 26 25 23 21 20 21 23 26 29 31 31 31 31 32 36 44 46 46 46 47 51 55 59 66 71 67 65 74 68
72 69 70 68 62 57 48 41 34 31 29 29 29 27 26 24 22 21 21 22 25 28 31 31 30 31 33 36 46 47 46 47 48 51 53 59 63 65 61 63 68 69 86
69 67 67 68 64 56 48 39 33 30 29 31 28 26 24 22 22 22 22 25 28 30 31 31 32 33 33 43 46 48 49 52 55 58 59 62 68 67 67 67 66 68 69
67 68 67 65 61 53 43 38 32 30 32 30 26 24 22 22 22 22 25 28 30 31 32 33 33 34 33 45 49 54 57 61 63 63 65 68 70 79 86 79 66 73 91
67 66 66 63 58 47 41 35 32 31 29 26 25 23 21 21 22 26 29 31 32 33 34 34 34 34 35 49 56 63 67 66 67 68 69 72 87 79 66 70 86 95 85
65 65 64 60 49 42 37 32 30 28 27 26 24 22 21 22 26 30 32 33 34 34 35 34 34 35 42 50 62 66 67 69 70 71 76 87 77 67 71 96 88 75 70
68 65 58 50 42 37 34 30 29 28 26 24 22 22 23 26 30 32 34 35 36 36 35 35 37 42 48 52 64 65 66 69 72 89 91 82 66 69 90 67 67 72 69
58 52 47 43 38 34 32 31 29 28 25 22 22 24 26 30 33 35 36 36 36 36 37 41 45 51 54 57 66 64 65 69 95 78 76 74 82 81 62 62 70 76 91
48 44 42 39 36 33 33 30 27 26 22 22 24 27 31 33 36 36 36 36 37 41 43 50 54 58 59 61 66 64 64 73 66 79 81 94 78 65 66 70 73 80 77
45 43 40 37 33 34 33 27 26 23 23 24 27 31 34 38 37 39 38 39 42 47 52 59 60 62 62 62 64 69 66 65 73 86 79 74 68 69 72 75 74 74 82
45 41 37 36 32 29 27 28 25 23 24 27 32 35 36 43 40 41 42 47 51 56 61 62 64 65 65 66 66 68 67 83 92 92 85 70 70 73 75 77 77 81 84
42 38 36 34 31 28 29 25 24 23 27 30 34 37 41 43 43 44 47 53 56 59 61 62 63 66 68 68 65 64 70 77 78 70 75 73 78 80 80 79 81 84 86
44 40 33 31 30 29 27 26 25 25 28 33 37 42 45 45 46 49 49 48 60 62 62 62 63 66 68 67 67 68 73 70 72 77 77 82 85 85 85 88 89 90 89

GFSMW_925_rhum_039.txt.gz
RH
40 35 35 37 42 40 42 46 59 67 68 72 69 65 61 63 62 62 57 53 42 32 28 26 25 23 21 17 16 15 14 23 24 22 22 16 27 29 29 17 26 21 26
44 48 46 48 51 47 49 51 62 68 68 68 64 62 59 56 54 44 37 32 28 27 27 26 23 20 17 16 17 17 17 22 31 39 51 56 31 32 17 18 21 31 20
47 54 62 64 61 60 61 59 64 68 67 65 61 56 51 42 38 31 28 27 27 27 26 24 22 18 16 17 20 20 21 30 26 36 34 44 48 54 30 22 38 28 35
45 50 75 85 74 68 72 72 69 67 64 60 57 52 46 42 34 29 28 27 26 25 23 22 19 17 17 18 20 20 22 24 34 29 32 34 40 56 61 42 36 36 32
49 62 79 84 76 73 76 76 69 62 58 57 54 50 42 34 31 30 28 27 25 23 21 19 17 17 18 19 19 20 22 24 28 32 36 36 34 41 71 50 44 35 34
55 71 86 80 78 74 73 69 63 58 56 55 52 47 38 35 32 30 28 25 24 22 19 17 16 16 18 19 21 22 23 24 25 27 28 35 47 54 53 52 45 46 42
78 86 82 78 74 72 69 66 61 58 55 51 45 40 39 37 34 30 28 25 22 20 18 16 16 18 21 22 23 25 25 26 26 29 30 36 36 41 48 54 55 55 54
75 79 77 73 71 70 66 63 60 55 50 45 45 44 40 35 31 28 27 23 21 18 18 18 19 20 22 25 26 27 27 27 28 29 33 37 42 49 54 62 67 74 59
78 78 71 68 69 64 62 58 54 51 48 46 40 36 32 30 28 25 23 20 18 18 18 20 21 24 26 28 28 28 28 29 30 31 38 43 47 53 55 57 68 76 83
77 71 67 67 65 61 57 54 50 47 42 37 34 30 29 28 25 23 20 18 18 18 19 22 24 27 28 28 29 29 29 31 32 38 43 45 49 54 58 59 66 75 79
76 69 67 65 63 57 52 49 45 39 34 31 29 29 26 25 23 22 19 18 18 19 22 25 27 28 28 29 29 29 31 37 42 44 46 47 50 56 60 61 69 78 79
71 70 68 65 60 55 48 43 38 33 30 29 28 26 26 24 23 21 20 19 20 22 25 27 28 28 28 28 28 31 40 45 46 46 47 48 51 58 62 67 75 77 77
74 72 69 64 60 53 47 39 34 30 28 27 27 26 25 25 24 21 20 20 22 24 27 28 28 28 30 30 29 43 46 48 48 48 50 53 58 62 67 70 76 78 79
73 72 69 65 59 53 46 37 31 28 27 27 27 26 26 25 23 21 21 21 24 27 29 29 29 30 30 29 41 48 50 50 51 55 57 58 60 66 71 68 67 79 70
77 71 71 68 60 54 45 37 31 28 28 29 28 27 26 24 22 21 21 24 27 29 30 29 28 30 30 33 51 53 55 58 61 64 61 62 68 67 65 65 67 71 84
76 71 69 67 60 52 46 38 32 30 30 30 29 27 25 22 21 21 23 27 29 29 30 31 32 31 31 38 54 59 64 67 67 62 62 65 71 71 70 70 68 65 70
75 72 71 64 57 51 43 39 33 31 31 30 28 25 22 21 21 22 27 30 30 30 32 33 33 32 33 48 57 63 69 67 64 66 68 71 75 80 87 82 70 90 90
72 72 69 64 56 47 41 36 32 32 32 29 26 23 21 21 23 28 30 31 32 33 34 34 34 35 39 55 58 65 68 65 66 69 72 78 86 88 70 83 99 79 73
69 70 68 61 50 44 39 34 33 33 30 28 25 21 20 22 28 31 32 33 34 34 35 35 37 43 49 55 63 67 66 67 69 73 87 86 77 69 75 91 76 73 74
73 71 62 53 47 42 37 34 34 30 29 26 22 21 23 28 31 33 34 34 35 36 37 37 42 48 54 56 66 67 66 69 71 92 78 77 69 70 89 65 71 79 74
69 60 54 49 43 38 36 34 31 30 27 23 22 24 28 32 34 35 35 36 36 37 39 46 49 55 58 60 67 67 67 68 71 69 81 79 79 77 64 66 74 80 89
60 52 46 42 38 36 34 32 31 28 23 22 24 28 32 34 36 36 37 37 40 43 47 56 58 59 61 63 68 69 66 64 66 86 84 88 77 69 69 73 77 75 75
49 46 43 40 37 35 34 32 28 24 23 24 28 32 35 38 38 38 39 40 45 52 59 64 64 65 66 67 70 73 68 66 77 80 76 74 73 71 76 78 77 76 82
47 43 41 40 37 34 33 31 26 24 23 27 32 35 37 42 41 41 43 48 53 60 65 67 68 68 70 72 71 72 70 87 77 80 78 76 72 76 78 80 80 84 86
44 42 40 38 34 31 29 27 24 23 25 31 35 38 41 42 43 45 49 52 54 64 65 65 66 69 72 72 69 68 71 74 72 73 80 77 81 83 83 83 84 86 89
43 41 37 34 33 30 28 26 24 24 28 33 36 42 44 45 47 50 51 48 61 66 65 65 64 68 70 71 71 70 74 70 76 81 82 85 87 88 88 90 91 91 92

GFSMW_925_rhum_042.txt.gz
RH
46 40 36 32 35 38 40 45 55 76 80 85 81 76 74 70 69 66 61 59 70 38 30 26 25 24 24 19 17 14 14 18 16 17 17 17 18 26 31 18 19 25 24
52 46 41 42 46 42 43 51 65 80 79 78 74 72 69 62 60 58 55 44 31 27 27 27 25 22 19 17 15 14 18 22 25 36 43 51 26 18 12 16 25 20 22
51 52 56 54 54 53 51 56 68 77 75 73 69 68 64 57 45 37 31 28 26 27 27 26 23 19 16 16 17 18 18 23 24 40 29 39 42 55 25 19 25 34 26
50 51 57 70 64 59 60 63 69 72 71 69 66 66 59 49 38 31 28 26 26 26 25 22 19 16 15 16 19 20 21 23 29 29 24 28 35 50 57 38 32 35 34
49 52 59 62 64 67 71 72 70 70 67 65 62 58 54 43 30 27 25 25 24 23 21 18 15 15 16 18 19 21 22 24 26 30 32 33 34 47 68 50 47 40 39
57 54 59 76 81 81 81 76 69 65 63 62 58 56 50 32 29 27 25 24 23 21 18 15 15 17 18 20 22 23 23 24 24 27 29 36 46 52 53 62 52 52 43
62 82 91 91 90 85 80 72 66 63 60 57 54 50 38 32 30 28 27 25 22 19 17 16 17 19 21 23 24 25 25 25 26 28 30 36 38 44 51 58 61 59 56
74 82 87 86 85 83 77 70 65 62 59 55 52 41 34 32 30 29 26 23 20 18 18 18 20 22 24 26 26 26 26 28 28 30 32 38 42 47 52 60 69 71 59
86 87 87 82 82 80 74 69 64 62 58 53 45 38 35 31 29 26 24 21 18 18 18 20 22 25 27 26 25 26 27 28 31 34 39 43 46 49 52 56 60 76 81
85 89 84 80 77 74 69 65 60 56 51 46 41 36 30 28 26 23 20 18 18 18 20 22 25 27 27 26 25 25 26 32 38 43 46 47 47 48 51 56 62 68 81
90 85 80 74 70 67 62 56 52 48 44 38 32 29 27 25 23 21 19 18 18 20 22 25 27 27 26 26 25 24 32 41 46 47 48 48 49 52 56 61 65 73 80
81 78 74 68 63 59 53 49 44 40 35 31 29 26 24 23 22 21 19 19 19 22 25 27 26 25 26 27 25 29 41 48 50 50 52 55 57 59 60 64 71 77 80
79 76 70 65 59 53 47 42 38 34 30 28 27 25 25 24 23 20 19 20 22 25 27 27 25 26 26 24 25 44 51 53 54 57 60 63 62 64 68 71 77 76 80
78 73 69 63 55 49 43 39 35 31 28 28 27 26 26 25 21 20 20 22 25 26 27 27 27 27 26 26 38 54 56 60 63 65 61 58 62 71 72 72 71 76 73
76 70 69 61 54 47 41 37 32 29 28 28 28 27 26 23 21 20 22 25 27 27 27 27 27 28 28 30 53 58 62 67 70 64 60 64 72 76 72 69 72 74 79
73 70 65 61 54 45 40 36 32 29 29 29 29 28 25 22 21 21 25 28 28 28 29 29 29 30 30 37 57 61 63 69 67 65 66 69 75 76 74 72 72 72 89
74 71 67 59 52 45 39 37 32 31 31 30 29 26 23 21 22 25 28 29 30 30 31 32 32 32 34 48 61 62 66 68 66 66 68 72 80 80 81 83 81 95 85
74 71 65 59 51 44 38 34 32 32 32 30 28 24 22 21 25 29 30 31 31 32 32 32 34 36 40 55 62 66 69 68 66 67 71 80 83 85 73 85 99 85 76
72 69 64 57 49 43 38 35 35 34 32 29 26 22 21 24 29 31 32 33 33 32 33 35 36 43 45 53 67 70 68 69 68 69 80 82 78 73 72 93 78 78 78
75 72 62 53 48 44 38 37 37 33 31 27 24 22 23 28 32 34 34 34 34 35 36 34 43 47 51 53 72 68 70 72 72 74 70 81 73 73 89 69 75 81 77
75 64 57 51 47 41 38 38 35 33 29 25 23 24 29 32 35 35 35 35 36 37 37 44 44 48 57 60 71 70 71 71 72 70 79 82 78 75 67 68 77 84 84
66 59 52 47 43 39 37 37 35 31 26 23 25 30 34 36 36 36 37 37 39 41 45 54 53 56 61 66 72 72 71 68 69 81 81 80 74 71 72 76 80 78 78
56 51 47 44 41 38 36 35 32 27 24 25 30 34 37 38 38 39 39 42 44 46 57 65 68 67 68 66 71 77 75 69 74 79 75 76 76 73 79 82 81 80 85
52 47 45 43 40 36 35 32 28 24 24 29 34 38 41 40 41 42 44 46 46 53 66 70 72 70 69 73 73 75 73 82 82 79 81 80 75 79 80 82 83 86 87
48 46 43 42 40 35 32 28 25 23 27 33 37 39 41 42 44 45 46 48 49 67 68 68 68 70 74 74 71 71 73 74 74 75 82 80 84 86 85 85 86 87 90
47 44 42 40 37 31 29 27 24 23 28 34 38 44 44 45 46 46 46 45 53 67 67 66 66 70 72 73 76 74 74 74 79 84 85 88 90 90 90 91 92 93 93

GFSMW_925_rhum_045.txt.gz
RH
40 43 40 39 37 33 33 36 44 64 82 96 96 91 91 91 88 83 81 73 67 62 55 29 24 26 27 22 18 15 15 17 14 20 23 22 18 34 35 20 21 27 22
44 43 44 39 36 34 36 43 53 69 87 90 87 84 82 78 74 68 60 65 67 44 26 26 27 25 22 17 14 14 17 23 23 31 38 28 22 25 24 22 28 22 27
33 36 44 43 38 42 42 49 62 79 86 84 83 79 75 70 61 54 63 54 34 26 27 26 25 21 17 15 16 16 16 32 30 24 28 24 24 33 29 26 28 30 25
33 31 34 49 48 43 48 54 65 81 82 80 78 76 71 66 60 45 36 31 30 26 26 22 20 16 15 15 17 18 19 20 32 31 30 26 37 27 27 34 32 35 33
33 33 35 42 46 51 56 60 71 78 77 75 74 75 74 59 48 37 34 29 25 23 20 18 16 15 15 17 18 20 21 21 30 37 37 40 40 52 44 30 28 35 36
34 36 39 48 60 62 70 71 74 74 72 70 72 74 67 53 40 33 28 24 22 19 17 16 15 16 17 19 21 22 23 23 24 26 30 40 37 34 38 38 38 41 36
40 45 61 69 81 88 86 78 73 70 67 65 66 67 56 41 33 30 26 23 20 18 17 16 17 18 20 22 23 23 23 24 26 27 32 35 44 49 49 49 44 44 46
47 56 63 72 80 88 85 75 72 68 64 60 56 52 43 37 30 28 26 23 20 18 18 17 18 21 23 23 23 23 24 25 27 30 32 39 47 52 54 53 53 55 41
43 64 74 77 83 87 81 75 72 67 61 56 50 43 39 35 28 27 24 20 19 19 18 19 21 24 24 24 22 22 23 26 31 37 41 44 48 50 56 60 61 60 61
41 63 80 83 85 84 79 74 69 63 58 52 47 38 34 29 27 24 21 20 19 18 19 21 24 25 24 22 21 21 23 30 39 46 47 50 52 56 60 63 64 65 64
54 75 84 83 82 77 72 66 62 58 50 44 37 32 29 26 24 22 20 19 18 19 21 24 25 24 23 22 22 22 31 42 47 49 53 55 58 62 62 64 66 66 67
73 85 81 75 72 66 61 57 52 48 42 37 31 28 25 23 22 20 19 18 19 22 24 26 24 23 23 22 22 28 44 51 54 56 59 63 62 61 61 64 67 71 71
86 79 73 68 62 57 52 46 43 39 35 30 27 24 23 23 22 20 19 19 21 25 26 25 23 23 23 23 25 42 53 57 61 64 67 65 64 64 65 72 76 75 78
81 75 69 62 54 49 44 40 37 34 31 28 26 25 25 23 21 20 20 22 25 26 25 25 24 24 24 24 34 52 59 62 66 69 66 66 68 70 77 81 72 71 67
79 72 64 54 47 42 39 37 35 33 30 28 28 27 24 22 21 21 23 26 26 26 26 26 26 26 26 28 55 61 62 64 70 70 63 67 73 78 75 73 71 69 79
76 66 58 49 43 40 38 36 35 33 30 30 29 26 23 22 22 24 27 27 28 27 27 27 28 28 29 32 62 64 66 69 72 68 67 70 72 78 74 74 72 74 83
70 63 55 47 42 39 37 37 36 33 32 32 29 25 23 22 24 27 28 29 29 29 29 29 30 31 32 46 64 64 69 71 70 69 69 73 75 79 83 83 79 92 89
66 59 52 46 42 39 38 37 35 34 34 32 28 24 22 24 28 29 30 31 30 30 31 32 32 32 36 50 65 70 72 71 71 71 74 78 79 83 77 76 98 88 72
63 57 52 46 42 40 39 38 38 36 34 31 27 24 22 27 30 31 32 32 32 32 33 33 36 40 41 47 71 72 71 71 73 74 77 76 72 72 71 93 89 71 69
65 60 52 46 42 41 38 39 40 36 34 30 25 23 25 29 32 33 33 34 34 34 34 34 41 43 49 49 72 71 71 73 70 73 70 73 72 70 85 74 74 75 70
66 57 51 46 44 41 39 40 37 37 31 25 23 25 29 32 34 34 35 35 36 36 34 37 42 48 55 56 72 73 72 73 74 70 73 74 73 84 69 70 73 79 88
63 56 52 47 44 40 38 38 38 32 26 23 26 31 34 35 36 36 37 39 38 37 41 50 52 54 53 60 73 74 74 72 70 75 77 76 76 72 73 76 81 80 82
58 52 48 46 43 40 37 38 36 28 24 26 32 35 37 37 39 39 40 41 41 44 58 67 66 66 67 67 70 78 77 71 77 79 74 77 77 73 77 81 82 84 79
53 49 47 44 41 38 37 35 30 25 24 30 37 39 38 41 41 42 43 45 48 56 69 69 68 71 71 72 75 77 75 78 83 78 80 80 75 79 81 80 78 80 82
51 48 44 42 41 38 35 30 26 24 29 36 41 44 42 42 43 43 44 50 54 67 68 70 70 69 69 71 73 74 74 78 75 76 80 72 76 77 78 80 82 83 85
49 46 44 42 40 35 30 27 25 24 30 38 42 42 42 44 44 46 45 45 48 53 66 65 68 69 74 76 79 76 75 75 79 81 76 79 81 82 83 87 90 90 93

GFSMW_925_rhum_048.txt.gz
RH
25 28 30 32 37 36 35 33 37 47 61 68 72 77 82 82 93 89 85 73 70 72 64 53 32 29 30 27 26 28 28 29 28 21 18 25 27 36 35 31 28 31 29
16 19 25 29 31 35 36 36 40 49 64 69 72 71 77 94 94 91 83 74 62 57 56 37 28 30 28 28 26 27 28 29 32 25 27 20 19 25 34 25 31 25 27
16 13 13 24 30 33 35 38 43 55 66 70 75 78 89 92 84 76 72 68 62 47 33 28 30 25 30 30 29 30 30 27 31 29 24 21 20 20 19 27 23 25 24
20 18 16 14 22 30 37 41 49 61 69 77 74 76 78 80 76 72 70 55 36 28 28 26 29 30 30 30 28 29 27 28 26 29 27 30 25 20 20 20 21 25 25
19 20 21 20 18 28 40 50 58 66 70 72 71 74 77 75 70 66 51 37 33 33 26 25 31 27 29 30 30 30 29 27 28 28 27 27 27 31 30 27 20 24 26
20 21 21 23 25 29 52 60 64 67 69 71 72 73 77 72 60 49 43 38 34 30 29 28 29 30 31 32 32 33 33 30 32 31 30 29 27 24 28 29 28 30 27
17 21 22 25 31 34 57 66 64 66 68 71 72 76 72 64 57 51 40 36 33 31 31 29 28 31 32 34 34 38 42 39 35 32 29 33 33 34 36 36 33 31 31
18 20 21 25 34 45 56 64 63 64 66 70 72 69 61 57 50 43 38 30 28 29 30 29 29 31 32 32 35 37 37 40 36 36 35 36 36 39 41 41 41 39 30
22 24 24 33 37 49 59 61 62 63 63 64 60 52 48 47 40 34 28 27 29 29 30 30 30 32 32 31 33 33 30 32 34 36 40 41 41 44 44 45 45 44 46
33 34 29 29 44 51 61 62 61 60 58 54 51 48 42 41 33 28 28 29 27 28 30 30 32 32 31 30 30 29 33 33 36 39 42 42 43 44 46 48 48 47 46
41 39 37 30 46 58 64 63 60 57 53 50 46 42 35 31 28 28 28 28 27 28 28 29 30 29 29 29 27 28 34 38 41 44 45 47 48 48 44 43 45 47 47
42 40 36 45 60 65 64 60 57 53 49 44 38 33 31 28 28 27 27 26 27 28 29 29 28 28 29 28 26 30 37 42 44 47 49 48 46 46 46 47 48 51 54
46 42 53 60 60 62 59 56 51 46 41 37 32 30 28 28 27 27 27 27 28 30 30 29 29 29 30 29 29 35 41 46 49 51 52 52 49 48 48 52 57 57 60
64 59 60 59 57 58 53 48 42 37 34 32 30 29 29 28 27 28 28 29 30 31 31 30 31 31 31 32 37 45 48 50 50 54 57 55 52 53 56 59 56 57 61
70 66 62 58 53 47 43 38 35 33 31 31 31 31 30 30 29 30 31 32 32 32 33 32 33 33 35 30 47 50 49 51 51 52 52 51 56 69 74 68 69 63 67
71 64 58 52 44 40 37 35 34 33 33 34 34 33 31 30 32 33 33 34 34 34 35 34 34 34 33 30 64 64 54 50 52 50 50 52 56 60 66 68 68 78 88
66 59 53 45 41 39 37 35 34 34 34 34 33 31 31 32 34 34 34 35 34 35 35 35 36 34 38 36 66 67 59 55 53 53 54 54 57 62 62 66 66 70 88
67 56 46 42 39 37 35 34 34 35 35 33 31 30 31 33 34 34 36 36 36 34 34 36 37 38 38 37 66 70 58 54 54 56 58 60 60 59 63 65 85 88 63
55 49 44 42 40 36 35 35 36 36 34 31 30 30 31 32 33 34 36 37 35 36 36 38 40 40 41 48 68 71 57 53 55 55 57 61 60 62 66 81 94 61 56
51 46 42 39 37 36 36 36 35 34 32 31 29 29 31 33 37 34 38 38 38 38 38 39 42 44 43 52 70 71 60 56 55 56 56 56 63 65 79 81 66 64 56
51 45 41 38 37 36 36 35 34 33 32 29 28 32 36 34 34 38 39 39 40 40 39 40 40 45 49 52 65 72 68 61 61 59 55 57 61 68 69 70 68 65 76
58 50 46 39 38 36 36 35 34 33 30 32 34 33 33 35 39 40 40 42 42 40 37 40 38 40 43 50 59 74 77 72 65 63 62 64 70 70 72 72 73 79 81
49 44 41 39 37 37 35 36 35 32 29 30 35 37 40 40 40 39 42 41 42 39 40 41 41 40 44 46 56 68 66 66 69 73 69 70 70 71 68 67 78 78 67
48 44 41 39 38 38 37 36 32 27 28 34 41 41 41 41 43 45 45 43 42 43 46 43 44 44 45 47 54 62 64 63 71 69 71 66 65 62 65 64 66 68 71
48 44 40 38 38 38 36 33 28 27 33 42 43 45 45 42 43 46 45 46 51 61 52 48 49 49 51 55 73 76 72 72 71 74 65 58 56 61 62 66 70 71 75
46 42 39 38 38 37 36 32 28 27 39 41 42 42 43 43 45 44 42 42 42 42 49 63 66 62 67 75 80 78 75 76 77 74 61 58 65 67 70 76 79 84 88

GFSMW_925_rhum_051.txt.gz
RH
19 19 22 23 23 25 26 26 26 31 36 47 56 58 58 72 82 86 85 90 78 63 55 51 42 36 32 31 29 30 30 32 28 22 20 25 30 36 32 35 27 28 28
15 16 20 22 24 27 30 29 27 30 38 48 54 56 66 89 94 89 83 71 63 62 64 56 44 34 31 30 29 30 30 31 30 26 27 30 25 26 30 28 26 27 26
16 14 13 18 24 25 28 31 30 31 40 48 56 64 80 95 96 92 81 76 74 64 61 56 46 45 32 33 33 31 31 30 30 29 28 31 31 23 17 22 25 24 24
17 16 15 13 14 23 27 30 32 33 42 54 62 73 78 86 87 85 78 70 64 57 45 37 34 33 31 32 28 30 27 28 29 29 26 32 28 27 27 19 22 20 24
16 17 18 17 15 14 28 33 35 38 48 59 64 74 71 80 84 74 66 58 46 38 34 34 39 38 31 30 30 31 28 27 28 29 28 26 27 28 30 36 24 24 25
14 14 16 18 19 20 24 35 39 44 53 65 65 68 71 76 74 67 59 47 42 38 39 38 32 32 33 33 33 33 33 32 33 31 29 30 29 26 30 33 33 33 29
13 14 16 19 20 23 25 34 46 50 59 64 62 65 73 72 70 63 57 49 43 38 37 38 33 35 34 34 36 38 40 38 38 34 30 30 32 32 34 36 38 37 34
16 17 16 17 18 25 28 35 50 53 57 62 63 70 70 68 64 61 53 45 41 34 33 29 31 33 33 34 39 41 39 39 38 37 37 36 35 36 37 40 43 46 39
20 21 19 21 21 22 31 40 52 53 58 63 68 69 66 63 57 51 42 35 32 30 30 30 30 31 30 31 32 33 29 30 33 35 37 40 38 39 42 43 44 47 52
28 27 28 26 29 28 32 44 50 55 60 66 65 62 58 50 44 39 32 30 30 30 30 30 31 31 30 29 28 28 31 30 32 36 39 40 40 41 43 44 45 44 45
26 26 31 31 31 29 38 49 52 56 61 60 53 50 43 39 38 37 32 29 29 29 29 29 28 28 27 26 25 26 29 33 35 39 41 42 43 44 42 41 42 44 46
43 40 42 39 33 31 46 52 54 56 53 50 47 43 36 34 31 31 30 29 28 26 26 26 25 25 26 25 24 26 30 35 38 40 43 45 43 45 43 43 44 47 49
55 47 36 35 32 41 53 54 53 50 48 46 40 34 31 30 29 28 27 26 26 27 26 26 25 26 28 27 26 30 34 38 41 43 45 48 49 46 44 48 51 54 54
57 52 49 41 47 53 54 52 49 46 42 36 32 30 30 29 28 27 27 27 28 28 28 28 28 29 29 30 33 39 42 44 44 45 46 48 49 48 52 60 62 60 62
59 54 54 52 52 52 50 46 42 39 35 32 32 31 29 29 28 28 28 29 29 29 30 30 31 32 34 29 39 50 48 45 44 45 45 44 46 55 59 64 66 67 71
63 57 53 52 51 45 42 37 35 33 34 35 32 32 30 30 31 31 31 32 32 33 33 32 32 33 30 31 44 65 58 50 46 46 45 47 49 48 56 60 59 60 67
63 58 53 46 42 39 36 34 35 36 36 35 33 32 33 33 33 32 33 33 33 33 34 34 34 32 36 32 49 67 62 55 49 48 48 51 51 55 57 58 59 64 71
59 54 45 42 38 37 36 36 37 39 36 33 32 33 33 33 33 34 35 35 35 34 32 34 35 36 35 36 52 68 60 49 48 49 51 52 54 56 56 64 70 80 81
51 46 42 40 41 42 40 38 36 34 33 31 31 31 32 32 33 34 35 35 34 34 33 37 37 36 35 40 60 70 59 50 50 49 50 53 56 55 61 64 78 79 66
56 52 52 51 51 54 62 56 47 42 38 30 30 30 31 33 35 37 36 36 37 37 37 36 38 37 40 42 58 67 61 56 54 56 58 54 54 59 63 68 71 72 68
61 68 76 80 86 79 68 56 45 33 30 29 30 32 34 35 35 37 37 37 38 38 36 36 34 36 38 44 52 63 71 66 67 68 58 60 60 65 67 67 71 72 70
45 40 38 38 37 36 34 34 32 30 29 32 36 36 33 35 38 38 37 38 38 37 34 34 35 34 35 40 46 60 68 68 66 63 64 68 67 68 66 69 68 70 74
63 55 46 41 38 36 34 33 30 34 37 33 33 34 36 36 37 37 38 37 38 35 34 36 37 36 38 39 43 52 62 65 64 66 69 69 68 66 61 61 65 66 65
47 42 38 36 36 36 35 36 37 34 30 34 37 38 37 37 40 40 40 38 37 37 39 37 38 40 40 42 50 66 71 68 71 74 74 70 63 53 55 58 61 66 69
43 40 38 36 37 37 37 36 31 28 33 37 38 40 41 38 39 41 40 40 44 45 52 47 49 48 51 54 73 77 78 76 76 73 77 63 52 58 62 64 70 74 77
43 40 38 38 38 37 36 34 30 29 36 40 41 40 40 39 38 39 37 39 33 29 31 54 66 66 68 73 81 82 78 76 77 77 65 57 66 68 71 75 81 86 90

GFSMW_925_rhum_054.txt.gz
RH
23 17 19 18 17 19 26 28 28 29 35 50 61 70 68 72 66 69 70 70 80 82 67 58 44 44 39 32 31 29 30 25 15 23 21 26 25 32 31 32 31 28 29
22 21 20 19 21 22 21 25 27 30 32 38 53 63 66 76 76 79 79 84 83 76 63 51 43 38 33 29 28 29 29 29 18 23 30 43 31 26 27 33 28 26 26
21 20 20 21 21 24 25 26 27 30 33 36 51 63 77 86 90 90 90 84 73 66 62 50 49 50 40 40 41 25 28 30 28 20 29 42 44 31 21 31 24 24 24
22 22 21 18 18 23 23 26 30 30 35 38 57 62 83 97 94 87 78 70 67 68 61 59 58 52 48 31 26 26 21 28 29 29 23 23 26 38 40 22 23 24 24
23 23 24 20 18 19 24 24 28 32 33 41 58 71 81 88 94 86 79 79 74 70 66 60 50 36 33 24 21 23 24 24 27 27 27 27 27 27 36 51 34 25 24
15 16 18 20 20 18 18 23 30 32 34 48 66 72 80 85 86 79 74 69 66 54 50 36 35 36 33 25 25 24 25 23 24 27 28 29 32 35 36 48 44 42 36
18 20 20 22 22 20 22 22 34 36 37 56 75 74 76 79 80 74 70 60 50 42 44 46 40 34 30 25 26 25 22 22 31 29 29 29 31 32 33 38 48 54 43
20 21 20 25 24 24 23 24 27 45 48 70 71 73 75 77 76 73 66 56 48 45 46 42 40 31 24 27 24 25 27 24 31 33 34 35 36 36 37 40 47 58 55
25 22 22 24 23 24 28 27 34 48 59 68 69 75 75 74 70 66 58 51 46 44 35 33 31 27 26 26 28 26 29 29 31 34 36 38 39 39 40 42 44 52 63
34 34 33 33 29 26 26 30 37 51 59 65 73 72 70 68 64 55 50 48 41 32 32 30 27 26 25 25 27 26 27 28 31 35 36 39 42 42 43 44 44 43 49
51 51 49 43 31 29 31 33 44 55 65 70 66 64 63 58 48 44 43 35 33 30 30 29 27 26 25 24 26 25 28 31 34 36 39 41 44 44 44 44 44 43 46
61 59 57 51 43 39 37 43 51 61 63 61 58 53 48 41 39 35 32 32 30 29 28 28 27 26 24 24 24 26 29 33 36 39 42 44 46 47 48 46 46 50 52
63 61 58 59 52 44 41 54 62 59 54 50 47 42 42 39 36 33 32 29 28 27 26 25 25 24 24 25 25 29 32 37 40 43 44 45 48 50 51 49 55 59 64
62 64 83 83 53 43 56 61 56 52 46 43 39 38 38 33 31 29 28 27 26 25 25 25 25 24 25 27 31 38 42 45 45 45 45 46 46 47 48 54 59 65 67
62 60 90 87 68 61 56 51 48 43 41 38 37 34 31 30 29 29 28 27 27 26 26 25 26 27 29 28 26 29 41 48 48 46 46 46 45 51 54 55 60 63 65
66 59 75 84 65 48 47 43 39 38 38 39 38 33 32 31 30 29 29 28 28 27 27 30 30 32 28 30 25 55 48 45 51 50 49 48 49 51 55 58 60 60 62
62 59 51 45 42 40 39 39 37 39 38 38 37 37 36 34 33 31 30 30 30 31 31 31 32 32 34 35 29 58 47 48 52 49 49 50 52 54 54 57 59 62 68
60 50 50 42 38 36 36 37 39 39 38 39 39 38 37 38 37 34 32 32 33 33 32 33 33 34 35 35 37 61 51 55 52 50 51 51 53 56 58 57 64 66 73
51 46 41 39 38 39 41 42 40 38 39 39 41 42 41 37 35 34 33 34 32 32 33 34 35 36 36 40 47 65 64 60 58 57 57 61 61 57 60 64 66 75 79
44 44 49 52 47 46 46 52 59 64 59 52 42 36 35 34 32 33 34 35 35 34 34 35 37 36 36 40 52 61 64 70 69 68 69 67 62 64 64 66 72 76 75
70 65 65 72 86 85 75 71 72 64 57 45 42 37 33 32 34 38 35 35 34 36 36 35 35 34 36 39 46 53 62 67 70 70 67 65 67 69 69 67 68 70 68
96 95 92 96 99 99 99 95 89 78 58 44 35 32 34 36 36 35 35 35 37 36 34 34 36 35 36 38 42 48 55 63 68 70 68 70 74 71 69 67 63 66 68
78 90 94 97 97 77 56 33 38 36 34 32 34 35 37 37 36 36 37 36 37 36 36 38 38 39 40 41 46 62 67 74 74 73 75 76 75 73 63 58 63 66 66
47 41 39 38 38 35 36 38 35 33 30 34 42 41 36 36 36 36 36 38 38 39 40 41 45 44 47 50 55 72 78 80 78 81 78 80 70 60 60 66 67 71 76
47 41 41 39 39 37 38 36 33 30 40 41 37 38 39 37 38 38 38 40 42 33 28 41 46 56 63 65 74 80 81 79 78 75 78 69 63 72 74 76 78 81 86
44 42 39 39 40 39 38 35 34 34 36 40 39 38 37 37 38 39 38 38 35 33 32 33 44 60 68 76 78 81 78 76 76 70 67 70 78 80 82 84 86 91 94

GFSMW_925_rhum_057.txt.gz
RH
30 23 21 19 18 18 21 27 31 56 66 68 81 78 73 75 73 60 64 62 61 70 71 68 62 54 49 45 37 30 28 20 14 16 20 27 27 30 29 31 31 29 30
29 27 22 21 21 18 19 24 30 40 56 63 71 84 75 74 78 65 66 64 66 72 75 70 59 49 47 36 31 28 26 24 15 17 31 40 31 27 30 33 34 28 28
29 28 27 22 20 22 21 23 29 32 44 53 72 76 84 85 88 82 74 70 75 80 75 65 51 46 42 37 30 28 28 27 24 15 25 37 40 34 24 32 31 27 24
28 28 26 23 19 19 20 21 24 28 32 38 57 70 84 94 90 86 83 81 80 79 72 59 47 44 44 40 37 24 21 21 24 24 20 20 24 31 27 22 26 25 24
31 28 28 22 18 17 18 22 21 24 34 37 40 63 88 89 90 91 83 76 72 68 63 59 52 55 55 45 26 22 19 22 20 26 25 25 28 28 37 43 37 25 22
22 24 21 22 22 22 21 20 26 30 31 36 49 66 78 90 95 89 80 73 72 67 66 63 61 57 39 31 26 20 17 20 18 20 22 25 30 37 37 49 48 44 35
20 19 19 22 21 18 21 23 22 23 34 39 58 72 78 83 90 85 78 76 70 65 64 67 60 45 36 32 25 19 20 16 19 22 27 28 29 33 34 39 48 56 42
26 23 21 24 24 22 20 21 23 23 42 59 73 77 82 89 91 83 80 75 70 66 63 48 41 42 35 31 25 20 19 17 21 26 28 30 32 35 38 40 47 67 60
50 50 45 33 25 24 24 23 24 26 69 79 79 83 84 86 87 85 80 73 65 56 44 44 44 43 32 27 22 21 21 25 27 29 33 35 38 39 40 42 44 52 73
52 53 54 49 42 40 31 25 26 32 77 78 80 82 83 84 81 78 71 62 54 46 45 45 43 35 27 25 26 23 24 25 29 33 35 36 40 42 43 44 45 45 52
61 60 54 56 54 50 48 38 30 40 81 80 80 80 80 78 74 68 61 53 44 44 44 36 31 31 26 24 24 24 26 26 30 34 37 40 42 44 45 46 47 46 48
68 70 70 62 60 60 55 47 38 75 76 74 75 75 72 68 62 56 47 42 41 37 38 31 26 24 23 23 24 26 26 30 34 37 40 42 44 46 48 50 50 50 53
72 64 67 64 66 65 60 52 71 72 68 69 66 59 54 51 46 41 39 39 36 36 30 27 26 23 22 23 23 27 30 35 40 44 45 45 47 47 48 50 50 53 58
63 61 66 92 71 73 72 70 64 61 60 57 52 48 46 40 37 37 38 37 34 33 28 26 24 23 24 24 29 34 39 43 45 45 45 46 48 47 48 53 56 58 62
65 62 89 82 61 64 64 60 60 56 52 50 48 45 40 37 37 38 38 40 32 28 28 25 24 26 28 29 27 26 31 32 33 38 44 49 49 54 55 57 58 61 63
67 53 60 78 78 51 54 53 53 57 51 48 43 37 38 42 41 38 38 40 30 26 24 26 28 28 29 30 26 32 32 30 39 48 49 49 49 51 57 57 59 61 62
62 48 43 40 52 80 66 60 52 44 40 38 38 41 46 52 53 46 42 44 30 28 33 35 32 32 34 35 34 40 41 37 46 51 52 53 55 56 58 60 63 61 68
50 45 41 39 40 42 42 42 43 41 42 43 50 66 68 68 61 48 32 32 39 39 31 32 33 35 38 36 40 58 45 42 45 55 60 61 64 64 66 64 66 67 68
45 43 42 43 44 44 42 41 43 44 46 53 65 78 78 68 45 47 61 55 35 32 34 35 36 34 35 38 45 56 55 52 56 62 67 73 71 68 67 67 69 74 77
46 52 48 49 51 53 53 55 59 65 66 65 70 78 66 64 56 38 33 33 33 36 34 35 36 35 35 39 47 55 58 59 61 68 70 69 71 70 70 70 74 76 72
62 76 80 77 66 71 76 85 84 93 92 76 71 75 73 53 36 36 40 45 36 34 35 35 35 35 37 39 47 49 52 59 69 74 74 73 77 74 72 70 71 68 65
89 84 84 92 98 90 84 98 100 99 89 58 52 51 49 44 49 47 39 36 36 36 35 35 36 38 39 41 48 58 66 70 78 79 78 79 80 76 74 69 65 67 72
99 97 100 100 100 100 95 100 100 97 98 97 79 60 46 49 38 34 35 36 36 36 38 38 40 41 38 40 44 69 77 82 81 81 82 82 81 72 68 67 72 74 72
91 94 95 96 96 89 81 77 73 59 40 38 39 41 40 37 36 36 36 37 38 36 37 39 41 37 41 48 72 79 80 78 81 79 78 79 69 70 74 76 77 78 83
68 68 58 50 49 45 43 44 39 35 42 55 50 40 36 34 36 38 39 38 37 27 28 35 39 49 58 70 77 77 78 76 76 73 69 65 74 81 83 83 84 86 90
46 44 42 44 43 39 38 38 38 41 53 42 38 35 36 37 38 39 42 40 36 37 38 40 47 54 59 67 72 76 75 75 73 72 73 81 85 87 88 89 92 95 98

GFSMW_925_rhum_060.txt.gz
RH
31 29 27 25 23 22 20 22 30 65 77 83 91 95 86 82 76 74 64 62 58 60 60 66 66 64 63 57 50 42 30 23 17 20 23 28 30 32 30 32 32 30 29
34 34 26 24 23 22 21 21 24 49 70 70 69 89 87 86 77 74 65 64 61 58 62 66 65 62 56 49 46 36 29 24 16 17 29 36 30 31 31 33 34 33 31
33 33 30 25 22 22 21 20 20 27 66 73 81 73 91 92 90 82 72 65 64 64 67 68 66 61 55 51 41 31 31 28 19 15 25 40 34 32 22 31 38 31 27
34 32 30 26 21 20 19 19 23 24 44 76 82 72 78 87 86 79 78 69 67 73 74 70 66 59 50 47 36 35 32 28 23 19 17 18 20 25 21 26 32 27 26
36 34 33 27 22 20 18 18 22 26 30 53 76 81 83 76 76 88 87 81 78 81 80 72 57 57 52 42 41 42 29 23 22 23 22 23 25 26 34 34 34 28 25
25 28 27 26 24 22 20 19 23 26 30 43 51 73 80 78 86 92 91 87 82 75 73 65 59 52 47 50 50 33 26 21 19 19 17 20 28 38 38 47 46 43 31
36 33 31 26 22 26 24 22 22 24 25 36 53 80 76 73 71 83 91 89 80 70 61 57 54 55 58 53 37 30 24 19 17 18 22 23 24 28 32 38 46 53 44
55 52 50 45 36 29 26 23 24 22 21 29 48 69 75 79 84 86 87 89 82 73 66 64 65 60 54 42 34 24 20 20 18 20 23 25 28 32 35 38 45 61 62
52 54 54 50 47 43 39 32 31 24 25 28 60 75 82 84 85 89 90 85 80 74 70 67 61 51 42 34 28 23 20 20 23 26 27 31 34 37 39 41 44 50 67
57 60 60 58 54 52 51 50 46 39 33 57 77 88 92 88 88 89 90 86 81 75 70 64 51 40 38 36 26 22 22 26 27 31 32 33 36 40 41 43 45 48 55
60 67 71 66 63 59 57 53 51 49 72 68 84 92 97 96 94 91 87 82 78 72 63 49 42 40 36 34 27 30 25 24 27 32 34 37 40 42 44 45 47 49 50
70 78 75 65 63 63 63 62 54 55 69 84 86 90 92 93 92 88 83 75 68 57 49 46 42 34 30 27 24 25 25 27 30 34 38 41 43 45 47 48 49 51 50
79 72 72 81 84 74 74 70 63 63 80 86 86 90 88 83 77 69 62 56 51 47 45 40 36 32 26 24 26 27 29 31 37 42 45 46 47 48 48 49 49 50 54
71 69 91 84 59 61 82 79 72 72 79 78 76 71 66 64 57 48 46 44 43 40 35 32 30 27 33 26 27 33 36 39 42 44 45 44 47 49 49 55 57 59 61
66 62 81 81 59 58 64 66 66 68 67 64 59 53 50 46 43 42 44 42 39 39 36 30 27 27 30 36 39 29 30 29 30 33 40 46 49 59 60 58 60 60 61
61 48 45 72 78 69 67 68 71 66 60 58 54 50 47 50 53 53 52 46 42 41 49 56 58 47 46 50 30 29 26 26 33 38 44 48 51 55 67 68 65 63 66
52 44 43 46 70 88 91 94 94 86 76 68 59 56 59 60 61 64 51 53 59 64 59 56 57 45 47 48 42 33 32 32 39 46 53 56 58 61 64 67 71 68 70
49 42 41 44 47 52 55 51 49 60 75 76 78 82 85 84 72 72 68 61 58 61 69 60 43 39 44 44 43 42 42 43 44 51 60 67 70 71 75 71 69 70 74
44 44 46 46 44 44 50 58 67 72 78 86 88 89 82 94 93 92 90 81 90 70 39 37 35 36 45 39 44 50 52 50 54 63 69 75 77 75 73 72 74 78 76
50 50 53 56 54 57 61 66 71 74 85 96 100 98 99 98 97 91 94 84 61 51 37 36 35 35 36 50 50 52 52 54 64 72 72 73 78 77 76 73 74 79 71
75 74 66 73 74 69 70 81 90 98 100 100 100 99 98 97 76 69 58 50 37 36 37 36 37 38 40 42 52 55 65 71 76 77 76 73 84 81 75 72 72 71 68
81 85 91 96 93 90 92 99 100 100 98 98 99 99 99 98 89 66 57 39 38 37 37 37 39 40 40 46 57 69 75 80 82 81 79 83 85 79 74 72 74 74 79
87 92 96 98 97 99 95 100 100 99 98 97 97 97 84 77 86 66 42 38 37 37 38 38 39 36 33 36 52 80 82 82 81 82 84 87 80 73 73 76 79 82 74
89 91 91 100 100 100 99 95 99 95 96 98 99 98 96 67 45 39 38 38 37 34 35 35 35 37 46 60 75 76 77 76 77 78 75 73 67 70 76 76 74 80 86
91 93 94 95 79 91 94 95 97 90 62 55 51 56 46 40 40 40 40 34 28 27 29 34 41 51 58 69 72 77 76 76 78 76 66 62 72 77 81 84 86 88 92
84 69 56 55 53 65 63 59 50 43 45 69 65 43 39 39 39 42 52 52 47 44 44 50 56 55 62 69 77 81 79 82 75 76 76 84 87 92 93 94 96 96 98

GFSMW_925_rhum_063.txt.gz
RH
33 30 27 28 28 27 28 27 33 50 85 98 100 100 100 92 90 81 73 70 62 65 69 69 68 71 71 65 58 52 47 34 23 22 26 30 30 31 32 33 33 33 32
35 34 27 25 25 24 26 27 29 31 71 90 94 99 93 94 85 85 81 73 73 63 66 64 65 69 68 62 57 53 41 26 20 20 28 40 34 36 35 35 34 34 32
34 35 34 27 24 25 23 23 25 28 45 75 94 96 97 92 97 89 83 77 76 67 67 64 62 67 66 63 55 49 43 27 24 19 27 43 38 36 28 35 40 37 33
38 37 36 32 26 23 21 21 20 24 33 46 90 98 93 95 88 71 80 77 74 70 69 68 65 67 63 60 55 48 37 32 28 22 20 20 23 27 22 30 36 32 29
38 39 38 33 27 25 22 20 20 24 30 57 82 91 90 85 72 74 80 80 76 76 75 75 70 68 61 60 59 45 36 36 33 23 21 21 21 21 28 29 32 32 29
46 46 38 31 27 26 27 26 23 20 26 41 78 92 91 85 82 92 91 89 82 79 80 81 75 66 62 63 55 47 42 38 27 22 20 18 25 33 35 45 44 41 27
59 60 59 57 46 41 29 26 30 29 30 34 48 82 92 88 78 70 77 88 87 86 87 84 79 65 63 57 54 47 41 30 22 19 16 17 19 23 29 33 45 48 42
60 60 60 59 54 51 48 44 34 27 29 38 40 53 79 87 86 77 80 84 87 86 86 84 78 66 62 58 55 43 29 23 20 19 19 22 24 27 28 32 40 56 60
58 59 61 60 59 56 53 53 51 47 40 32 49 45 58 80 85 85 85 93 91 88 84 80 74 67 62 60 43 33 28 21 22 22 24 27 32 33 34 36 40 45 58
57 63 69 68 62 57 54 52 51 53 53 50 43 69 64 82 90 91 93 93 93 89 81 72 67 66 62 44 38 28 24 23 26 26 28 31 33 36 38 41 43 46 51
65 73 79 68 65 68 67 64 61 58 55 52 54 73 76 88 98 97 96 95 92 87 79 74 72 64 51 39 30 25 26 29 32 32 32 34 38 40 42 44 46 48 52
79 81 74 75 81 69 65 67 70 70 64 59 69 86 94 97 99 98 95 94 88 82 77 72 62 49 48 38 30 37 34 30 33 35 37 40 41 42 46 48 49 51 52
82 74 80 93 74 60 66 74 86 77 72 70 87 98 100 100 98 94 91 87 79 69 63 57 49 46 42 32 28 27 30 33 40 49 45 43 45 46 48 49 49 50 55
74 64 72 90 68 64 68 71 80 90 90 94 98 98 96 92 88 81 74 66 58 54 55 55 53 41 32 30 38 50 60 64 50 46 43 42 43 47 49 55 59 59 62
66 50 59 87 81 74 78 79 68 70 76 78 78 76 75 63 59 55 50 48 46 43 41 36 33 40 48 47 50 61 61 44 34 35 39 42 45 56 66 65 67 68 67
57 46 48 74 87 90 86 89 74 62 61 57 56 54 52 53 50 48 46 45 42 39 34 36 39 40 61 88 82 68 40 32 33 32 36 42 48 50 59 70 70 70 71
49 44 45 56 64 81 92 96 91 78 71 68 66 68 70 69 68 62 58 59 52 47 58 69 76 79 87 95 90 63 41 28 33 40 44 49 57 61 63 69 77 74 75
46 43 46 49 57 57 56 77 86 88 95 95 91 90 84 83 79 75 74 76 78 78 82 91 98 98 95 96 78 36 39 43 46 51 61 66 66 69 79 77 73 77 78
47 48 48 46 54 66 72 83 90 92 93 94 94 97 92 93 89 92 92 90 98 100 98 85 71 87 68 58 47 46 50 50 55 64 70 74 75 75 78 76 81 76 76
52 55 53 50 56 59 69 74 79 85 96 100 100 100 100 96 100 99 100 100 100 81 57 56 49 43 45 58 52 53 54 60 71 75 68 64 82 82 79 77 75 77 71
71 68 70 75 73 73 79 94 100 100 100 100 100 100 99 99 100 99 99 95 73 50 41 38 42 38 40 43 58 70 71 75 82 75 74 75 89 83 77 76 74 76 74
81 83 88 95 90 80 90 100 100 100 100 100 99 100 100 100 99 90 63 50 42 39 38 37 39 41 44 54 61 77 80 80 82 82 82 87 88 81 75 72 77 79 83
86 89 92 98 98 93 100 100 100 100 100 100 100 99 98 97 95 88 51 42 38 37 39 40 42 37 35 42 61 69 80 82 81 82 87 87 77 73 68 73 81 87 76
85 88 93 95 100 100 99 98 100 100 98 96 95 96 96 95 64 42 38 38 38 37 38 36 34 39 46 58 72 76 79 78 80 79 78 68 65 72 74 70 73 80 88
86 87 93 96 98 99 100 100 99 94 93 95 98 85 58 43 41 40 39 32 28 26 28 33 38 49 55 68 74 80 81 79 80 81 64 63 70 73 78 83 85 89 93
91 94 95 73 86 91 93 95 92 86 70 64 63 48 42 42 42 42 49 54 49 45 43 46 58 60 69 74 80 83 82 84 77 76 75 82 85 90 92 95 95 93 96

GFSMW_925_rhum_066.txt.gz
RH
39 36 32 30 26 28 29 28 38 62 98 100 100 100 100 100 97 88 81 79 72 60 62 71 76 78 81 76 79 62 52 46 35 25 26 28 30 31 34 39 38 35 33
40 36 29 29 27 24 26 29 29 34 78 97 97 99 100 99 98 92 85 82 80 68 62 66 72 76 74 76 75 62 51 40 30 23 27 38 34 37 36 35 35 34 35
39 37 37 30 28 27 25 26 28 29 48 83 94 100 100 99 99 100 90 85 83 80 70 68 72 74 70 72 68 60 54 40 28 23 29 45 40 40 35 38 38 37 35
41 41 40 36 32 28 27 26 25 26 35 67 100 99 97 95 100 95 75 82 86 84 84 74 70 73 70 72 67 58 56 54 37 31 26 26 26 34 26 31 40 41 38
43 41 39 35 33 30 28 27 27 27 27 45 91 97 100 98 88 92 92 83 83 86 85 86 78 74 72 73 67 61 59 56 59 41 34 25 22 19 24 27 36 36 32
62 60 55 54 52 48 38 30 29 28 29 33 77 93 94 97 95 90 94 90 87 88 86 86 82 79 75 74 70 66 62 58 58 52 32 23 24 28 29 36 40 37 29
64 64 66 67 61 57 54 51 44 36 33 39 47 91 93 93 89 87 88 94 94 91 84 83 84 82 77 75 70 67 63 58 55 38 32 27 20 19 27 28 43 40 35
64 66 69 70 66 60 55 54 53 51 50 41 37 54 98 100 95 90 87 86 90 81 84 92 91 87 81 75 71 67 62 61 44 33 26 22 20 21 23 26 35 51 54
64 70 73 70 63 60 61 60 58 54 53 52 51 39 47 80 92 93 94 91 91 92 95 94 93 89 82 72 68 63 57 43 29 26 25 23 24 29 32 34 32 36 48
68 76 80 72 68 68 59 55 57 60 57 57 55 52 48 55 70 85 94 96 94 94 96 98 96 90 78 71 63 55 40 30 28 26 28 32 34 35 36 39 40 40 43
78 83 82 74 76 60 59 63 66 73 74 67 63 58 58 76 90 96 98 100 99 98 96 96 92 84 72 63 52 39 33 30 31 33 36 37 37 38 39 41 44 47 50
82 84 80 86 70 62 64 68 73 81 85 76 72 73 82 96 100 99 100 100 99 97 94 89 82 71 62 49 38 36 37 40 41 43 42 44 46 47 47 47 48 50 52
82 75 82 88 75 67 71 73 74 87 90 85 90 97 100 100 99 100 100 99 95 89 81 73 66 59 48 41 50 63 66 58 50 46 54 69 68 66 54 48 48 48 53
74 62 70 80 82 75 80 77 72 82 94 100 98 100 100 99 97 95 92 89 80 74 68 61 56 52 47 42 36 39 51 71 74 73 78 73 52 41 46 54 61 63 65
68 55 61 79 88 86 84 72 65 71 81 86 88 82 82 77 75 74 65 64 66 58 57 50 47 40 37 47 61 74 79 78 70 63 61 53 48 60 75 72 73 71 71
58 46 47 72 89 93 92 77 64 60 60 59 59 59 59 56 54 53 54 51 54 59 62 64 57 58 67 74 84 85 81 75 52 47 40 43 47 45 48 54 73 75 76
49 45 48 56 63 86 92 88 83 73 73 72 74 74 71 73 72 64 59 63 66 61 61 61 66 85 99 97 94 96 87 60 41 38 44 49 53 53 52 62 78 78 81
46 44 48 55 62 64 81 87 89 88 91 89 83 80 77 73 81 78 78 76 55 62 76 88 94 98 100 99 56 44 39 45 50 53 58 61 60 58 80 82 77 82 83
49 49 49 55 66 73 82 85 89 94 94 96 100 100 98 95 94 87 86 90 95 100 100 100 98 98 94 98 77 51 53 52 56 65 67 65 71 74 83 78 82 80 76
51 54 55 58 61 71 75 82 93 98 100 99 100 100 100 96 97 100 100 100 96 97 98 98 94 95 95 88 61 66 56 65 69 72 66 68 85 85 80 77 78 78 72
66 66 67 73 72 74 79 98 100 100 100 100 100 100 99 98 98 99 100 99 99 97 61 59 67 56 51 60 70 76 72 78 82 77 80 81 92 82 77 76 74 74 77
78 82 89 91 87 84 88 100 100 100 100 100 99 100 100 100 100 97 94 62 49 44 45 45 45 46 50 56 69 78 80 80 82 83 82 87 86 78 74 74 80 81 87
87 89 94 98 94 91 98 100 100 100 99 100 100 100 100 99 99 86 46 42 39 38 41 41 42 38 35 40 56 66 82 83 84 81 87 86 75 76 63 77 86 89 78
85 90 92 95 100 99 99 100 100 98 97 99 100 100 97 79 51 44 40 39 40 40 42 39 35 38 48 63 74 80 81 80 81 80 82 68 63 66 76 72 77 81 88
85 90 92 99 100 100 100 100 99 96 96 99 98 89 63 43 41 41 39 33 30 28 29 33 41 51 57 72 79 81 82 81 82 83 62 62 72 75 79 82 84 86 89
88 93 91 96 100 98 99 99 97 94 93 90 61 45 41 42 43 41 56 62 60 49 42 52 64 65 74 77 81 84 83 85 79 71 75 81 86 89 93 94 92 90 93

GFSMW_925_rhum_069.txt.gz
RH
37 36 34 33 31 28 28 29 42 54 97 100 100 100 99 100 98 89 87 82 77 70 71 75 74 79 89 89 79 82 71 54 46 35 30 28 28 28 32 40 43 39 36
39 37 35 33 32 30 28 29 30 39 78 100 99 99 100 99 100 100 96 89 85 81 74 69 69 76 83 87 86 82 68 50 45 34 37 36 37 36 34 40 43 40 36
37 36 35 33 32 30 26 26 28 30 42 84 100 100 99 98 99 100 100 92 87 83 80 72 65 66 80 80 85 81 73 51 41 31 33 45 43 44 38 36 37 38 37
38 38 38 38 36 33 31 28 26 28 32 55 100 97 95 92 94 99 100 100 88 86 85 79 70 62 70 79 80 78 73 60 50 34 29 32 31 45 36 32 41 40 39
59 56 54 52 50 37 33 30 28 28 30 38 92 95 93 93 92 97 100 100 98 93 90 86 79 73 72 77 77 76 70 58 63 51 44 36 38 38 30 33 40 40 41
60 61 62 63 62 58 54 46 35 34 31 30 46 100 94 92 99 97 99 100 100 100 100 98 90 83 78 78 77 77 72 59 63 62 62 53 44 42 28 32 36 38 36
63 65 68 69 67 61 58 57 54 51 46 39 41 51 100 100 100 100 100 100 100 100 96 97 100 94 88 84 82 80 77 63 64 63 63 54 32 27 28 48 46 38 36
65 68 71 71 70 68 62 57 56 55 53 51 49 43 56 99 100 100 98 97 93 89 93 96 100 100 98 92 87 84 80 70 65 60 58 40 33 34 36 25 37 46 48
66 72 72 71 76 67 59 58 57 59 58 56 52 50 47 48 90 100 100 100 98 96 98 100 100 100 100 98 91 87 81 71 66 58 51 47 31 28 28 39 42 44 48
68 74 73 76 74 60 59 60 63 66 66 68 65 57 51 50 51 74 99 99 100 100 100 100 100 100 100 96 90 84 75 67 60 42 30 32 36 41 42 39 37 36 37
72 78 72 83 67 62 65 67 69 74 78 82 77 71 62 59 60 81 100 100 100 100 100 100 100 100 98 91 83 76 62 47 32 31 34 40 43 48 49 47 49 54 59
78 76 78 78 70 69 74 73 74 81 93 92 84 83 82 88 99 99 99 100 99 100 100 100 99 95 87 77 70 54 39 34 40 44 46 54 62 83 84 81 66 59 56
78 70 68 76 76 76 79 76 72 81 96 100 100 97 98 99 99 98 99 100 100 100 98 94 85 75 65 60 49 37 37 44 55 68 76 77 84 94 88 79 60 54 53
69 58 64 76 83 84 82 75 67 75 88 92 93 96 98 100 99 98 95 91 85 82 76 71 68 59 50 45 43 53 70 71 71 75 84 87 96 92 91 78 76 87 90
65 52 63 77 86 88 84 74 67 64 68 70 77 80 81 83 80 82 76 78 76 67 69 65 63 60 58 59 54 53 64 75 81 90 98 89 77 85 93 95 92 89 81
57 47 53 64 82 92 88 83 80 75 70 69 70 68 67 68 60 63 66 68 68 68 72 77 71 70 69 69 71 81 91 95 96 98 64 52 53 53 53 89 80 76 78
50 47 52 55 67 89 86 86 86 76 78 85 88 83 79 73 70 70 71 79 87 89 87 81 80 90 99 93 93 96 95 80 50 45 48 53 59 57 55 58 73 76 83
46 46 51 60 67 78 87 90 90 89 89 94 94 96 95 92 94 94 89 92 94 97 100 100 100 99 100 99 81 56 36 44 50 55 62 71 57 55 81 82 81 83 84
48 50 54 66 72 81 84 89 95 97 99 100 100 99 96 99 100 99 96 97 88 95 99 100 100 99 88 73 49 48 52 55 70 86 81 76 71 79 82 81 84 82 78
52 53 58 64 72 78 86 94 100 100 100 100 99 96 95 98 99 97 95 98 97 99 99 99 97 93 92 95 89 65 61 75 76 68 64 67 88 84 80 79 81 80 72
66 64 68 77 84 82 90 100 100 100 100 100 97 95 94 96 99 99 100 100 99 99 97 95 94 78 81 94 87 83 70 78 76 79 83 82 92 81 77 76 76 76 77
76 81 85 92 90 87 96 99 100 100 99 99 100 99 100 100 99 98 99 96 68 51 51 59 67 65 63 65 79 80 81 84 83 85 85 88 81 75 78 77 83 84 90
84 87 92 94 97 94 98 100 100 100 99 99 100 100 100 100 94 54 46 44 42 44 46 46 41 37 41 53 77 80 85 83 87 84 88 79 73 72 58 79 92 89 80
90 90 89 91 98 99 100 99 100 100 99 99 99 99 96 76 60 42 41 40 41 43 42 36 36 44 54 70 77 81 81 81 78 79 77 60 62 59 67 75 80 83 91
87 87 90 95 100 100 100 100 98 94 96 98 99 82 51 43 42 41 39 34 32 29 28 33 42 50 63 78 81 83 83 84 81 82 53 63 75 84 86 86 87 90 95
89 92 95 100 100 100 100 98 94 92 95 95 86 51 43 43 42 53 68 67 59 40 45 63 63 64 75 80 84 86 85 85 83 63 81 86 93 94 96 96 96 96 97

GFSMW_925_rhum_072.txt.gz
RH
23 24 26 28 30 29 29 30 39 58 73 100 100 100 100 99 95 89 82 83 80 77 79 76 75 75 79 79 76 72 69 64 56 43 44 41 40 38 40 47 46 46 46
24 26 27 30 30 30 31 33 34 43 61 85 98 98 98 100 100 100 99 91 88 82 82 79 75 72 78 81 80 73 69 64 54 52 50 47 39 37 37 43 44 43 44
27 24 23 27 32 31 30 32 33 35 42 64 72 83 92 98 98 99 99 99 93 92 88 86 79 74 75 78 83 77 71 63 56 50 53 53 54 38 40 42 45 42 45
27 27 28 29 33 34 34 36 34 34 37 48 60 69 78 85 84 88 97 100 99 97 95 94 91 83 80 76 82 81 75 70 61 50 46 47 38 37 38 39 43 45 43
39 43 46 50 51 49 44 41 36 37 37 40 57 66 71 76 80 82 85 92 100 98 99 99 97 96 88 85 83 82 78 73 70 61 50 45 42 37 34 43 39 50 48
46 48 55 55 57 60 59 58 43 40 40 40 47 65 67 74 80 81 83 88 97 100 99 100 99 99 95 90 87 88 83 75 70 67 62 53 51 45 41 42 36 35 44
48 49 50 50 55 60 62 58 56 52 54 49 48 44 64 71 73 76 88 95 98 98 98 99 100 99 100 97 93 93 90 82 77 76 73 64 56 50 44 41 42 42 40
50 52 52 54 57 58 58 57 57 56 56 56 54 52 55 66 83 87 88 93 97 100 100 100 99 100 100 100 99 98 97 92 85 85 76 68 57 41 40 54 63 74 60
54 56 53 56 56 54 55 58 58 58 59 62 64 59 56 60 68 80 96 95 97 99 100 100 100 100 100 100 100 100 100 96 94 85 71 66 51 54 72 60 43 57 70
55 56 52 59 55 54 57 58 60 62 68 72 71 68 65 64 66 71 80 100 98 100 99 100 100 100 100 100 100 100 99 97 97 88 66 53 46 42 49 59 60 58 56
53 58 55 57 55 55 59 60 62 66 74 81 79 75 74 73 80 85 94 100 99 98 100 100 100 100 100 100 100 99 94 85 74 75 70 70 56 54 56 55 54 61 78
55 59 57 56 55 58 62 62 63 68 80 100 94 92 97 98 99 100 99 98 96 97 98 100 100 99 99 98 96 84 73 71 65 61 62 68 67 62 68 85 95 99 99
60 57 52 56 58 62 62 60 62 69 81 91 94 95 96 96 98 99 98 98 97 95 95 90 89 87 86 80 72 67 57 52 49 50 54 65 77 92 97 98 97 98 98
60 52 51 56 62 67 62 60 61 65 73 80 86 87 91 94 93 90 83 82 80 79 79 77 71 71 66 67 66 60 54 51 58 69 76 85 92 95 96 97 92 88 94
58 50 54 60 65 66 62 63 64 64 65 68 71 71 72 77 78 77 72 72 74 70 73 72 70 71 73 75 71 67 73 75 80 86 90 96 96 94 65 94 91 87 81
56 47 55 63 68 68 66 67 68 70 73 73 76 74 72 73 74 77 78 76 80 80 80 82 78 83 85 83 77 74 80 87 93 98 96 67 55 82 98 98 95 94 87
49 47 50 53 66 76 73 73 74 76 80 84 86 87 81 78 83 84 88 93 98 98 99 100 96 99 99 98 100 98 100 100 81 48 55 79 82 59 52 55 84 84 84
46 46 50 56 66 73 76 73 77 85 88 90 93 95 94 98 99 100 100 100 100 99 100 100 100 100 100 99 98 80 55 49 61 72 78 79 84 79 82 78 82 88 83
43 46 54 63 73 73 76 79 80 86 89 91 93 97 100 99 100 100 100 99 99 100 100 99 98 93 98 90 52 62 64 74 85 72 66 78 74 77 87 78 90 74 68
48 52 59 67 70 74 76 78 84 90 93 98 100 100 95 93 98 94 96 100 99 100 100 99 99 98 94 97 59 62 78 73 65 70 72 75 86 85 81 75 67 68 58
56 56 57 69 80 85 82 84 96 100 100 100 98 97 91 89 90 98 100 98 99 99 100 98 89 86 93 90 89 78 71 69 68 68 69 74 88 81 77 78 68 66 74
65 69 73 81 89 95 96 100 99 99 100 100 100 98 99 100 100 99 99 97 77 67 66 66 64 67 71 76 79 81 84 83 72 70 73 76 80 77 79 77 82 86 88
63 72 74 80 87 98 100 99 99 99 100 99 100 100 100 98 87 70 54 46 45 43 42 43 40 42 55 70 79 85 84 84 72 74 79 72 73 71 67 78 89 89 72
66 68 71 76 87 99 100 100 100 100 100 100 100 100 75 50 44 43 40 39 38 38 39 35 35 42 54 64 71 76 74 79 72 82 66 55 57 61 71 74 77 77 79
68 69 67 72 89 100 100 100 97 96 94 95 89 65 51 42 42 41 38 37 41 36 30 34 39 44 52 70 77 80 73 74 71 78 55 56 62 66 71 75 78 80 81
69 71 71 78 95 100 95 97 97 95 93 84 64 45 43 41 41 47 53 59 42 31 34 47 53 63 74 80 85 87 86 84 83 56 57 60 70 77 80 81 83 89 93

GFSMW_925_rhum_075.txt.gz
RH
15 16 17 20 24 27 28 30 41 57 67 91 98 100 98 95 76 72 68 69 68 67 66 65 61 62 62 66 65 66 66 64 60 54 44 46 44 42 40 44 46 45 49
18 17 19 21 23 25 26 26 27 30 46 58 94 96 98 99 99 89 81 75 74 71 70 71 69 66 66 67 68 67 67 65 63 54 52 58 49 44 40 40 43 43 45
16 16 19 22 26 27 26 26 28 28 32 45 68 85 83 96 97 99 98 95 82 81 77 74 75 71 67 68 70 72 69 68 64 57 56 63 64 45 41 39 43 42 43
23 23 22 22 24 29 31 30 29 30 31 33 44 59 68 82 84 86 96 99 98 88 87 82 82 78 72 69 72 76 75 70 67 59 58 55 43 52 50 41 41 43 41
24 26 31 36 38 45 42 40 37 35 33 32 35 42 51 61 66 69 70 80 95 96 92 91 89 88 82 74 74 75 80 74 69 62 58 54 52 44 41 53 45 43 43
37 42 48 48 52 56 55 52 39 34 33 34 37 40 48 53 62 67 70 71 78 92 94 92 94 91 93 89 83 79 83 81 75 70 63 56 56 54 47 54 51 45 47
41 42 43 46 51 55 55 50 50 46 47 43 40 37 42 55 60 64 69 72 77 84 91 98 93 94 95 95 95 92 88 86 82 79 74 64 61 56 52 52 51 45 41
43 44 46 49 50 51 52 52 52 52 53 53 51 47 45 44 49 64 67 68 77 86 91 94 96 94 96 98 99 96 95 95 92 88 82 75 70 59 53 50 52 81 72
47 47 46 48 48 48 50 52 52 52 54 58 59 56 53 50 53 58 70 81 82 88 90 91 93 96 97 99 100 100 99 99 98 97 90 82 68 60 63 71 74 86 98
47 47 45 50 47 48 52 52 53 55 60 64 65 64 62 61 58 60 61 68 85 98 98 99 100 100 100 100 100 100 100 100 99 96 91 83 86 93 94 89 73 67 76
46 48 47 48 49 50 52 52 54 58 66 79 79 72 71 70 70 70 73 84 89 95 92 96 99 100 100 100 100 100 100 100 100 99 97 87 76 78 85 90 92 92 89
42 51 49 49 48 51 53 55 56 61 71 85 91 92 89 90 89 88 86 90 92 92 95 97 100 100 100 100 100 100 99 99 94 87 85 88 88 86 90 93 92 95 96
45 51 48 49 50 54 55 54 57 63 71 80 85 86 88 88 90 92 94 92 91 89 86 83 79 77 84 86 87 89 87 89 87 84 79 77 77 82 93 95 97 94 93
41 49 47 49 53 58 56 55 58 59 63 72 74 77 81 79 79 74 76 75 74 73 71 70 70 72 72 71 72 77 83 86 87 83 82 81 84 91 94 94 95 86 82
45 50 51 52 57 58 56 57 61 62 64 69 71 70 71 78 76 75 77 76 77 78 79 80 79 78 77 78 77 76 76 76 82 88 94 96 98 98 89 80 88 87 79
49 48 50 58 60 60 60 62 64 69 72 76 78 77 78 80 82 84 87 88 89 87 82 82 79 78 88 73 70 73 86 93 97 100 99 93 84 92 94 92 87 90 87
52 46 48 54 68 69 65 66 68 74 80 82 82 82 86 86 89 92 95 97 99 90 94 97 99 100 99 96 98 99 99 99 99 96 89 85 82 57 48 46 71 88 87
47 45 46 52 65 68 64 66 71 80 86 87 88 93 97 99 98 100 100 99 99 99 99 100 100 100 100 99 96 94 83 59 73 87 89 82 74 71 77 78 80 84 82
42 45 50 59 68 68 68 69 73 78 82 85 91 96 98 99 99 100 99 100 100 100 100 100 96 94 96 71 72 64 70 82 75 54 63 72 68 76 85 81 80 75 66
47 53 58 65 68 69 66 68 73 76 84 91 100 99 98 98 98 99 99 100 99 100 99 100 99 94 93 80 65 60 62 59 60 65 69 68 80 85 82 79 69 63 62
51 54 58 63 73 76 72 72 84 94 99 100 99 100 95 97 99 100 100 100 100 100 98 83 85 88 85 87 80 72 68 64 66 63 64 69 83 80 76 78 76 66 72
55 58 70 78 85 87 84 93 99 100 100 99 98 98 99 100 100 99 99 95 87 72 60 61 61 65 72 76 81 84 80 80 68 64 67 71 79 74 77 78 72 85 89
57 64 70 78 87 94 97 98 99 99 99 99 100 100 99 99 96 83 62 44 42 42 41 42 40 44 58 68 67 80 63 74 67 70 72 68 68 68 65 64 85 86 72
57 59 61 65 79 92 100 100 99 99 100 100 100 91 77 58 45 38 36 36 35 34 36 34 33 42 50 59 65 70 67 67 68 73 72 58 59 65 68 72 72 73 76
59 60 61 65 78 95 100 99 99 99 99 95 82 61 44 38 38 37 36 35 40 35 29 33 37 41 50 68 75 78 78 80 74 78 51 49 53 59 65 70 73 75 77
60 62 59 63 87 93 93 93 90 86 85 76 58 45 38 36 36 44 55 39 31 26 29 40 50 55 60 67 82 84 85 87 78 62 48 52 61 71 78 80 84 89 92

GFSMW_925_rhum_078.txt.gz
RH
18 16 22 24 26 30 34 54 68 75 83 88 93 91 86 79 72 69 67 66 65 67 64 63 57 55 56 58 62 64 65 64 60 54 48 46 45 43 43 44 46 48 48
20 18 17 18 20 27 28 29 34 54 76 87 86 90 94 89 82 79 73 70 68 67 67 64 62 59 58 59 64 65 66 67 63 59 50 68 54 46 44 42 44 46 46
22 21 22 21 23 25 26 27 27 28 30 57 79 90 93 94 96 93 85 79 76 72 69 68 67 66 64 64 65 68 66 70 67 63 55 83 83 56 46 44 41 45 45
24 24 26 26 28 32 30 29 30 29 29 30 66 81 88 96 97 86 85 89 88 84 82 75 72 73 72 69 69 70 70 70 71 66 58 59 53 65 58 44 40 43 44
25 26 38 39 42 34 33 33 33 33 32 31 32 39 78 81 82 86 88 88 86 89 94 92 83 79 77 76 74 72 75 73 73 70 65 63 63 50 56 63 47 42 44
45 53 49 50 56 56 55 49 40 35 34 34 34 35 37 42 61 72 72 72 81 83 89 87 85 88 85 83 83 78 76 80 77 74 68 64 63 64 58 64 55 50 46
53 58 58 57 58 57 54 50 50 48 47 45 41 38 37 37 46 58 66 68 72 79 85 83 85 85 87 87 86 89 86 80 83 78 76 69 64 62 62 61 61 56 46
52 55 59 58 54 53 53 53 52 52 53 54 54 52 49 46 42 43 55 67 71 71 76 78 83 90 91 91 89 91 89 91 91 89 89 80 72 66 64 60 60 79 85
56 56 55 51 50 50 53 53 53 54 57 60 61 60 58 56 54 53 52 63 75 80 76 81 87 84 84 89 98 98 98 100 100 99 96 94 82 74 72 62 64 80 98
57 56 57 51 48 51 52 52 54 58 64 72 75 73 68 64 61 61 60 63 76 82 79 91 100 100 99 98 99 100 100 100 100 100 100 97 90 84 81 81 85 90 93
59 57 56 50 50 51 53 54 57 61 73 82 86 86 85 81 79 78 79 79 85 85 85 87 95 100 100 100 100 100 100 100 100 100 100 98 96 94 93 92 92 93 98
59 60 56 50 51 54 54 55 59 66 76 83 86 87 89 89 90 90 89 90 89 89 96 95 97 99 100 99 100 100 100 100 100 100 100 98 92 94 97 99 98 93 92
60 62 58 56 56 56 55 56 58 62 73 79 79 83 85 86 85 87 85 87 87 84 85 83 81 82 84 88 92 96 97 97 96 96 96 97 96 95 94 92 92 99 94
54 61 60 59 59 57 56 58 60 62 66 72 72 76 78 76 74 76 77 78 78 76 76 76 77 78 78 80 83 85 89 91 90 88 86 87 86 90 96 98 99 94 72
55 60 63 64 61 57 57 60 64 66 70 72 74 76 80 80 81 82 82 83 83 84 84 83 81 79 78 78 79 81 79 80 83 88 91 98 100 100 95 83 78 81 80
54 58 65 64 62 60 62 63 68 73 76 78 79 82 83 86 87 87 87 86 87 85 85 86 86 89 95 93 75 75 81 87 93 98 98 98 98 99 98 94 87 88 86
60 53 63 68 69 64 63 67 73 78 81 81 83 85 90 93 94 95 95 95 97 95 99 99 98 99 99 99 89 91 96 97 99 99 98 92 65 64 48 65 70 74 89
52 53 57 63 68 68 66 70 77 83 84 85 87 92 94 98 99 99 99 98 98 99 100 100 100 100 100 100 97 91 78 65 73 76 73 69 64 60 71 83 81 84 82
54 52 52 61 67 67 65 71 78 83 86 90 93 99 96 100 100 100 99 100 99 100 99 98 96 91 87 80 72 58 59 60 55 55 62 72 70 83 84 81 76 69 65
54 57 61 67 68 67 68 71 75 82 88 96 99 100 99 98 99 100 100 100 98 97 99 96 81 71 74 74 59 57 58 59 63 65 67 68 74 83 82 78 74 71 65
57 59 65 66 68 69 68 74 83 94 98 99 98 100 99 99 100 100 100 99 98 97 86 83 83 72 62 76 77 72 61 64 67 63 64 68 81 79 76 78 69 68 79
58 60 70 77 78 76 78 94 99 100 100 98 98 100 100 100 99 99 98 98 88 68 68 71 74 75 78 80 83 81 72 70 63 63 68 71 78 72 75 74 74 84 88
60 68 76 84 87 88 88 99 100 100 98 91 96 99 98 98 95 94 84 67 55 52 52 50 53 62 68 61 68 62 64 61 56 64 65 63 63 65 55 69 80 83 72
63 65 73 80 89 93 98 99 99 100 97 99 99 99 94 89 78 52 42 40 39 37 38 36 37 42 52 62 67 70 69 74 70 72 65 60 57 58 60 67 72 74 76
60 60 63 72 86 96 100 99 99 100 100 99 93 82 66 47 39 39 37 37 38 35 32 32 38 45 53 66 68 66 62 67 68 73 49 49 52 61 70 74 76 79 84
61 62 62 69 88 97 99 99 99 98 97 90 73 52 40 39 39 40 40 37 35 32 31 36 37 46 55 59 67 70 81 87 77 56 51 52 63 73 82 86 88 92 94

GFSMW_925_rhum_081.txt.gz
RH
25 26 26 32 58 60 67 76 81 76 72 68 75 79 78 67 65 65 63 63 63 63 65 65 62 54 55 56 60 62 64 67 67 59 53 50 45 43 45 48 49 51 53
26 21 27 27 35 56 63 68 79 80 79 76 72 76 76 78 76 73 68 67 66 65 65 65 65 61 56 56 57 61 64 66 67 60 57 64 54 46 45 44 46 47 50
28 24 24 26 25 28 34 42 55 70 80 86 88 85 85 82 86 84 82 74 74 69 67 67 66 65 59 56 57 59 63 67 69 62 57 84 79 64 49 47 43 44 46
28 28 31 37 38 38 33 30 30 32 50 80 93 94 94 96 85 70 72 72 80 86 78 71 69 68 65 61 60 60 63 68 72 72 60 55 61 70 64 48 48 44 44
32 37 48 46 43 37 34 32 30 31 33 36 83 95 95 90 79 70 67 69 71 75 83 92 83 77 71 68 67 68 68 69 73 73 71 66 65 60 61 66 54 48 47
59 63 58 55 55 45 39 35 33 33 34 34 35 38 51 63 63 86 96 87 82 81 77 75 77 91 83 81 79 76 77 74 76 76 74 70 70 76 64 68 61 62 53
66 65 68 70 61 56 52 50 45 48 45 40 38 40 41 41 40 43 61 82 86 84 80 82 83 78 80 85 91 94 92 95 94 88 82 79 73 72 74 73 65 66 55
63 63 70 66 60 56 54 52 52 52 51 51 51 52 52 49 47 46 45 56 76 80 71 72 77 78 85 87 85 86 89 88 90 98 97 90 84 80 78 76 81 86 78
67 67 66 60 57 55 55 53 54 56 60 64 64 62 60 58 57 56 56 55 66 85 80 77 79 75 79 79 78 89 92 97 98 100 100 100 97 92 85 80 77 79 97
68 68 60 56 55 55 55 56 58 67 70 70 73 76 73 69 66 63 63 65 74 85 85 79 80 88 93 90 98 98 98 100 100 100 100 100 100 98 95 91 88 86 90
69 70 62 54 55 55 56 58 63 70 75 80 84 85 84 83 81 80 84 83 84 85 85 83 84 95 100 100 99 100 100 100 100 100 100 100 99 98 95 94 96 99 100
70 69 62 57 58 57 57 60 68 78 80 84 85 87 87 88 89 89 88 89 89 90 90 89 89 87 90 92 99 99 100 100 100 100 100 99 98 95 94 94 97 99 99
72 69 67 64 62 58 58 60 66 72 75 79 80 80 83 82 83 83 83 85 84 84 84 84 81 83 84 87 90 96 97 99 100 100 99 98 98 99 96 91 89 93 93
71 70 70 69 63 59 60 62 65 66 70 73 77 78 77 77 77 78 78 78 77 77 77 78 80 82 84 86 89 91 93 94 94 94 94 92 89 88 94 97 98 97 86
71 69 73 76 65 62 63 65 68 69 72 74 77 80 79 80 82 83 84 83 82 83 82 82 83 84 84 86 87 88 88 87 86 83 84 93 96 99 96 94 92 91 89
61 65 69 72 68 64 65 70 72 74 76 78 82 84 84 86 88 88 88 89 90 89 88 87 85 87 91 85 78 78 80 85 92 98 99 99 99 99 95 93 94 81 76
61 65 68 72 68 64 66 72 75 78 79 82 86 89 91 92 93 93 91 92 94 92 94 98 99 99 98 99 84 87 90 92 93 93 94 93 65 46 47 69 75 79 90
60 62 67 73 68 68 71 75 78 81 82 84 90 95 96 99 100 97 99 99 99 99 100 100 100 100 100 97 94 95 89 78 66 59 53 53 58 62 79 84 83 87 83
59 60 66 69 69 68 72 75 82 84 85 88 93 96 98 99 100 100 100 100 98 100 99 100 98 92 85 76 52 46 49 49 49 55 62 67 76 84 86 79 74 69 66
58 61 64 66 68 68 70 76 82 84 88 92 96 96 98 99 100 100 100 99 98 97 92 83 76 76 80 78 56 53 53 56 59 65 70 80 75 83 79 76 69 61 60
61 62 65 69 68 68 73 81 85 89 93 94 97 98 99 99 99 100 99 99 97 89 82 72 67 68 71 76 78 61 58 62 64 64 65 66 81 79 75 77 66 68 82
66 66 70 72 71 71 76 89 92 95 95 96 100 100 100 100 100 99 99 97 83 80 84 82 83 79 75 77 79 67 60 55 55 58 63 64 70 70 72 72 74 83 90
65 68 73 79 79 80 80 93 99 96 98 99 100 100 100 99 100 99 98 83 67 67 69 68 66 68 69 65 66 64 67 66 55 60 71 72 63 59 58 58 76 80 72
67 70 79 87 91 89 90 88 98 96 98 100 100 99 99 99 97 92 75 59 52 50 46 44 43 48 54 59 65 67 68 76 68 68 57 56 58 57 63 67 72 74 77
66 70 79 86 90 93 94 96 98 97 100 100 97 100 94 86 76 52 44 42 40 36 34 34 33 39 52 62 68 64 56 57 59 74 44 47 52 60 70 75 80 83 88
65 68 72 81 90 94 98 100 99 100 98 96 94 88 83 60 46 41 43 43 40 36 32 30 34 42 47 67 61 53 59 79 80 64 51 52 59 68 77 84 87 91 97

GFSMW_925_rhum_084.txt.gz
RH
30 25 41 72 68 70 72 75 77 74 74 75 78 72 74 62 57 56 56 57 59 60 64 65 64 55 54 57 63 64 65 67 69 67 64 59 54 47 46 47 48 51 60
30 26 26 37 66 66 71 71 71 73 74 69 73 78 78 74 65 62 61 60 60 61 63 64 66 65 59 54 58 61 65 65 69 66 63 71 60 53 48 46 47 48 51
29 29 25 28 45 71 71 72 74 73 70 73 75 80 84 83 82 76 68 67 66 65 66 65 65 66 66 62 56 58 62 68 68 71 65 82 82 69 52 48 46 48 49
28 31 34 38 33 51 64 72 77 82 82 80 86 82 84 89 83 80 76 79 77 75 71 69 68 68 68 66 64 58 59 65 70 76 68 63 59 76 76 52 52 50 48
35 35 42 49 47 42 39 41 47 50 70 88 90 90 94 86 78 79 78 78 81 87 89 87 76 74 72 70 68 64 62 63 70 73 71 71 70 63 63 69 59 55 54
41 53 57 54 53 47 42 39 38 37 35 44 85 100 100 100 98 92 91 84 79 78 80 84 88 91 84 80 78 74 71 75 77 80 79 77 77 81 74 80 74 69 63
65 74 76 71 59 51 47 41 41 47 45 40 38 39 52 59 58 52 57 74 87 90 84 79 77 80 81 76 91 93 94 92 94 91 89 85 86 81 81 84 85 82 70
73 74 77 68 61 56 54 53 51 52 51 51 52 53 50 47 44 41 42 48 66 81 85 82 74 78 82 71 85 92 91 90 92 93 92 92 93 90 88 88 91 92 86
76 78 74 65 60 57 55 54 54 57 57 58 61 58 58 59 58 56 52 49 54 79 80 80 84 89 86 80 76 71 76 74 94 100 100 100 100 100 96 93 90 93 99
80 79 70 63 60 58 57 57 59 64 66 65 67 70 69 66 66 64 64 65 66 83 89 90 96 97 88 80 74 79 89 99 100 99 100 100 100 100 99 95 93 92 92
81 74 69 61 59 58 57 60 65 68 70 74 78 80 81 81 80 78 82 86 86 88 90 90 90 89 91 96 100 100 99 100 100 100 100 100 100 100 99 97 98 98 98
79 73 69 64 60 59 59 63 72 74 78 82 83 85 86 86 87 88 90 91 87 89 89 89 87 88 93 96 93 89 95 99 99 99 99 100 99 98 96 94 95 97 98
78 73 73 71 64 61 61 68 76 74 77 81 81 82 82 82 82 82 86 89 89 88 88 87 84 84 86 88 87 88 94 96 98 100 99 98 96 95 96 94 92 91 90
71 74 75 75 65 62 62 66 69 68 73 77 78 78 78 78 78 79 79 78 78 78 77 78 79 81 85 87 89 91 93 94 95 95 93 92 91 90 90 92 92 89 80
75 71 76 81 68 65 65 67 68 69 73 75 78 78 79 79 80 80 81 80 80 81 81 82 85 87 89 90 91 92 91 89 89 89 86 85 87 91 90 88 86 83 72
71 71 71 76 72 67 68 69 71 72 75 78 82 83 85 86 88 89 89 89 88 86 85 84 84 85 86 83 84 84 82 81 81 93 99 100 100 99 100 93 79 71 70
53 71 72 74 69 66 67 72 74 77 78 83 86 89 90 92 94 94 94 94 94 90 89 93 93 100 98 78 75 75 78 84 92 95 95 92 63 49 47 70 76 82 90
56 69 72 73 66 66 69 73 77 79 81 87 91 93 93 96 98 97 98 98 97 99 100 99 99 99 100 96 92 93 93 92 78 57 47 45 52 68 76 75 78 82 82
67 67 68 69 68 70 72 76 82 82 84 90 94 96 96 98 99 100 100 100 99 99 100 100 98 98 98 92 77 56 46 45 52 57 56 58 75 86 89 71 69 69 69
63 69 68 69 71 73 74 78 83 85 88 90 93 96 97 99 98 99 100 100 99 99 98 86 78 74 76 70 45 39 40 47 55 63 76 75 70 80 79 71 62 57 53
64 65 67 71 70 70 73 80 84 87 89 89 93 96 99 99 99 99 99 100 93 86 78 72 71 70 73 82 68 54 51 51 56 58 59 60 81 78 75 79 70 60 83
70 67 69 72 71 74 75 82 85 86 90 94 98 99 100 100 100 99 99 93 81 72 66 65 68 73 78 82 80 66 47 52 51 52 57 58 67 70 72 73 70 80 87
73 70 72 75 75 78 80 85 86 91 95 98 100 100 100 100 100 99 97 92 83 77 78 74 76 75 72 76 75 74 74 60 50 55 64 76 69 64 54 56 75 82 71
66 70 76 82 85 84 85 82 90 94 96 99 100 100 100 100 100 99 86 72 72 73 73 68 63 63 60 58 62 59 60 68 60 62 55 44 65 62 66 69 70 73 76
64 68 76 81 83 86 89 89 92 96 100 100 100 100 100 100 99 94 83 64 51 45 43 41 37 39 46 47 55 57 53 50 49 72 48 44 48 53 63 73 77 82 86
66 71 74 77 81 87 92 95 96 96 98 100 100 100 100 98 86 70 54 47 44 40 37 32 29 32 37 45 65 73 65 72 83 70 56 49 52 58 65 76 83 87 91

GFSMW_925_rhum_087.txt.gz
RH
35 29 60 76 69 78 81 82 85 87 78 84 87 82 76 68 71 72 70 61 63 72 72 69 65 64 59 56 59 65 72 73 75 76 76 73 69 64 57 53 50 49 53
35 31 26 40 79 75 78 79 78 83 84 77 77 79 76 67 60 58 58 57 58 61 65 66 66 65 63 59 59 66 73 73 74 74 71 82 70 63 61 56 50 48 51
38 34 29 26 42 78 76 76 78 77 81 81 80 82 78 76 71 64 60 60 59 61 64 63 65 66 66 65 61 59 67 69 70 72 69 84 89 73 56 53 54 51 50
34 33 31 28 34 52 74 77 79 87 84 82 82 82 84 85 79 75 72 69 66 65 65 65 66 69 68 68 67 64 61 64 69 76 74 69 65 72 77 55 52 50 50
37 36 42 41 38 40 58 77 81 85 87 91 86 84 86 84 85 86 84 84 82 79 83 78 75 74 74 73 72 70 68 67 67 72 72 77 78 73 73 78 72 60 56
42 42 56 55 53 48 47 52 61 70 81 89 95 99 97 95 94 91 90 91 90 88 88 90 96 96 91 85 80 76 76 76 74 76 76 75 80 85 79 84 78 74 71
48 63 74 68 56 48 44 42 41 42 40 55 88 98 98 98 99 96 94 87 82 81 78 82 82 82 83 86 89 86 91 91 87 82 82 86 86 82 81 84 92 86 79
65 71 74 67 60 54 47 45 44 44 44 43 42 44 45 50 54 56 54 51 53 60 69 85 91 85 85 82 81 79 85 99 100 100 100 100 100 99 94 92 93 96 90
80 78 77 67 63 60 58 53 52 54 55 54 53 51 50 50 50 48 46 45 45 48 62 75 86 88 89 92 89 89 85 84 89 91 99 99 100 100 100 100 99 96 99
86 85 78 69 64 59 58 59 61 62 64 64 64 65 65 62 61 60 60 60 60 68 80 84 89 97 99 99 92 85 78 75 83 94 99 99 100 99 100 99 98 96 98
89 83 76 67 63 61 62 66 66 66 68 70 71 74 77 78 78 76 75 78 79 82 89 94 99 100 100 100 99 100 90 92 100 98 99 99 99 100 99 97 96 95 95
84 79 76 69 65 63 66 70 73 72 75 77 78 79 82 84 84 86 90 90 90 89 89 91 94 94 97 99 99 99 96 96 94 98 99 99 99 98 96 93 92 93 95
81 79 80 75 68 65 67 75 76 73 76 79 81 82 82 83 83 86 91 93 92 90 90 90 89 89 91 91 92 92 94 88 94 96 97 94 94 93 94 92 91 88 86
77 80 81 78 69 64 66 72 70 68 73 77 79 79 79 80 81 80 79 79 79 78 78 80 82 84 87 90 90 89 89 89 92 94 95 94 93 90 87 86 86 82 80
80 77 80 83 71 67 66 68 66 67 71 76 77 78 79 79 80 80 80 80 80 80 82 84 87 88 90 91 90 90 93 91 92 92 91 88 87 89 91 88 86 81 70
74 74 74 78 74 69 67 67 68 69 73 76 78 80 81 83 85 86 86 86 85 85 86 87 87 89 91 92 91 88 88 89 86 99 97 99 99 99 99 81 67 64 64
76 75 72 75 71 66 64 68 70 73 77 80 84 86 90 90 92 93 93 92 90 88 88 89 87 90 96 88 81 78 78 88 99 99 99 94 73 56 57 78 75 87 93
50 72 74 74 66 65 67 70 74 77 80 85 89 91 92 93 94 96 96 96 93 93 92 95 98 99 100 98 86 86 89 91 88 78 53 42 54 66 64 65 70 75 80
61 62 69 70 67 66 68 72 78 80 84 91 94 94 94 95 97 99 98 96 97 99 99 100 100 98 100 95 92 83 60 44 46 50 54 66 81 92 78 53 55 62 68
69 73 72 70 69 72 71 76 81 82 85 90 94 94 94 93 96 98 99 100 100 99 100 99 93 84 74 56 43 35 34 40 50 65 74 67 68 77 78 55 49 47 44
70 73 72 72 71 72 74 80 82 84 82 87 94 96 98 97 95 98 99 100 99 95 82 77 73 68 62 57 46 44 43 44 52 56 56 60 79 74 74 78 66 52 75
71 69 72 74 73 73 74 79 82 81 84 88 97 100 99 100 100 99 100 98 88 81 76 70 73 77 81 78 70 49 45 50 47 46 51 53 58 67 71 69 65 79 87
68 69 70 75 76 76 74 78 80 83 88 93 99 100 100 100 100 100 98 92 83 69 69 66 70 72 68 71 76 77 70 45 46 49 56 79 79 68 55 52 75 78 79
79 82 76 79 80 81 82 78 80 86 92 99 100 100 100 100 100 100 94 85 80 73 66 68 66 66 66 68 65 65 66 76 55 53 53 48 63 61 53 57 67 69 73
70 68 73 77 77 80 85 87 86 90 97 100 100 100 100 100 100 96 93 85 74 64 60 57 52 54 56 42 47 52 51 46 44 57 57 39 42 48 54 63 71 76 82
64 68 70 72 74 80 86 91 92 93 96 100 100 100 100 100 98 97 91 76 63 53 46 40 37 33 30 37 46 54 55 62 83 69 60 49 46 51 55 61 71 80 88

GFSMW_925_rhum_090.txt.gz
RH
35 31 33 83 73 70 87 93 94 88 86 94 100 100 100 93 88 83 79 80 80 80 84 82 75 73 68 66 62 65 70 76 76 78 74 73 72 74 73 70 63 58 55
37 33 29 40 83 73 76 88 93 92 91 93 99 99 99 93 81 72 74 76 79 78 75 77 75 72 68 67 65 64 69 73 77 78 81 88 74 68 68 68 65 60 55
41 36 32 29 36 81 73 80 86 93 88 84 87 92 90 86 78 72 68 68 66 62 64 69 72 69 68 67 66 64 65 68 74 76 74 88 92 78 59 54 52 54 54
38 36 35 31 27 27 69 82 83 87 90 92 86 86 82 84 80 74 67 64 64 62 65 69 72 69 70 70 69 68 66 68 74 80 79 74 68 76 80 63 56 52 53
41 39 36 31 28 29 36 79 86 90 91 92 91 87 89 83 80 80 80 80 79 72 74 71 71 73 77 75 74 75 74 72 71 72 75 79 81 79 79 87 78 72 67
47 42 37 44 44 42 41 63 84 91 96 97 96 95 91 88 89 91 92 92 88 94 92 90 90 89 84 82 81 80 80 79 77 77 77 78 78 87 83 88 83 82 78
50 48 65 66 54 51 50 56 72 80 83 92 100 100 99 98 98 99 100 99 97 93 91 92 87 83 80 80 86 93 91 85 85 87 86 83 83 82 85 85 90 92 88
52 57 67 64 57 54 51 50 53 56 56 63 75 88 98 98 98 96 89 84 77 70 68 72 82 90 91 90 93 99 99 94 96 94 98 99 100 100 100 97 96 99 95
60 66 73 67 62 58 55 52 52 51 48 45 45 45 45 45 46 47 46 46 47 47 48 56 66 81 99 100 98 96 100 100 99 93 93 99 100 98 99 100 100 98 99
83 87 82 72 68 64 63 62 61 60 60 55 51 48 48 49 50 52 54 55 56 58 64 71 76 85 96 100 100 100 100 98 87 81 74 86 99 99 99 100 98 99 99
90 88 84 73 68 67 69 70 69 67 68 68 69 68 68 67 67 67 70 71 74 78 85 93 98 99 97 100 98 100 96 92 92 94 87 93 99 99 99 98 97 96 96
88 85 82 74 71 72 75 74 75 74 75 75 75 75 77 77 78 80 83 87 89 88 89 94 98 100 98 100 100 100 100 100 97 93 90 96 93 97 97 95 94 93 93
87 86 83 78 73 72 75 75 74 74 77 77 77 79 79 80 81 85 91 94 92 90 90 90 90 90 92 96 97 97 96 93 92 94 98 94 94 92 91 89 89 87 88
83 85 86 82 73 70 74 75 72 72 74 77 78 78 78 79 81 81 82 82 82 81 80 80 84 88 91 92 93 92 92 93 95 94 91 92 92 91 89 85 82 82 83
85 83 84 86 75 72 74 74 68 68 72 76 78 78 77 78 81 80 81 80 79 79 80 80 82 84 88 90 91 91 92 93 93 93 92 90 88 87 87 85 83 79 71
82 81 80 81 77 71 70 70 67 68 72 76 77 78 80 81 82 83 84 84 83 84 86 88 90 92 94 96 96 94 92 91 90 94 99 99 99 100 94 71 62 56 54
82 80 79 78 72 68 65 68 67 69 73 77 80 83 85 87 89 90 90 89 89 89 90 92 92 97 100 99 95 92 90 93 100 99 99 98 93 81 78 87 77 93 90
71 78 76 73 67 64 65 67 70 72 77 81 84 86 88 90 94 94 94 94 93 92 93 93 94 98 100 90 80 81 87 97 98 88 62 50 50 52 51 52 57 68 75
59 54 64 68 68 66 66 69 74 76 79 84 87 91 92 93 96 98 98 96 95 94 94 99 100 99 100 98 88 87 84 64 50 46 54 61 80 91 56 44 49 57 67
68 70 71 72 70 70 67 72 77 80 83 84 88 91 94 94 95 95 98 98 98 99 100 100 100 100 98 88 68 47 37 41 49 58 63 62 67 77 77 50 45 44 42
70 76 76 76 74 71 71 76 78 81 79 84 91 94 96 96 95 97 99 100 100 100 99 94 85 69 56 48 36 36 37 41 53 58 63 65 76 70 72 76 61 53 66
72 75 76 76 74 72 73 77 78 77 81 85 90 96 99 100 98 97 100 100 100 95 84 76 73 68 69 72 60 47 45 45 42 44 45 48 52 60 63 60 54 77 87
67 70 74 79 78 76 78 80 77 81 83 88 94 97 98 100 100 100 100 100 94 83 78 73 75 80 77 77 82 78 61 40 39 42 49 69 79 72 56 48 74 78 78
70 72 75 80 85 82 78 76 77 82 86 93 99 100 100 99 100 100 99 94 87 81 72 70 68 68 65 65 70 74 71 73 50 52 52 47 48 58 53 52 57 65 68
98 92 90 83 79 78 82 84 83 85 91 96 100 100 100 100 100 100 98 92 84 71 61 51 45 54 56 48 50 51 53 53 51 44 49 43 38 42 45 48 55 66 74
74 71 71 72 73 74 78 83 88 91 92 99 100 100 100 100 100 100 99 94 82 73 64 56 51 45 40 37 39 47 52 50 65 60 53 52 44 42 45 50 55 65 80

GFSMW_925_rhum_093.txt.gz
RH
44 35 32 75 82 70 68 72 63 79 75 99 100 100 100 100 99 88 91 86 85 83 83 83 80 78 80 71 71 69 72 76 78 82 80 69 66 68 68 72 74 72 66
48 36 35 41 82 86 91 62 59 60 63 72 93 99 100 89 93 87 83 86 86 84 84 83 83 82 78 76 72 72 72 76 76 81 83 72 70 66 64 65 68 66 66
48 36 35 32 39 70 75 79 64 54 54 59 62 86 97 98 96 92 87 79 80 81 81 80 80 81 83 77 71 70 70 76 73 74 74 78 74 75 61 58 55 55 57
39 38 36 31 34 38 50 89 64 60 72 91 90 91 97 97 83 69 86 76 74 79 81 84 78 73 80 80 75 71 71 72 82 79 78 74 71 75 79 64 59 59 56
42 39 38 31 28 28 29 42 84 82 67 91 96 92 95 89 83 84 81 77 75 73 70 68 72 77 79 81 79 76 78 78 78 74 77 80 82 82 80 85 76 74 71
45 42 37 35 35 33 30 34 74 86 83 92 95 98 92 91 90 86 86 92 91 91 84 80 79 77 77 77 77 79 83 81 79 78 79 76 80 90 90 90 86 83 84
45 43 44 53 42 37 38 42 77 92 96 99 100 100 99 96 96 95 94 94 96 95 96 100 99 96 95 96 98 94 90 88 87 85 84 82 82 83 84 86 89 94 89
47 49 48 52 49 46 44 51 68 84 87 99 100 100 100 99 99 97 99 99 91 90 88 86 90 92 92 92 93 97 99 98 94 91 90 92 91 92 97 99 96 99 98
52 52 57 59 58 58 55 56 64 69 69 76 85 94 96 96 95 84 66 58 57 57 56 57 60 65 75 90 100 100 100 100 100 100 100 100 100 98 99 100 100 98 99
64 62 68 72 66 62 62 62 63 64 64 60 58 55 54 52 51 51 50 50 50 51 53 56 59 63 65 86 100 99 99 100 100 100 100 96 95 86 98 99 100 100 99
79 79 77 75 70 69 70 69 67 65 66 67 67 66 63 61 59 58 60 63 65 68 70 74 88 91 92 92 96 100 100 100 100 98 92 92 96 91 96 98 96 97 98
84 80 78 79 81 80 77 74 72 68 66 64 64 64 65 66 67 68 71 75 79 82 85 89 99 98 91 93 98 100 100 99 99 93 98 97 98 94 94 94 94 93 93
83 80 77 76 80 82 80 78 77 75 74 72 70 70 71 73 74 78 83 87 88 88 88 89 90 93 98 99 100 100 100 100 100 98 97 96 95 94 92 87 85 86 88
80 78 77 76 78 79 79 78 77 77 76 75 74 74 74 75 76 78 83 87 86 85 84 83 84 86 90 93 97 98 98 98 97 97 96 93 90 87 86 84 80 81 80
80 77 77 76 77 77 78 74 70 70 72 73 74 75 75 76 78 80 80 80 80 80 81 81 81 82 84 88 92 95 94 93 94 94 92 91 89 84 80 78 79 77 77
78 77 76 78 77 73 74 71 66 65 70 73 74 75 77 79 80 82 82 82 83 84 84 86 87 90 91 93 94 93 93 93 92 92 95 95 93 88 82 75 67 60 55
80 76 73 74 72 68 65 68 66 67 71 75 77 79 81 82 84 85 86 87 87 88 90 92 95 99 100 100 98 95 92 91 93 95 96 98 98 91 87 90 92 90 56
77 77 74 73 68 65 65 65 67 69 72 76 80 82 85 87 89 90 90 90 90 91 93 96 98 99 99 100 97 93 93 98 100 100 95 78 63 56 44 49 54 61 63
58 61 65 69 67 66 64 66 70 71 74 78 80 82 86 89 94 97 95 95 94 94 94 94 97 97 98 88 87 89 96 95 72 53 49 54 62 61 46 39 44 54 64
68 70 69 71 72 70 67 69 72 75 78 79 82 86 88 90 92 97 97 96 96 96 99 100 100 100 99 92 91 86 71 50 50 62 73 71 72 87 48 36 36 38 40
70 73 74 75 75 74 71 73 74 77 73 79 84 89 92 93 94 96 99 98 100 100 100 99 100 98 91 79 51 41 36 38 49 57 67 75 77 68 76 59 48 46 53
69 74 77 78 80 77 74 76 75 71 75 79 85 91 95 97 97 98 99 100 100 100 99 93 81 70 61 58 46 38 37 41 40 45 46 52 62 53 59 54 48 78 88
67 70 76 80 78 76 73 75 73 77 80 83 87 93 97 100 98 100 100 100 100 99 92 80 71 70 72 78 77 55 42 40 35 35 40 44 63 70 58 45 64 79 76
67 68 72 77 81 79 83 86 83 80 84 87 91 97 100 100 100 100 100 100 99 94 86 77 72 75 75 73 79 75 68 43 39 42 62 52 48 51 48 51 62 59 60
94 94 88 84 86 90 89 88 84 80 86 90 94 99 99 100 100 100 98 99 97 89 81 72 64 68 67 53 57 58 56 52 48 49 49 50 39 41 43 46 50 56 63
76 83 84 85 79 83 83 83 84 85 87 94 99 99 99 100 100 100 100 100 98 94 84 69 56 44 39 42 47 49 50 49 49 63 52 45 42 39 40 43 46 49 61

GFSMW_925_rhum_096.txt.gz
RH
28 34 39 36 65 78 66 69 71 75 100 100 100 100 100 99 100 100 94 88 84 83 84 83 78 81 82 80 82 82 79 79 79 74 67 68 67 67 67 69 68 68 73
30 30 37 38 48 74 68 82 64 74 96 100 96 99 99 100 100 99 100 100 96 91 88 85 85 84 83 84 82 82 80 73 78 66 68 60 57 63 65 66 68 68 67
35 33 36 38 34 63 78 88 70 60 74 79 79 86 85 92 91 86 94 95 92 99 96 92 89 89 88 84 85 82 81 72 78 78 64 67 62 59 63 63 64 64 65
43 40 42 37 37 34 69 75 61 59 50 58 67 71 65 71 68 69 68 64 92 92 85 88 93 93 91 87 85 84 80 81 73 82 79 71 69 63 65 66 61 58 59
38 46 41 37 39 36 38 55 58 58 57 56 65 63 64 63 68 61 77 71 56 57 65 93 92 96 93 88 90 93 89 84 79 78 81 82 78 76 72 76 67 76 71
33 38 43 40 38 37 30 39 71 87 72 76 54 51 65 60 61 61 64 74 62 60 64 74 80 71 80 83 83 93 91 86 88 87 83 82 83 84 84 79 78 82 86
33 34 36 38 36 34 33 30 48 69 81 79 79 91 69 78 72 63 69 93 92 87 70 73 85 76 67 85 89 89 94 92 93 91 88 88 84 82 86 87 84 84 89
30 33 33 37 38 40 46 48 54 68 89 100 99 98 98 98 88 93 65 80 58 71 67 96 98 100 100 100 100 100 100 100 99 100 97 94 94 93 92 89 90 98 96
29 30 33 38 38 43 48 51 62 73 80 94 100 100 99 100 100 95 94 98 92 86 81 81 82 83 90 97 100 98 99 100 100 99 100 100 100 98 98 99 99 98 94
34 34 34 40 48 52 57 62 62 68 74 75 79 84 94 93 90 85 74 62 58 55 59 69 69 77 74 82 98 98 99 99 97 100 100 99 100 100 100 97 99 99 99
42 40 41 46 53 61 64 64 68 69 70 70 72 72 73 70 71 75 76 74 65 66 66 71 76 81 81 78 85 93 100 100 100 100 100 100 100 97 93 98 98 99 100
53 51 51 55 58 60 64 68 68 68 71 72 69 69 71 71 74 78 78 77 80 78 79 81 82 87 91 92 100 99 99 100 100 100 100 99 94 95 99 97 97 95 97
59 56 53 53 56 60 62 65 68 70 73 73 70 70 70 70 70 74 78 80 81 83 84 86 88 93 94 92 96 100 100 100 100 99 99 99 97 97 96 98 94 92 90
58 53 52 52 56 60 62 65 70 71 72 70 69 69 72 72 72 74 76 78 81 82 84 85 86 86 87 93 99 100 100 100 100 100 100 96 96 95 92 86 85 86 86
57 55 55 50 56 61 64 64 67 70 71 70 72 72 74 75 75 76 77 77 78 79 80 81 83 84 86 88 90 96 100 100 99 98 95 92 90 87 84 82 83 82 80
57 54 55 56 54 56 60 65 65 68 71 70 72 76 76 77 79 79 79 80 81 83 84 86 87 91 87 86 90 92 96 97 95 93 92 90 86 83 80 78 76 75 78
54 56 53 54 56 58 59 63 62 67 71 72 74 77 79 81 83 85 85 84 85 89 94 94 94 98 97 99 98 96 94 93 92 92 93 94 95 90 91 94 66 51 41
56 55 53 55 57 58 60 62 65 67 72 74 76 79 81 84 88 90 92 94 95 91 94 97 99 100 99 100 100 98 95 95 96 96 94 92 89 83 63 64 50 62 62
51 53 56 58 58 60 60 62 65 67 69 72 76 80 85 89 92 93 96 98 99 92 93 96 99 98 99 99 100 97 98 99 94 89 77 72 70 45 44 47 54 64 76
57 58 61 62 60 62 62 63 63 65 67 70 75 82 89 89 92 98 94 91 99 98 95 96 97 96 98 99 100 99 87 77 70 76 69 79 74 42 33 46 44 43 52
62 67 67 64 65 67 67 66 64 68 71 77 83 83 87 88 92 99 98 96 98 100 100 100 100 100 99 98 94 85 68 63 69 75 73 74 80 81 55 44 51 45 53
62 70 68 72 78 78 74 72 73 82 80 81 80 83 90 98 97 99 99 100 99 100 100 100 100 98 91 83 63 42 38 45 60 64 69 74 74 60 68 59 41 80 78
60 65 66 72 77 79 76 79 79 75 75 80 84 90 95 98 97 99 99 100 100 100 100 98 91 78 69 72 74 45 38 40 52 47 45 50 57 58 59 43 59 84 79
64 66 70 72 77 78 76 75 78 81 82 86 90 94 99 100 100 100 100 100 99 100 98 92 87 73 73 80 76 76 76 50 38 38 58 72 70 69 61 53 77 70 67
83 87 84 81 78 80 84 87 89 89 90 90 94 99 100 100 100 99 99 99 97 98 96 91 86 72 72 72 74 72 70 63 52 68 66 60 58 58 58 57 56 61 66
71 74 78 86 86 89 89 88 87 88 90 94 93 94 100 100 100 100 100 100 99 99 98 97 88 70 66 50 53 57 56 55 55 55 50 44 41 42 41 45 51 58 68

GFSMW_925_rhum_099.txt.gz
RH
20 26 35 38 45 60 58 57 69 82 83 93 100 99 98 91 92 91 80 74 74 72 76 76 69 68 70 73 74 73 69 73 71 68 65 66 65 66 67 66 65 62 67
22 24 32 33 38 46 65 55 66 79 82 97 100 99 98 100 90 94 92 87 83 79 79 79 78 72 74 74 74 74 75 70 72 69 63 66 59 62 62 61 62 63 64
26 23 28 33 39 42 59 60 68 76 83 82 100 100 100 100 100 100 100 96 92 89 85 82 81 81 80 79 79 78 79 74 71 74 65 70 71 59 60 62 63 64 65
26 25 26 33 36 40 45 71 68 73 68 77 95 93 86 87 82 81 80 80 80 87 91 92 90 87 87 87 83 83 81 81 73 75 78 70 69 69 67 60 60 59 60
27 30 27 35 37 40 40 56 76 74 69 67 73 73 75 78 78 74 71 69 70 72 76 81 75 92 94 90 86 86 85 79 80 74 78 80 79 78 74 76 70 68 68
28 30 35 38 43 46 46 40 69 81 84 80 65 59 62 67 74 74 83 79 76 70 73 73 82 84 92 98 75 65 83 93 87 85 80 80 82 80 79 78 75 78 83
29 31 38 43 38 45 51 46 39 63 68 62 62 59 57 59 62 70 70 76 86 84 79 70 68 61 54 59 81 94 64 93 94 91 91 84 82 82 84 82 84 87 85
28 30 31 38 40 40 48 48 49 47 68 61 70 84 75 67 59 54 58 72 80 83 85 72 62 54 54 60 72 93 94 96 98 97 97 93 88 88 86 85 86 97 94
27 30 30 32 36 37 44 53 45 47 55 80 72 84 93 85 82 85 83 78 79 74 76 84 96 99 100 100 100 100 100 100 99 99 99 98 95 93 92 92 90 92 97
23 27 28 29 35 36 38 45 49 56 68 77 91 96 96 96 94 92 87 86 86 85 86 85 85 86 87 90 96 98 99 97 95 97 100 100 100 98 99 99 99 96 92
28 27 26 29 35 44 53 51 52 63 70 68 73 76 78 82 80 79 79 78 71 69 70 70 74 79 81 83 88 92 97 100 96 99 100 100 100 100 100 100 98 99 100
33 32 30 33 45 52 52 55 59 61 62 63 64 66 66 67 68 73 69 66 67 64 67 68 70 78 84 85 93 99 99 98 96 99 100 99 100 100 100 94 95 94 100
45 41 42 42 45 49 53 58 59 62 63 60 59 61 62 62 63 68 71 73 73 74 74 78 84 87 88 90 94 99 99 99 99 100 100 100 100 100 99 94 94 96 96
46 42 42 43 46 49 51 54 59 62 64 61 60 61 62 62 63 67 69 72 73 74 77 79 82 84 85 89 94 98 100 100 100 99 100 99 100 95 96 93 94 90 89
47 46 46 44 48 50 52 53 57 60 62 63 64 66 68 68 68 70 70 71 72 73 76 77 79 81 85 85 92 96 98 98 100 100 99 99 97 96 93 88 84 83 82
47 46 47 45 46 50 51 55 58 60 61 63 64 69 69 70 72 73 73 74 76 78 79 82 83 85 87 80 82 89 94 97 99 98 96 93 92 89 84 81 80 79 81
47 48 47 47 48 49 51 55 56 61 62 63 65 68 70 73 75 76 76 76 78 80 86 88 87 96 100 93 92 95 96 97 98 97 95 92 89 84 81 82 71 71 73
46 47 46 49 50 50 53 54 56 61 65 66 66 69 72 75 80 81 82 84 88 90 94 98 95 93 98 99 99 99 98 99 98 96 92 90 90 92 88 68 56 48 43
45 47 49 50 51 52 52 54 57 58 61 65 68 70 74 78 82 84 94 97 98 98 93 96 98 96 99 99 100 100 99 98 96 94 90 86 82 68 62 46 54 60 61
50 51 53 52 52 54 54 55 56 57 58 60 64 70 82 84 88 89 96 91 99 95 93 95 97 96 94 99 100 99 96 92 86 78 75 73 69 46 47 45 46 53 58
56 57 58 56 59 57 56 57 56 58 60 64 69 79 85 91 94 97 97 100 100 99 100 99 99 98 95 98 99 98 83 72 72 77 76 78 83 47 30 44 42 41 40
61 64 60 65 70 70 67 64 64 68 73 76 82 89 89 90 91 98 100 99 99 100 100 100 100 99 99 98 99 87 66 66 67 66 65 72 77 73 67 49 40 39 67
57 60 60 62 69 73 71 73 79 81 82 83 88 92 92 93 93 98 100 99 100 100 100 99 99 98 93 87 86 78 58 67 57 56 60 77 75 63 68 47 61 83 78
62 65 65 64 66 74 76 76 77 80 81 82 87 87 91 96 97 98 99 98 100 100 99 99 96 92 85 72 72 73 72 63 47 49 54 54 63 63 64 55 53 73 72
71 77 77 77 74 77 80 84 85 86 87 88 90 92 96 100 99 99 97 96 96 97 98 97 95 93 85 64 71 74 72 64 42 49 63 67 62 59 58 56 61 64 60
66 66 67 69 79 86 89 90 89 89 92 93 94 93 94 95 99 100 99 99 99 96 99 98 98 94 95 80 75 78 74 68 63 68 62 55 49 47 49 48 49 53 58

GFSMW_925_rhum_102.txt.gz
RH
29 35 36 39 45 56 63 66 80 81 81 83 87 81 86 85 82 78 74 70 68 65 67 67 63 64 67 70 73 73 70 72 66 67 63 63 63 66 66 66 68 66 66
24 36 37 42 52 56 54 63 71 82 85 81 85 86 85 86 84 81 80 81 77 71 73 76 74 66 69 71 75 76 74 71 72 71 70 83 70 66 65 66 65 65 64
27 35 39 39 43 61 61 60 70 74 85 81 85 91 88 100 98 94 85 84 88 87 82 79 79 76 70 72 74 75 75 75 72 72 72 85 86 72 63 63 63 63 65
29 30 37 44 41 56 68 67 70 78 80 78 84 76 99 98 99 98 96 93 99 95 88 85 81 82 81 78 79 79 78 78 77 74 72 70 75 86 83 63 63 64 63
32 32 36 44 42 46 72 72 72 75 74 79 82 85 92 91 85 87 90 86 83 79 80 84 88 89 86 87 83 84 84 83 80 78 77 79 75 76 88 91 70 61 61
30 35 33 44 49 45 45 67 80 83 77 70 64 75 76 78 80 77 82 84 78 81 84 85 80 83 80 82 80 77 73 68 78 79 78 80 83 88 88 94 84 81 75
33 41 49 54 53 49 44 56 77 81 74 73 68 67 75 83 79 80 68 67 68 71 80 89 84 83 76 71 68 66 63 73 82 85 79 76 88 86 82 83 85 86 90
34 43 48 49 54 55 47 46 49 67 72 73 70 67 74 74 70 71 71 64 72 69 75 78 86 85 83 84 77 77 92 89 87 89 88 92 92 86 88 82 85 97 96
38 41 44 48 43 52 50 42 45 50 57 72 68 72 72 68 68 64 68 64 52 60 71 72 62 58 65 75 81 76 64 75 93 98 98 98 95 91 90 88 86 88 99
36 41 43 39 42 41 48 43 49 51 48 56 73 72 76 88 91 81 72 78 76 72 71 82 86 97 96 96 91 95 98 99 99 100 99 98 99 99 97 93 91 90 90
35 39 42 36 37 40 45 46 45 45 54 71 88 88 93 94 92 89 88 90 90 90 91 89 88 83 83 84 84 86 88 93 92 95 96 94 96 100 100 99 100 99 99
36 34 35 43 50 52 51 52 58 62 61 69 72 75 77 81 82 82 81 75 70 68 66 66 69 72 73 73 76 79 76 79 89 96 100 99 100 99 100 100 99 100 99
48 46 50 55 55 53 56 59 62 63 64 65 66 66 66 67 70 71 70 71 69 68 70 73 78 80 78 80 82 84 90 95 98 99 100 100 100 100 100 99 99 100 97
51 52 54 54 52 53 57 60 62 63 61 59 61 61 62 63 66 68 69 70 72 73 73 75 74 77 80 82 87 89 99 99 99 99 99 99 100 100 100 99 96 97 94
54 53 57 59 54 54 56 60 62 62 62 61 62 64 64 64 66 67 67 67 69 68 69 69 70 73 75 77 81 92 95 100 100 100 100 100 99 99 98 96 94 90 87
54 54 54 57 56 54 54 57 60 62 63 64 66 65 66 67 67 67 67 68 68 69 71 74 76 77 76 74 76 84 90 91 95 98 100 100 99 99 97 92 86 82 81
54 56 56 55 53 52 54 58 60 62 62 64 66 67 68 70 71 71 71 73 75 76 79 80 82 87 86 83 77 83 91 94 97 98 98 95 93 92 88 86 82 81 82
54 55 56 52 50 52 55 56 59 62 63 64 66 68 70 72 74 74 76 78 79 83 86 89 89 91 92 98 98 95 99 100 100 100 97 91 88 87 84 76 68 66 68
59 57 52 51 51 52 54 55 59 62 65 65 66 68 70 74 76 79 82 84 85 87 88 87 88 94 100 100 100 99 100 100 100 97 94 92 91 94 76 58 51 45 44
58 57 54 52 54 52 53 56 58 59 63 66 67 69 72 76 81 84 89 88 96 94 91 90 92 94 97 99 100 100 100 98 95 90 90 87 83 81 59 44 43 49 52
60 59 59 63 62 58 57 56 57 58 58 61 65 70 76 81 82 87 87 88 100 100 100 99 95 94 92 99 99 99 95 92 88 85 78 76 83 68 50 41 39 41 44
66 62 66 69 69 67 64 64 64 63 62 64 69 74 78 82 84 86 91 99 99 100 100 100 100 100 98 96 99 100 86 76 74 76 70 74 88 74 38 41 37 54 41
61 63 63 67 70 72 71 73 77 72 72 74 80 84 87 88 88 95 96 99 100 100 99 100 100 98 98 96 99 99 83 75 68 65 62 67 78 74 79 55 50 67 64
71 70 68 68 71 73 73 77 79 80 80 82 85 87 86 89 90 92 95 96 97 99 100 100 99 98 96 89 87 93 76 74 61 57 67 78 73 57 48 54 65 72 70
71 77 80 81 79 77 79 81 80 78 79 82 86 88 90 92 93 94 95 96 94 94 96 96 95 95 94 90 78 72 64 64 51 46 54 70 73 71 68 61 48 57 73
70 71 70 69 69 70 81 88 89 89 89 90 92 91 89 92 95 98 98 100 100 98 98 98 96 93 95 98 93 87 80 68 60 66 61 64 61 57 53 52 52 60 58

GFSMW_925_rhum_105.txt.gz
RH
46 58 60 65 67 64 63 65 68 77 80 82 93 88 75 72 67 70 70 69 68 66 68 68 66 67 69 70 70 70 69 68 67 67 66 62 58 58 61 57 61 66 67
51 55 52 56 63 69 64 66 72 71 72 72 84 91 84 84 73 76 74 72 71 67 66 67 65 64 65 68 70 72 73 71 71 69 74 83 71 66 64 66 67 67 67
51 54 58 50 50 60 68 68 70 74 73 75 73 77 78 93 89 91 86 81 75 73 68 68 71 66 66 69 73 76 77 74 74 71 69 90 86 80 67 65 66 67 67
41 48 54 58 60 61 66 70 71 77 84 79 77 79 88 99 100 97 93 92 90 90 87 84 79 79 70 68 70 73 76 77 76 76 73 70 74 87 85 67 68 69 68
44 49 54 52 58 68 68 68 70 82 92 90 82 94 99 99 100 100 100 100 98 90 98 100 95 94 95 82 83 82 82 81 80 78 76 75 78 80 84 92 73 66 66
36 43 52 52 61 78 74 72 74 77 80 88 94 89 88 83 81 90 90 87 88 88 91 100 100 95 96 99 99 90 89 88 90 91 86 84 84 89 91 96 87 78 74
38 61 64 64 61 77 81 80 80 89 88 84 77 72 76 81 84 84 86 92 86 78 80 93 89 85 87 89 89 87 84 78 80 74 76 75 80 76 74 86 89 90 89
41 60 59 58 56 62 85 85 84 84 72 63 60 58 59 66 75 69 68 74 77 77 64 83 80 81 87 80 76 80 78 81 82 77 77 82 91 87 94 86 88 98 99
39 58 61 60 56 49 69 81 83 81 74 67 64 64 68 69 70 72 76 70 72 73 72 72 86 82 74 71 85 88 81 80 93 90 94 90 94 97 96 94 92 90 98
41 56 60 61 59 49 46 51 57 67 68 69 66 65 64 68 71 69 72 68 63 56 73 83 78 73 75 84 85 85 86 100 100 100 100 100 94 90 91 94 97 94 94
43 50 58 55 52 51 50 52 53 53 60 67 72 78 83 86 90 90 85 78 77 73 72 75 80 80 89 81 87 93 95 97 94 91 94 99 100 99 99 100 99 97 96
47 53 58 56 52 49 55 55 56 60 68 82 90 89 84 86 90 90 90 89 90 92 92 95 94 92 89 86 85 83 82 81 79 79 80 75 93 93 98 99 98 100 100
60 69 68 69 64 59 59 61 66 66 71 74 74 73 74 79 85 86 86 84 81 79 80 78 77 77 75 71 71 74 78 82 87 89 93 98 100 100 99 99 100 100 100
61 67 70 72 64 62 64 65 64 64 66 66 68 68 69 71 73 73 71 70 68 66 67 68 69 70 72 75 79 81 84 89 93 98 98 97 99 100 100 99 100 100 100
58 61 67 72 67 66 65 65 64 62 62 62 63 64 65 66 67 67 70 71 72 71 71 69 69 69 70 72 73 75 78 86 97 98 98 99 100 100 100 100 100 100 100
58 60 63 65 68 66 65 64 63 62 61 62 64 64 65 66 66 67 68 68 68 69 69 70 71 72 74 75 74 77 81 83 84 88 96 99 100 100 100 100 100 97 94
59 60 63 63 61 61 61 63 63 64 64 64 65 65 65 66 67 68 69 70 70 71 73 75 76 78 79 78 76 78 82 83 87 92 95 98 99 100 98 96 93 90 88
59 58 59 58 57 56 59 61 62 63 65 67 67 67 68 69 70 70 71 72 74 75 77 79 79 79 80 82 81 81 95 97 97 99 100 97 95 94 92 92 88 85 85
67 62 55 53 55 56 57 59 62 63 66 66 67 68 69 71 72 73 75 76 77 78 78 79 78 79 81 98 99 94 100 100 100 99 99 95 91 92 91 79 75 71 71
62 60 59 58 57 57 57 59 62 64 66 66 65 67 70 72 75 77 78 79 79 80 83 86 88 91 92 100 99 100 98 100 99 98 97 96 94 98 87 67 60 51 55
64 62 63 66 65 63 59 59 60 61 60 64 67 68 71 73 76 79 82 84 87 96 100 99 97 95 92 98 98 100 97 97 95 92 93 92 92 96 84 52 45 40 43
69 68 69 69 67 66 64 64 65 60 60 61 65 69 72 77 80 83 85 87 92 98 99 99 100 98 96 94 99 99 98 91 92 90 89 82 93 78 61 49 36 38 41
68 67 70 72 72 71 71 72 73 68 67 67 70 73 76 81 84 86 90 96 99 100 100 100 100 99 98 96 96 98 99 81 83 77 84 71 90 89 69 44 53 66 52
76 74 72 73 74 72 73 77 79 78 76 76 79 81 83 86 88 91 94 95 97 99 99 100 99 98 97 96 94 99 98 87 86 70 64 68 81 73 65 57 73 72 60
76 79 82 82 80 78 78 79 78 78 79 80 82 84 85 87 90 91 92 94 92 94 94 93 94 96 96 92 92 89 97 89 77 59 68 82 85 74 62 59 53 60 71
77 78 78 74 73 72 76 84 87 87 86 87 90 90 90 91 94 96 96 98 99 98 98 96 97 94 95 96 93 95 98 74 69 66 60 71 81 74 66 62 57 49 54

GFSMW_925_rhum_108.txt.gz
RH
61 60 74 82 61 64 68 73 72 71 94 92 96 87 73 69 66 65 64 63 65 68 68 66 71 73 72 72 71 71 72 72 69 69 69 67 65 62 58 56 54 62 64
64 65 84 84 75 71 67 70 68 71 78 81 96 85 84 78 70 72 68 66 63 67 68 68 68 69 70 71 72 72 72 71 71 70 76 84 70 65 59 58 63 60 65
68 65 83 82 74 69 70 65 69 69 97 99 100 97 80 95 84 80 77 75 72 68 68 67 68 68 69 70 70 70 71 72 73 74 66 90 89 82 69 67 67 69 70
66 67 76 78 67 62 65 68 67 66 71 90 87 97 98 98 97 96 91 82 82 76 70 69 69 69 67 67 67 69 74 77 75 77 75 70 77 87 82 71 69 70 70
71 60 68 64 66 66 66 72 75 78 96 82 93 86 73 78 83 89 100 93 96 92 83 78 80 82 83 77 77 84 85 81 79 76 75 76 80 82 86 91 79 71 73
46 47 64 65 73 73 70 69 72 74 76 88 97 93 97 99 100 99 100 100 99 96 99 92 86 96 95 99 93 89 95 94 93 89 87 86 84 89 93 97 89 77 70
55 68 74 83 89 85 81 79 80 84 82 90 91 88 89 94 91 91 91 94 96 95 94 95 94 95 99 99 99 99 100 100 100 99 95 86 90 86 88 92 92 92 87
66 68 69 76 86 86 89 86 86 84 93 86 83 82 78 77 76 75 78 83 84 80 76 87 93 90 88 86 87 86 90 96 90 96 97 87 83 86 89 98 94 98 99
64 72 71 66 81 91 87 81 87 86 86 83 80 75 67 75 79 78 77 76 75 74 72 69 77 83 84 71 91 92 96 92 92 91 92 89 81 78 88 89 96 82 98
52 72 67 62 66 84 84 86 82 78 80 72 62 61 66 68 73 73 69 70 75 79 81 85 82 75 87 77 81 87 87 88 83 83 91 86 93 92 95 92 100 99 97
49 66 65 62 56 68 77 85 86 85 79 69 66 67 69 70 72 72 75 78 82 77 72 80 83 86 81 86 90 98 100 98 98 100 100 100 100 100 99 100 100 100 100
50 64 61 66 65 59 66 76 81 83 83 82 78 76 74 82 81 81 79 86 91 91 88 87 86 92 91 94 95 92 91 92 91 88 87 84 84 80 86 100 99 95 99
66 74 78 70 69 66 60 58 56 55 61 71 77 82 89 89 88 90 92 91 90 90 90 90 92 93 91 89 85 80 77 76 78 82 88 90 94 99 99 100 98 100 99
77 82 83 82 73 70 66 63 66 67 75 84 85 81 78 78 85 87 86 84 80 77 75 74 74 75 74 71 70 70 70 73 75 80 87 94 95 93 100 100 98 100 100
70 74 81 85 78 76 73 70 68 68 69 70 72 71 73 73 72 71 70 68 66 65 67 68 70 69 68 67 65 65 67 70 73 76 83 95 99 99 98 100 100 100 100
64 69 73 76 78 73 71 69 67 66 66 67 68 68 70 69 68 67 69 71 70 68 67 67 66 66 68 68 67 69 72 77 78 76 79 79 84 95 99 100 100 100 100
66 68 70 71 69 67 66 68 67 66 66 66 67 68 68 67 68 68 67 66 67 66 66 66 66 69 72 74 70 70 74 78 85 91 93 92 89 98 100 100 99 100 100
63 64 65 64 64 64 64 64 65 67 67 68 68 68 66 66 67 67 68 69 70 70 71 72 74 76 78 79 80 79 79 86 90 96 99 100 97 97 98 98 96 94 92
62 60 57 60 60 61 62 63 66 66 67 68 67 66 67 68 70 71 71 72 73 75 76 78 80 82 83 88 95 94 87 93 100 99 100 100 96 94 96 92 87 86 84
67 65 62 59 60 61 61 62 65 67 68 67 66 67 68 70 70 71 73 75 78 79 82 85 86 88 88 95 100 99 88 93 98 97 98 100 97 97 97 89 72 72 78
70 67 67 68 68 64 62 61 63 64 63 66 67 68 69 70 73 75 78 80 82 84 85 87 88 86 85 86 97 99 93 93 95 95 93 95 97 99 100 86 61 54 52
74 71 72 74 71 68 65 65 65 61 62 64 67 68 70 73 75 78 82 85 88 90 93 97 97 97 93 92 94 100 100 94 93 92 91 90 92 99 95 76 50 46 44
71 71 72 72 72 73 73 74 72 69 66 67 69 72 75 78 81 83 86 90 92 95 99 100 99 95 95 93 93 95 99 99 93 84 85 94 95 92 76 64 49 68 55
80 76 74 76 76 72 75 79 78 74 72 72 74 76 78 81 83 85 88 90 93 94 96 96 96 93 93 92 92 94 100 99 91 86 91 97 85 92 83 66 72 65 63
81 83 83 82 80 80 78 77 77 81 81 81 83 85 86 86 87 87 87 88 89 90 92 92 94 95 94 91 94 95 93 97 96 95 78 76 87 85 74 66 57 65 71
81 82 80 76 75 74 76 82 86 84 83 82 83 84 86 87 89 90 88 90 91 94 96 97 98 95 95 95 96 96 95 94 100 96 69 69 80 82 75 67 56 55 54

GFSMW_925_rhum_111.txt.gz
RH
72 62 61 69 76 80 81 99 100 100 100 100 98 93 91 83 80 64 65 67 76 77 77 75 73 75 75 73 72 74 74 73 71 72 71 68 66 65 63 56 57 60 62
72 67 63 80 88 80 75 78 87 97 100 100 96 90 87 85 83 73 67 65 70 75 75 73 73 75 76 75 74 75 76 75 74 72 78 85 66 65 64 63 61 59 60
74 72 66 64 99 93 86 93 89 78 93 99 96 96 87 89 85 81 77 74 68 70 69 69 67 72 76 76 76 75 74 74 74 72 69 89 87 83 73 66 62 62 67
74 77 65 65 86 85 89 98 80 99 100 96 100 99 90 89 81 78 86 83 78 72 75 73 72 70 71 72 72 73 74 74 75 81 74 69 75 88 86 73 72 70 71
79 73 67 63 74 91 84 99 89 100 100 100 95 95 94 77 92 100 89 89 82 83 80 80 80 71 70 70 70 74 78 79 82 82 78 79 81 81 86 91 78 70 71
73 70 62 57 68 92 95 85 69 85 68 66 90 83 89 93 91 92 98 99 88 93 90 84 81 79 78 81 76 76 83 84 92 95 93 87 86 92 92 96 91 83 73
77 61 73 76 80 95 88 73 73 95 80 74 94 95 93 95 97 96 100 100 98 84 90 97 96 94 96 99 100 100 99 99 100 100 100 99 94 94 88 90 94 96 87
74 48 73 79 79 92 87 80 84 98 100 99 98 98 98 98 99 94 100 100 100 99 98 98 99 96 98 98 99 99 98 99 99 94 95 100 99 100 100 100 98 98 98
50 69 83 84 86 89 92 74 81 80 81 80 84 92 97 89 86 88 85 86 88 86 84 91 96 96 93 89 89 93 94 95 92 92 96 97 91 95 92 93 91 98 96
55 78 78 81 89 87 86 86 71 66 71 74 78 78 82 82 86 88 86 84 81 82 80 78 77 79 84 89 90 80 81 84 91 96 99 94 93 96 100 100 100 100 100
49 73 75 70 80 86 86 81 89 84 83 90 85 81 75 74 77 78 75 71 72 70 70 74 77 79 84 95 97 96 94 96 100 100 100 100 100 98 96 97 98 98 100
49 72 73 67 68 83 91 86 92 94 94 87 82 76 74 77 78 79 80 81 82 86 84 82 83 91 92 94 97 96 98 96 95 92 90 85 83 82 81 84 91 94 99
50 73 75 75 70 72 79 86 88 91 89 86 82 82 81 84 86 88 93 95 95 96 96 95 97 100 98 96 93 90 85 81 79 80 82 85 86 86 93 93 95 96 99
75 79 79 79 77 72 71 72 69 72 77 84 85 83 85 88 88 86 88 88 89 89 89 90 91 90 86 81 76 72 71 70 71 75 77 78 81 91 96 95 93 98 100
83 83 86 87 84 79 74 73 74 77 78 83 86 86 83 79 80 83 83 80 76 74 73 74 74 74 71 66 64 64 65 68 71 74 75 78 78 77 82 94 99 100 100
76 82 85 88 88 82 78 75 75 74 74 74 74 73 74 76 74 73 72 72 70 70 70 70 69 67 66 65 64 65 65 67 69 69 71 75 77 80 79 74 92 100 100
72 74 79 82 78 74 69 67 68 69 68 68 70 72 74 72 71 70 71 71 70 68 67 67 66 65 66 65 61 61 63 67 70 75 81 85 90 93 98 99 98 99 100
69 73 75 72 71 70 69 68 68 68 69 70 71 71 70 69 68 67 67 67 68 67 68 69 70 71 74 77 73 65 68 70 75 84 97 99 99 97 97 98 96 95 94
66 65 64 65 66 67 66 66 68 69 70 70 70 70 69 69 69 70 71 72 72 72 72 73 74 74 77 81 78 81 82 85 87 88 94 96 94 94 98 97 91 88 90
73 70 64 64 64 66 65 66 69 71 71 70 69 69 70 70 72 72 73 73 74 74 76 77 79 82 83 87 96 99 92 85 89 91 90 92 96 96 100 96 86 77 81
76 72 69 72 72 68 67 68 69 69 67 68 68 68 70 71 72 74 74 77 78 80 84 87 88 87 88 87 91 100 96 91 90 89 89 91 92 94 100 98 87 66 60
77 74 74 76 72 70 67 67 66 66 66 69 69 69 70 72 74 76 80 82 86 88 88 88 87 88 90 89 88 94 100 99 94 90 88 89 90 92 99 99 88 60 52
74 75 74 73 73 74 74 72 70 68 66 66 69 72 74 76 78 79 82 86 88 89 89 91 92 88 88 89 91 92 94 99 99 98 88 85 89 95 98 84 65 61 70
82 77 76 78 77 73 77 79 76 73 73 73 74 77 78 79 82 84 85 87 88 90 93 97 96 93 92 90 91 91 91 94 100 99 89 88 93 94 91 80 63 68 69
84 84 84 81 80 80 79 78 79 80 79 79 79 79 81 84 86 87 87 89 89 92 94 94 94 94 91 87 89 91 93 94 94 100 92 91 84 84 90 84 72 62 68
82 81 80 78 77 76 78 83 87 84 82 82 85 86 87 87 89 90 89 90 91 89 90 93 96 93 95 93 93 92 92 96 100 100 98 92 76 74 75 77 72 64 52

GFSMW_925_rhum_114.txt.gz
RH
60 65 64 69 90 98 87 100 100 100 99 100 100 100 100 98 93 86 81 77 78 77 75 70 54 49 48 56 68 73 75 74 73 74 72 72 69 67 66 60 56 57 62
64 64 63 64 99 80 99 94 100 100 100 100 100 99 98 92 87 86 84 85 86 83 80 79 68 68 68 69 72 75 77 77 76 77 79 87 69 62 64 68 68 61 60
71 66 68 65 71 98 99 95 88 100 100 100 100 98 99 96 94 90 83 88 85 80 79 78 78 77 77 77 77 79 77 76 77 78 72 88 87 78 69 69 70 69 64
80 70 70 66 66 93 93 90 97 98 100 100 100 100 97 98 97 94 82 77 85 81 82 80 81 81 80 81 79 76 78 80 77 84 78 71 71 86 83 75 74 73 65
80 70 69 65 72 90 98 87 98 98 99 100 99 100 99 100 100 98 94 84 82 84 88 83 81 79 85 79 79 81 79 81 84 80 81 82 80 82 86 86 78 73 73
83 78 67 60 76 98 98 84 85 100 91 100 99 98 87 85 99 100 95 97 88 92 86 87 85 88 88 85 79 77 77 89 87 90 95 91 92 95 97 96 88 85 78
79 72 70 72 92 95 81 83 76 77 97 89 95 88 87 82 89 98 92 91 96 98 87 82 93 89 89 90 85 90 92 89 94 100 100 100 100 99 97 98 97 95 90
81 70 65 66 88 100 96 85 68 83 90 89 91 91 81 88 97 96 80 90 89 90 87 86 92 99 100 98 98 99 100 100 99 97 96 97 97 98 100 99 99 99 100
71 68 58 71 79 97 100 100 96 88 81 79 69 85 90 99 100 89 87 86 91 100 100 100 100 100 100 99 95 89 91 93 93 90 94 98 91 94 97 96 97 99 99
60 60 70 76 86 96 74 88 94 92 69 64 94 92 100 99 100 100 99 100 98 96 96 92 93 95 96 94 90 86 87 91 92 96 99 99 100 100 100 100 100 100 100
43 53 75 81 94 100 91 84 84 86 100 100 100 100 99 94 93 89 87 86 86 88 86 84 85 89 91 93 97 97 92 97 99 99 98 95 95 90 86 85 86 89 99
45 60 75 80 92 100 95 84 77 73 81 97 95 89 85 88 89 86 79 76 76 78 78 84 87 90 96 99 100 99 99 100 93 94 89 80 76 76 77 80 88 99 99
49 68 79 83 84 92 95 93 91 92 96 90 82 79 80 80 82 86 88 89 91 92 94 93 95 97 100 98 98 97 95 89 81 79 77 75 72 72 77 82 89 92 89
76 74 80 83 79 86 90 90 93 96 95 88 82 82 85 87 87 86 88 87 86 88 92 95 96 96 95 93 88 80 74 71 70 72 71 70 73 74 79 80 79 88 99
82 84 85 89 87 82 82 80 83 89 96 98 96 92 91 91 89 86 86 87 88 87 87 86 84 80 75 70 66 64 66 67 68 69 71 72 75 78 79 84 88 93 96
82 86 89 88 89 84 85 82 83 86 89 91 92 90 86 84 82 83 82 79 77 76 75 75 72 70 66 68 66 64 64 65 65 66 70 74 77 78 81 85 96 100 100
79 81 88 89 86 81 75 75 75 75 76 76 77 78 79 78 77 76 74 73 73 73 72 71 70 71 72 71 64 63 64 65 66 67 71 76 81 84 86 90 94 95 97
77 80 81 80 78 76 74 71 71 70 70 72 74 77 76 74 74 74 74 75 75 74 74 75 76 78 84 84 73 62 63 62 66 70 75 79 83 89 93 93 93 91 91
78 74 72 72 73 71 72 71 74 73 73 74 74 74 73 72 72 71 71 71 71 71 72 72 73 74 76 75 70 68 71 73 76 80 84 87 88 88 86 90 92 88 87
80 75 71 71 70 72 69 69 73 74 75 74 72 72 71 70 71 71 72 72 73 74 78 80 80 79 79 82 79 88 83 84 84 86 88 88 85 88 94 93 90 86 78
78 74 74 77 76 70 68 69 70 71 72 73 72 72 72 72 73 74 75 76 78 80 82 83 84 81 81 83 90 100 98 90 86 84 85 88 92 94 96 99 94 83 66
77 74 76 77 76 74 69 70 69 68 68 70 70 72 73 74 75 77 79 82 84 85 86 86 86 83 86 90 90 90 100 99 94 91 88 86 86 90 96 100 96 78 61
79 75 72 73 74 76 76 74 75 72 69 71 73 74 75 77 78 80 82 85 88 88 88 91 95 89 90 88 88 89 89 93 100 100 99 90 84 89 98 98 84 66 69
85 80 79 80 79 76 78 79 78 76 76 74 76 78 79 80 82 84 86 87 89 91 91 91 91 88 88 86 87 88 89 92 98 100 100 93 88 92 93 91 76 64 61
84 85 85 83 83 84 83 81 81 82 80 78 80 82 83 84 84 85 85 86 86 86 88 88 88 88 89 88 90 90 91 94 95 99 100 97 90 90 89 90 87 75 62
87 84 83 81 80 79 79 83 88 87 83 83 86 86 86 88 90 89 88 88 88 90 90 89 89 88 94 96 98 99 100 100 100 100 99 98 94 92 81 76 78 74 67

GFSMW_925_rhum_117.txt.gz
RH
60 68 55 66 82 98 99 100 100 100 100 100 100 100 100 95 77 71 73 77 81 79 77 72 70 68 65 61 64 69 68 72 73 72 72 71 71 71 68 66 63 56 56
67 69 66 66 75 98 77 98 100 100 100 100 100 100 100 100 95 79 73 69 71 75 72 68 68 68 66 66 64 67 75 78 77 80 83 74 69 66 66 68 69 64 58
70 68 68 67 70 100 98 100 100 99 99 100 100 100 100 100 100 99 91 78 69 74 75 73 67 59 56 54 56 70 76 78 79 79 75 79 71 72 65 69 70 75 69
73 70 76 70 77 99 92 68 81 98 100 100 100 99 97 98 98 100 100 98 84 83 86 83 81 73 65 71 71 73 75 80 80 84 81 76 74 72 68 71 72 76 76
75 76 72 69 89 100 98 76 70 90 90 100 99 100 100 97 96 100 92 92 92 95 94 92 86 85 83 83 86 88 87 89 85 84 85 83 86 88 88 80 76 70 75
80 81 72 67 100 100 100 90 77 72 98 100 98 100 100 100 100 100 100 99 93 95 92 96 96 93 90 88 90 94 90 86 86 91 92 91 92 95 96 95 90 86 80
80 79 69 89 98 100 100 99 93 97 94 91 99 90 94 100 100 100 100 100 100 99 97 90 82 84 86 77 80 89 92 92 93 96 100 100 100 100 100 100 99 99 97
84 82 65 86 99 100 90 72 98 98 91 81 93 92 89 94 93 100 100 99 98 95 91 87 87 96 96 89 92 88 99 97 100 100 95 96 94 92 97 96 98 99 100
88 77 70 84 99 98 94 72 72 87 88 91 99 89 93 96 89 89 97 86 80 88 87 79 88 71 90 98 100 96 100 99 96 94 90 94 99 99 100 100 100 98 99
84 78 86 84 100 98 88 69 73 75 78 82 90 94 98 98 99 96 100 100 94 92 86 82 87 97 97 100 100 94 93 95 96 97 98 100 99 100 99 100 100 100 100
57 73 78 92 99 99 100 92 88 80 88 82 89 93 93 91 96 94 98 99 97 98 99 99 98 98 99 98 96 94 92 99 98 98 94 94 95 91 85 82 80 82 94
53 72 76 92 99 100 99 100 100 100 100 99 100 98 100 100 100 100 100 98 97 98 91 90 88 92 96 100 100 99 100 99 98 94 92 85 77 73 67 67 75 82 89
60 76 77 87 99 100 100 100 100 100 100 100 98 97 100 100 99 96 92 91 90 90 89 87 85 92 100 100 99 99 97 96 91 82 74 70 67 66 67 69 72 77 87
75 74 80 80 94 99 100 100 100 100 98 92 90 90 89 90 88 86 86 90 93 92 95 98 99 100 100 99 96 92 89 81 71 65 64 63 65 67 69 70 75 82 91
82 86 84 85 89 94 95 100 100 100 94 92 92 93 93 92 93 94 93 91 91 92 95 98 99 98 96 92 87 76 67 62 62 64 64 66 68 72 72 73 78 88 99
80 87 89 87 88 90 91 93 97 99 99 98 97 97 96 93 90 86 85 87 90 91 92 91 87 80 74 68 64 59 59 61 65 66 69 70 73 76 78 83 90 95 100
81 83 87 90 91 87 86 87 91 94 92 91 94 92 89 86 84 83 82 80 79 79 77 75 71 69 67 66 63 61 61 62 64 66 72 76 78 79 83 86 91 91 92
78 80 82 84 83 81 79 80 80 78 79 81 82 81 81 80 81 79 77 76 76 74 73 72 71 69 69 62 62 62 64 66 70 72 76 77 78 79 82 85 88 88 88
82 81 79 80 79 78 78 75 74 74 77 79 79 80 79 79 80 78 76 76 75 75 75 75 75 75 78 78 74 73 74 74 76 78 77 75 80 82 80 81 81 83 84
82 78 74 75 74 76 73 71 76 75 74 75 78 78 76 74 75 74 75 75 74 74 76 78 79 78 78 80 78 75 77 78 77 75 77 82 81 78 90 87 80 84 82
83 79 78 79 78 73 70 72 73 73 74 75 73 74 74 73 73 74 76 77 79 80 84 84 86 84 84 88 96 98 83 79 79 79 79 82 84 88 94 100 95 90 81
81 78 78 80 80 78 73 72 72 72 73 74 74 75 76 77 77 78 80 81 81 82 86 89 90 84 81 83 85 85 89 95 92 87 86 85 84 83 86 97 100 93 78
80 78 78 76 77 80 80 77 81 77 74 75 74 75 76 77 78 78 78 81 84 84 87 91 90 83 83 83 84 90 93 99 99 98 99 96 91 84 87 99 99 83 74
90 86 83 83 83 79 82 85 83 78 79 77 79 80 80 81 83 83 83 85 87 90 90 91 93 89 89 88 90 90 94 94 97 100 100 100 95 90 91 96 88 77 63
83 83 82 84 83 81 83 82 80 82 81 81 83 85 86 88 88 88 86 86 86 85 86 85 86 90 90 85 85 87 88 89 91 95 100 100 98 92 93 93 90 85 76
89 86 85 82 80 80 80 83 86 88 86 84 86 86 87 88 89 89 90 91 90 90 90 91 89 88 88 88 90 92 94 95 94 100 99 99 99 94 92 90 82 81 78